[[{"header":{"parameterUnit":"m.s-1","parameterCategory":1,"la1":30.6,"la2":29.2853,"lo1":-89.7004,"lo2":-87.6739,"dy":0.0162,"dx":0.0183,"nx":112,"ny":82,"refTime":"2023-09-01T18:00:00:Z","depth":0,"parameterNumber":2,"parameterNumberName":"U-component_of_WINDS"},"data":[0.0,0.0,0.0,0.0,0.0,0.0,0.0,0.0,0.0,0.0,0.0,0.0,0.0,0.0,0.0,0.0,0.0,0.0,0.0,0.0,0.0,0.0,0.0,0.0,0.0,0.0,0.0,0.0,0.0,0.0,0.0,0.0,0.0,0.0,0.0,0.0,0.0,0.0,0.0,0.0,0.0,0.0,0.0,0.0,0.0,0.0,0.0,0.0,0.0,0.0,0.0,0.0,0.0,0.0,0.0,0.0,0.0,0.0,0.0,0.0,0.0,0.0,0.0,0.0,0.0,0.0,0.0,0.0,0.0,0.0,0.0,0.0,0.0,0.0,0.0,0.0,0.0,0.0,0.0,0.0,0.0,0.0,0.0,0.0,0.0,0.0,0.0,0.0,0.0,0.0,-0.3366,-0.2946,-0.1133,0.0,0.0,0.0,0.0,0.0,0.0,0.0,0.0,0.0,0.0,0.0,0.0,0.0,0.0,0.0,0.0,0.0,0.0,0.0,0.0,0.0,0.0,0.0,0.0,0.0,0.0,0.0,0.0,0.0,0.0,0.0,0.0,0.0,0.0,0.0,0.0,0.0,0.0,0.0,0.0,0.0,0.0,0.0,0.0,0.0,0.0,0.0,0.0,0.0,0.0,0.0,0.0,0.0,0.0,0.0,0.0,0.0,0.0,0.0,0.0,0.0,0.0,0.0,0.0,0.0,0.0,0.0,0.0,0.0,0.0,0.0,0.0,0.0,0.0,0.0,0.0,0.0,0.0,0.0,0.0,0.0,0.0,0.0,0.0,0.0,0.0,0.0,0.0,0.0,0.0,0.0,0.0,0.0,0.0,0.0,0.0,0.0,0.0,0.0,0.0,0.0,0.0,0.0,0.0,0.0,0.0,0.0,0.0,0.0,-0.2461,-0.0694,-0.0177,0.0,0.0,0.0,0.0,0.0,0.0,0.0,0.0,0.0,0.0,0.0,0.0,0.0,0.0,0.0,0.0,0.0,0.0,0.0,0.0,0.0,0.0,0.0,0.0,0.0,0.0,0.0,0.0,0.0,0.0,0.0,0.0,0.0,0.0,0.0,0.0,0.0,0.0,0.0,0.0,0.0,0.0,0.0,0.0,0.0,0.0,0.0,0.0,0.0,0.0,0.0,0.0,0.0,0.0,0.0,0.0,0.0,0.0,0.0,0.0,0.0,0.0,0.0,0.0,0.0,0.0,0.0,0.0,0.0,0.0,0.0,0.0,0.0,0.0,0.0,0.0,0.0,0.0,0.0,0.0,0.0,0.0,0.0,0.0,0.0,0.0,0.0,0.0,0.0,0.0,0.0,0.0,0.0,0.0,0.0,0.0,0.0,0.0,0.0,0.0,0.0,0.0,0.0,0.0,0.0,0.0,0.0,0.0,-0.3425,-0.1746,-0.0177,0.0,0.0,0.0,0.0,0.0,0.0,0.0,0.0,0.0,0.0,0.0,0.0,0.0,0.0,0.0,0.0,0.0,0.0,0.0,0.0,0.0,0.0,0.0,0.0,0.0,0.0,0.0,0.0,0.0,0.0,0.0,0.0,0.0,0.0,0.0,0.0,0.0,0.0,0.0,0.0,0.0,0.0,0.0,0.0,0.0,0.0,0.0,0.0,0.0,0.0,0.0,0.0,0.0,0.0,0.0,0.0,0.0,0.0,0.0,0.0,0.0,0.0,0.0,0.0,0.0,0.0,0.0,0.0,0.0,0.0,0.0,0.0,0.0,0.0,0.0,0.0,0.0,0.0,0.0,0.0,0.0,0.0,0.0,0.0,0.0,0.0,0.0,0.0,0.0,0.0,0.0,0.0,0.0,0.0,0.0,0.0,0.0,0.0,0.0,0.0,0.0,0.0,0.0,0.0,0.0,0.0,0.0,0.0,0.0,-0.2289,-0.1344,-0.009,0.0,0.0,0.0,0.0,0.0,0.0,-0.0264,0.0,0.0,0.0,0.0,0.0,0.0,0.0,0.0,0.0,0.0,0.0,0.0,0.0,0.0,0.0,0.0,0.0,0.0,0.0,0.0,0.0,0.0,0.0,0.0,0.0,0.0,0.0,0.0,0.0,0.0,0.0,0.0,0.0,0.0,0.0,0.0,0.0,0.0,0.0,0.0,0.0,0.0,0.0,0.0,0.0,0.0,0.0,0.0,0.0,0.0,0.0,0.0,0.0,0.0,0.0,0.0,0.0,0.0,0.0,0.0,0.0,0.0,0.0,0.0,0.0,0.0,0.0,0.0,0.0,0.0,0.0,0.0,0.0,0.0,0.0,0.0,0.0,0.0,0.0,0.0,0.0,0.0,0.0,0.0,0.0,0.0,0.0,0.0,0.0,0.0,0.0,0.0,0.0,0.0,0.0,0.0,0.0,0.0,0.0,0.0,0.0,0.0,-0.1745,-0.1344,-0.009,0.0,0.0,0.0,0.0,0.0,0.0,-0.1055,0.0,0.0,0.0,0.0,0.0,0.0,0.0,0.0,0.0,0.0,0.0,0.0,0.0,0.0,0.0,0.0,0.0,0.0,0.0,0.0,0.0,0.0,0.0,0.0,0.0,0.0,0.0,0.0,0.0,0.0,0.0,0.0,0.0,0.0,0.0,0.0,0.0,0.0,0.0,0.0,0.0,0.0,0.0,0.0,0.0,0.0,0.0,0.0,0.0,0.0,0.0,0.0,0.0,0.0,0.0,0.0,0.0,0.0,0.0,0.0,0.0,0.0,0.0,0.0,0.0,0.0,0.0,0.0,0.0,0.0,0.0,0.0,0.0,0.0,0.0,0.0,0.0,0.0,0.0,0.0,0.0,0.0,0.0,0.0,0.0,0.0,0.0,0.0,0.0,0.0,0.0,0.0,0.0,0.0,0.0,0.0,0.0,0.0,0.0,0.0,0.0,0.0,-0.1047,-0.0536,0.0,0.0,0.0,0.0,0.0,0.0,0.0,0.0,0.0,0.0,0.0,0.0,0.0,0.0,0.0,0.0,0.0,0.0,0.0,0.0,0.0,0.0,0.0,0.0,0.0,0.0,0.0,0.0,0.0,0.0,0.0,0.0,0.0,0.0,0.0,0.0,0.0,0.0,0.0,0.0,0.0,0.0,0.0,0.0,0.0,0.0,0.0,0.0,0.0,0.0,0.0,0.0,0.0,0.0,0.0,0.0,0.0,0.0,0.0,0.0,0.0,0.0,0.0,0.0,0.0,0.0,0.0,0.0,0.0,0.0,0.0,0.0,0.0,0.0,0.0,0.0,0.0,0.0,0.0,0.0,0.0,0.0,0.0,0.0,0.0,0.0,0.0,0.0,0.0,0.0,0.0,0.0,0.0,0.0,0.0,0.0,0.0,0.0,0.0,0.0,0.0,0.0,0.0,0.0,0.0,0.0,0.0,0.0,0.0,-0.1091,-0.0437,0.0,0.0,0.0,0.0,0.0,0.0,0.0,0.0,0.0,0.0,0.0,0.0,0.0,0.0,0.0,0.0,0.0,0.0,0.0,0.0,0.0,0.0,0.0,0.0,0.0,0.0,0.0,0.0,0.0,0.0,0.0,0.0,0.0,0.0,0.0,0.0,0.0,0.0,0.0,0.0,0.0,0.0,0.0,0.0,0.0,0.0,0.0,0.0,0.0,0.0,0.0,0.0,0.0,0.0,0.0,0.0,0.0,0.0,0.0,0.0,0.0,0.0,0.0,0.0,0.0,0.0,0.0,0.0,0.0,0.0,0.0,0.0,0.0,0.0,0.0,0.0,0.0,0.0,0.0,0.0,0.0,0.0,0.0,0.0,0.0,0.0,0.0,0.0,0.0,0.0,0.0,0.0,0.0,0.0,0.0,0.0,0.0,0.0,0.0,0.0,0.0,0.0,0.0,0.0,0.0,0.0,0.0,0.0,0.0,0.0,0.0,0.0,0.0,0.0,0.0,0.0,0.0,0.0,0.0,0.0,0.0,0.0,0.0,0.0,0.0,0.0,0.0,0.0,0.0,0.0,0.0,0.0,0.0,0.0,0.0,0.0,0.0,0.0,0.0,0.0,0.0,0.0,0.0,0.0,0.0,0.0,0.0,0.0,0.0,0.0,0.0,0.0,0.0,0.0,0.0,0.0,0.0,0.0,0.0,0.0,0.0,0.0,0.0,0.0,0.0,0.0,0.0,0.0,0.0,0.0,0.0,0.0,0.0,0.0,0.0,0.0,0.0,0.0,0.0,0.0,0.0,0.0,0.0,0.0,0.0,0.0,0.0,0.0,0.0,0.0,0.0,0.0,0.0,0.0,0.0,0.0,0.0,0.0,0.0,0.0,0.0,0.0,0.0,0.0,0.0,0.0,0.0,0.0,0.0,0.0,0.0,0.0,0.0,0.0,0.0,0.0,0.0,0.0,0.0,0.0,0.0,0.0,0.0,-0.069,-0.1136,-0.1216,-0.1844,-0.221,-0.2373,-0.1595,-0.1123,-0.1098,0.0,0.0,0.0,0.0,0.0,0.0,0.0,0.0,0.0,0.0,0.0,0.0,0.0,0.0,0.0,0.0,0.0,0.0,0.0,0.0,0.0,0.0,0.0,0.0,0.0,0.0,0.0,0.0,0.0,0.0,0.0,0.0,0.0,0.0,0.0,0.0,0.0,0.0,0.0,0.0,0.0,0.0,0.0,0.0,0.0,0.0,0.0,0.0,0.0,0.0,0.0,0.0,0.0,0.0,0.0,0.0,0.0,0.0,0.0,0.0,0.0,0.0,0.0,0.0,0.0,0.0,0.0,0.0,0.0,0.0,0.0,0.0,0.0,0.0,0.0,0.0,0.0,0.0,0.0,0.0,0.0,0.0,0.0,0.0,0.0,0.0,0.0,0.0,0.0,0.0,0.0,0.0,0.0,0.0,0.0,0.0,0.0,0.0,0.0,0.0,0.0,0.0,-0.1343,-0.1981,-0.244,-0.2398,-0.2837,-0.3177,-0.3277,-0.2602,-0.1989,-0.1652,0.0,0.0,0.0,0.0,0.0,0.0,0.0,0.0,0.0,0.0,0.0,0.0,0.0,0.0,0.0,0.0,0.0,0.0,0.0,0.0,0.0,0.0,0.0,0.0,0.0,0.0,0.0,0.0,0.0,0.0,0.0,0.0,0.0,0.0,0.0,0.0,0.0,0.0,0.0,0.0,0.0,0.0,0.0,0.0,0.0,0.0,0.0,0.0,0.0,0.0,0.0,0.0,0.0,0.0,0.0,0.0,0.0,0.0,0.0,0.0,0.0,0.0,0.0,0.0,0.0,0.0,0.0,0.0,0.0,0.0,0.0,0.0,0.0,0.0,0.0,0.0,0.0,0.0,0.0,0.0,0.0,0.0,0.0,0.0,0.0,0.0,0.0,0.0,0.0,0.0,0.0,0.0,0.0,0.0,0.0,0.0,0.0,0.0,0.0,0.0,0.0,0.0,-0.336,-0.3564,-0.3687,-0.3555,-0.3526,-0.354,-0.3471,-0.3294,-0.2849,-0.1945,0.0,0.0,0.0,0.0,0.0,0.0,0.0,0.0,0.0,0.0,0.0,0.0,0.0,0.0,0.0,0.0,0.0,0.0,0.0,0.0,0.0,0.0,0.0,0.0,0.0,0.0,0.0,0.0,0.0,0.0,0.0,0.0,0.0,0.0,0.0,0.0,0.0,0.0,0.0,0.0,0.0,0.0,0.0,0.0,0.0,0.0,0.0,0.0,0.0,0.0,0.0,0.0,0.0,0.0,0.0,0.0,0.0,0.0,0.0,0.0,0.0438,0.0,0.0,0.0,0.0,0.0,0.0,0.0,0.0,0.0,0.0,0.0,0.0,0.0,0.0,0.0,0.0,0.0,0.0,0.0,0.0,0.0,0.0,0.0,0.0,0.0,0.0,0.0,0.0,0.0,0.0,0.0,0.0,0.0,0.0,0.0,0.0,0.0,0.0,0.0,0.0,0.0,-0.3519,-0.4243,-0.4802,-0.493,-0.5554,-0.6004,-0.5946,-0.5033,-0.4348,-0.4046,-0.2769,0.0,0.0,0.0,0.0,0.0,0.0,0.0,0.0,0.0,0.0,0.0,0.0,0.0,0.0,0.0,0.0,0.0,0.0,0.0,0.0,0.0,0.0,0.0,0.0,0.0,0.0,0.0,0.0,0.0,0.0,0.0,0.0,0.0,0.0,0.0,0.0,0.0,0.0,0.0,0.0,0.0,0.0,0.0,0.0,0.0,0.0,0.0,0.0,0.0,0.0,0.0,0.0,0.0,0.0,0.0,0.0,0.0,0.0,0.0,0.0,-0.1133,0.0,0.0,0.0,0.0,0.0,0.0,0.0,0.0,0.0,0.0,0.0,0.0,0.0,0.0,0.0,0.0,0.0,0.0,0.0,0.0,0.0,0.0,0.0,0.0,0.0,0.0,0.0,0.0,0.0,0.0,0.0,0.0,0.0,0.0,0.0,0.0,0.0,0.0,0.0,0.0,-0.518,-0.5673,-0.606,-0.6159,-0.6557,-0.678,-0.6709,-0.6131,-0.5488,-0.4859,-0.3765,0.0,0.0,0.0,0.0,0.0,0.0,0.0,0.0,0.0,0.0,0.0,0.0,0.0,0.0,0.0,0.0,0.0,0.0,0.0,0.0,0.0,0.0,0.0,0.0,0.0,0.0,0.0,0.0,0.0,0.0,0.0,0.0,0.0,0.0,0.0,0.0,0.0,0.0,0.0,0.0,0.0,0.0,0.0,0.0,0.0,0.0,0.0,0.0,0.0,0.0,0.0,0.0,0.0,0.0,-0.0694,-0.208,-0.2044,-0.3254,-0.5159,-0.3651,-0.3323,-0.388,-0.4678,0.0,0.0,0.0,0.0,0.0,0.0,0.0,0.0,0.0,0.0,0.0,0.0,0.0,0.0,0.0,0.0,0.0,0.0,0.0,0.0,0.0,0.0,-0.0895,-0.0148,0.0,0.0,0.0,0.0,0.0,0.0,0.0,0.0,0.0,0.0,0.0,0.0,0.0,0.0,-0.6946,-0.7092,-0.7136,-0.7021,-0.7007,-0.6936,-0.6756,-0.6742,-0.6341,-0.5303,-0.5056,-0.3995,0.0,0.0,0.0,0.0,0.0,0.0,0.0,0.0,0.0,0.0,0.0,0.0,0.0,0.0,0.0,0.0,0.0,0.0,0.0,0.0,0.0,0.0,0.0,0.0,0.0,0.0,0.0,0.0,0.0,0.0,0.0,0.0,0.0118,0.0117,0.0,0.0,0.0,0.0,0.0,0.0,0.0,0.0,0.0,0.0,0.0,0.0,0.0,-0.1103,-0.1153,-0.0394,0.0,0.0,0.0,-0.1078,-0.3142,-0.3152,-0.4448,-0.6665,-0.635,0.0,-0.608,-0.6103,0.0,0.0,0.0,0.0,0.0,0.0,0.0,0.0,0.0,0.0,0.0,0.0,0.0,0.0,0.0,0.0,0.0,0.0,0.0,0.0,0.0,0.0,-0.0164,0.0,0.0,0.0,0.0,0.0,0.0,0.0,-0.0764,-0.176,0.0,0.0,0.0,0.0,0.0,0.0,-0.7095,-0.7244,-0.7333,-0.7316,-0.7312,-0.72,-0.6922,-0.6898,-0.6746,-0.6513,-0.5598,-0.4468,-0.3175,-0.2234,0.0,0.0,0.0,0.0,0.0,0.0,0.0,0.0,0.0,0.0,0.0,0.0,0.0,0.0,0.0,0.0,0.0,0.0,0.0,0.0,0.0,0.0,0.0,0.0,0.0,0.0,0.0,0.0,0.0,-0.1347,-0.1228,-0.0242,-0.1205,-0.2108,0.0,0.0,0.0,0.0,0.0,0.0,0.0,0.0,0.0,-0.2497,-0.1691,-0.1018,-0.056,-0.0164,0.0,0.0,0.0,-0.0856,-0.2477,-0.3197,-0.445,-0.6084,-0.6874,-0.7102,-0.6959,-0.6732,-0.6671,-0.6715,0.0,0.0,0.0,0.0,-0.677,-0.677,-0.6875,-0.6373,-0.5499,-0.478,0.0,0.0,0.0,0.0,0.0,0.0,0.0,-0.0596,-0.0579,-0.0254,0.0,0.0,0.0,0.0,0.0,0.0,-0.0164,-0.0897,-0.1388,-0.2294,-0.4035,0.0,0.0,0.0,0.0,-0.7132,-0.7366,-0.7458,-0.7465,-0.738,-0.737,-0.7282,-0.7065,-0.7048,-0.6987,-0.6837,-0.6398,-0.5568,-0.4409,-0.329,-0.2189,0.0,0.0,0.0,0.0,0.0,0.0,0.0,0.0,0.0,0.0,0.0,0.0,0.0,0.0,0.0,0.0,0.0,0.0,0.0,0.0,0.0,0.0,0.0,0.0,0.0,0.0,0.0,0.0,-0.2449,-0.2373,-0.0995,-0.2139,-0.3044,0.0,0.0,0.0,0.0,0.0,0.0,-0.3058,-0.2511,-0.195,-0.1367,-0.1146,-0.0664,0.0,0.0,0.0,0.0,0.0,-0.0788,-0.2271,-0.3192,-0.4461,-0.5899,-0.6898,-0.7312,-0.7299,-0.7115,-0.7041,-0.7041,-0.7041,-0.7109,-0.7214,-0.7329,-0.7322,-0.7285,-0.7475,-0.6838,-0.5847,-0.573,-0.4741,-0.359,-0.3245,0.0,0.0,0.0,0.0,0.0,0.0,0.0,0.0,0.0,0.0,0.0,0.0,-0.0268,-0.0794,-0.1618,-0.2047,-0.2828,-0.4855,0.0,0.0,0.0,0.0,-0.7339,-0.757,-0.7631,-0.7597,-0.7444,-0.7431,-0.7353,-0.7156,-0.7139,-0.7095,-0.699,-0.6983,-0.6455,-0.5231,-0.4361,-0.3254,-0.179,0.0,0.0,0.0,0.0,0.0,0.0,0.0,0.0,0.0,0.0,0.0,0.0,0.0,0.0,0.0,0.0,0.0,0.0,0.0,0.0,0.0,0.0,0.0,0.0,0.0,0.0,0.0,0.0,0.0,-0.2631,-0.3491,0.0,0.0,0.0,0.0,-0.5889,-0.48,-0.4294,-0.4579,-0.2503,-0.1404,-0.155,-0.0606,-0.0088,0.0,0.0,0.0,0.0,0.0,-0.1253,-0.3476,-0.3568,-0.4816,-0.7051,-0.7061,-0.7153,-0.7163,-0.7295,-0.735,-0.735,-0.735,-0.7353,-0.736,-0.7366,-0.7458,-0.7556,-0.7428,-0.7373,-0.7126,-0.614,-0.4919,-0.3588,-0.2438,-0.1929,0.0,0.0,0.0,0.0,0.0,0.0,0.0,0.0,0.0,0.0,0.0,-0.0961,-0.1862,-0.184,-0.2554,-0.374,-0.5308,0.0,-0.7084,-0.7336,-0.7485,-0.7584,-0.7597,-0.7719,-0.7746,-0.7604,-0.7587,-0.7468,-0.7166,-0.7139,-0.7136,-0.7129,-0.7129,-0.6596,-0.544,-0.5351,-0.4194,-0.1879,-0.1699,0.0,0.0,0.0,0.0,0.0,0.0,0.0,0.0,0.0,0.0,0.0,0.0,0.0,0.0,0.0,0.0,0.0,0.0,0.0,0.0,0.0,0.0,0.0,0.0,0.0,0.0,0.0,0.0,-0.3973,-0.4663,0.0,-0.4445,-0.5275,-0.5657,-0.5231,-0.4185,-0.3411,-0.2873,-0.1289,-0.0524,-0.0532,-0.0178,0.0,0.0,0.0,0.0,0.0,-0.0807,-0.1612,-0.2503,-0.4018,-0.5179,-0.6071,-0.6782,-0.7197,-0.7299,-0.7455,-0.7519,-0.7519,-0.7519,-0.7634,-0.7801,-0.7801,-0.7834,-0.7875,-0.7821,-0.7736,-0.756,-0.7095,-0.6593,-0.5901,-0.4648,-0.3723,-0.2783,-0.1559,-0.0565,0.0,0.0,0.0,0.0,0.0,0.0,0.0,0.0,-0.1053,-0.2175,-0.2956,-0.411,-0.5294,-0.6676,-0.7158,-0.7485,-0.7631,-0.7699,-0.777,-0.7872,-0.7926,-0.7899,-0.775,-0.7655,-0.7516,-0.7305,-0.7197,-0.7139,-0.7139,-0.7139,-0.6962,-0.6517,-0.5802,-0.5001,-0.4109,-0.3353,-0.2384,0.0,0.0,0.0,0.0,0.0,0.0,0.0,0.0,0.0,0.0,0.0,0.0,0.0,0.0,0.0,0.0,0.0,0.0,0.0,0.0,0.0,0.0,0.0,0.0,0.0,0.0,-0.5823,-0.5082,-0.559,-0.5764,-0.5076,-0.5679,-0.5928,-0.543,-0.4455,-0.3633,-0.2943,-0.1417,-0.0626,-0.0533,-0.0179,0.0,0.0,-0.0359,-0.0628,-0.0628,-0.1893,-0.27,-0.304,-0.4681,-0.5665,-0.5983,-0.6782,-0.72,-0.7302,-0.74,-0.7656,-0.8084,-0.8346,-0.8505,-0.8648,-0.9095,-0.9019,-0.8619,-0.8076,-0.7929,-0.7855,-0.7662,-0.7533,-0.7254,-0.6004,-0.5023,-0.3942,-0.2242,-0.1243,-0.0491,-0.0099,0.0,0.0,0.0,0.0,-0.0099,-0.0584,-0.1746,-0.3004,-0.4259,-0.5263,-0.6178,-0.7469,-0.7672,-0.7723,-0.7865,-0.7889,-0.7926,-0.8028,-0.8038,-0.7963,-0.7763,-0.7655,-0.7516,-0.7312,-0.7248,-0.7193,-0.7143,-0.719,-0.7193,-0.7143,-0.634,-0.5802,-0.5447,-0.3851,-0.2626,-0.179,0.0,0.0,0.0,0.0,0.0,0.0,0.0,0.0,0.0,0.0,0.0,0.0,0.0,0.0,0.0,0.0,0.0,0.0,0.0,0.0,0.0,0.0,0.0,-0.5823,-0.61,-0.621,-0.5986,-0.6295,-0.6356,-0.6064,-0.6305,-0.6539,-0.6681,-0.5724,-0.5104,-0.5013,-0.3003,-0.1773,-0.1649,-0.0533,0.0,-0.009,-0.1254,-0.1791,-0.1881,-0.3193,-0.4373,-0.546,-0.566,-0.6283,-0.7146,-0.7231,-0.7228,-0.7228,-0.7231,-0.8027,-0.9207,-0.9757,-0.9959,-1.0014,-1.1371,-1.1058,-0.9768,-0.834,-0.7902,-0.7974,-0.7695,-0.7604,-0.7383,-0.6037,-0.5542,-0.4917,-0.2556,-0.1932,-0.1577,-0.0402,-0.0101,-0.0101,-0.0101,0.0,-0.0404,-0.1711,-0.3015,-0.4418,-0.5727,-0.5948,-0.6306,-0.7598,-0.7818,-0.7868,-0.8018,-0.8038,0.0,-0.8038,-0.8038,-0.7929,-0.7645,-0.7607,-0.7482,-0.718,-0.7288,-0.7305,-0.7149,-0.7282,-0.7295,-0.7146,-0.7139,-0.6605,-0.5447,-0.3065,-0.1841,-0.1879,0.0,0.0,0.0,0.0,0.0,0.0,0.0,0.0,0.0,0.0,0.0,0.0,0.0,0.0,0.0,0.0,0.0,0.0,0.0,0.0,0.0,0.0,-0.375,-0.5038,-0.5248,-0.5201,-0.5086,-0.594,-0.64,-0.6213,-0.6464,-0.661,-0.6539,-0.5758,-0.4925,-0.3898,-0.2564,-0.1786,-0.1775,-0.0626,-0.0807,-0.2592,-0.2057,-0.2253,-0.3289,-0.4433,-0.5199,-0.5779,-0.7265,-0.8205,-0.8625,-0.9284,-0.9657,-0.9671,-0.973,-1.0004,-1.0249,-0.9601,-0.9895,-1.0832,-1.1422,-1.0838,-0.9786,-0.9352,-0.8543,-0.7577,-0.7709,-0.7685,-0.7516,-0.7289,-0.6602,-0.5684,-0.4955,-0.4029,-0.3295,-0.3011,-0.2213,-0.141,-0.141,-0.0706,-0.0404,-0.1711,-0.3015,-0.4418,-0.5727,-0.6776,-0.753,-0.7872,-0.7977,-0.7991,-0.8031,-0.8038,0.0,-0.8038,-0.8038,-0.8007,-0.7926,-0.7821,-0.7678,-0.7489,-0.7411,-0.7305,-0.7149,-0.718,-0.7183,-0.7143,-0.7139,-0.6962,-0.6605,-0.4347,-0.3108,0.0,0.0,0.0,0.0,0.0,0.0,0.0,0.0,0.0,0.0,0.0,0.0,0.0,0.0,0.0,0.0,0.0,0.0,0.0,0.0,0.0,0.0,-0.2571,-0.19,-0.2704,-0.3663,-0.4435,-0.4764,-0.5417,-0.6018,-0.6363,-0.662,-0.6505,-0.5998,-0.6002,-0.5484,-0.4159,-0.3622,-0.3293,-0.3175,-0.2048,-0.2147,-0.357,-0.3395,-0.3702,-0.4606,-0.5783,-0.6642,-0.7188,-0.845,-0.9268,-0.9734,-1.0318,-1.0611,-1.0621,-1.0665,-1.0978,0.0,0.0,0.0,0.0,0.0,-1.1879,-1.1119,-1.009,-0.9137,-0.8303,-0.7799,-0.7614,-0.7614,-0.7699,-0.7202,-0.6574,-0.5961,-0.5312,-0.4672,-0.4107,-0.3416,-0.2815,-0.2815,-0.2213,-0.2013,-0.3419,-0.432,-0.5222,-0.6528,-0.7434,0.0,-0.8038,-0.8038,-0.8038,-0.8038,-0.8038,-0.7839,-0.7235,-0.7132,-0.6913,-0.6262,-0.6683,-0.6858,-0.6674,-0.7201,0.0,0.0,0.0,-0.7207,-0.7143,-0.7139,0.0,0.0,0.0,-0.3556,-0.3617,-0.1184,0.0,0.0,0.0857,0.0863,0.0,0.0,0.0,0.0,0.0,0.0,0.0,0.0,0.0,0.0,0.0,0.0,0.0,0.0,0.0,0.0,-0.0169,0.0511,0.026,-0.1535,-0.3271,-0.4511,-0.4919,-0.5369,-0.6218,-0.6556,-0.6202,-0.4979,-0.6153,-0.628,-0.4932,0.0,0.0,0.0,0.0,-0.3748,-0.4014,-0.491,-0.5507,-0.5807,-0.7114,-0.8221,-0.91,-0.9496,-1.0102,-1.0819,-1.1021,-1.1101,-1.1042,-1.1171,-1.194,-1.2875,-1.3016,-1.3129,-1.3188,-1.3448,-1.3444,-1.3042,-1.0808,0.0,0.0,-0.814,-0.7787,-0.7813,-0.7645,-0.7648,-0.7387,-0.6338,-0.6071,-0.5801,-0.4698,-0.4318,-0.4218,-0.4218,-0.4116,-0.4318,-0.5727,-0.6029,-0.6431,-0.7739,-0.8038,-0.8038,-0.8038,-0.8038,-0.8038,-0.8038,-0.8038,-0.7537,-0.6129,-0.6029,-0.5392,-0.4027,0.0,0.0,-0.5473,-0.6593,-0.7306,-0.7187,-0.7312,-0.7336,-0.7197,-0.719,-0.7101,-0.692,-0.4759,-0.3558,-0.3419,-0.1093,0.0651,0.1956,0.1956,0.2056,0.0,0.0,0.0,0.0,0.0,0.0,0.0,0.0,0.0,0.0,0.0,0.0,0.0,0.0,0.0,0.0264,0.1877,0.2717,0.1731,0.1146,-0.0255,-0.3109,-0.4317,-0.5004,-0.5045,-0.5173,-0.477,-0.3611,-0.4844,-0.5132,-0.3725,-0.4768,-0.5349,-0.5326,-0.4186,-0.455,-0.6422,-0.5714,-0.5955,-0.7093,0.0,0.0,-0.928,-1.0962,-1.1925,-1.2272,-1.3618,-1.3897,-1.3535,-1.4969,-1.5825,-1.6183,-1.4514,-1.4043,-1.4278,-1.4565,-1.4022,-1.3215,-1.3003,-1.2106,-1.0983,-0.9768,-0.9354,-0.922,-0.8206,-0.7953,0.0,-0.7687,-0.7595,-0.7502,-0.7325,-0.6429,-0.5627,-0.5627,-0.482,-0.4318,-0.5727,-0.6029,-0.6431,-0.7739,-0.8038,-0.8038,-0.8038,-0.8038,-0.8038,-0.8038,-0.8038,-0.7537,-0.6129,-0.6029,-0.5518,-0.4097,-0.4194,-0.472,-0.5487,-0.5952,-0.6496,-0.7252,-0.7472,-0.7543,-0.7512,-0.7512,-0.7034,-0.5903,-0.4505,-0.3227,-0.2175,-0.0661,0.0668,0.1956,0.1956,0.2562,0.0,0.0,0.0,0.0,0.0,0.0,0.0,0.0,0.0,0.0,0.0,-0.0171,0.0,0.0,0.173,0.3029,0.4083,0.4378,0.3046,0.2807,0.1494,-0.1936,-0.2932,-0.3487,-0.3974,-0.4132,-0.403,-0.3357,-0.4622,-0.5068,-0.4399,-0.5593,-0.6248,-0.6248,-0.5708,-0.5888,-0.7051,-0.6517,-0.6939,-0.8261,-0.88,-0.9651,-1.101,-1.2025,-1.304,-1.4222,-1.5015,-1.5479,-1.5786,-1.6653,-1.7088,-1.7172,-1.6124,-1.5489,-1.5163,-1.5474,-1.4798,-1.3767,-1.3435,-1.2836,-1.2124,-1.0944,-1.0674,-1.051,-0.9355,-0.9019,-0.8821,-0.8237,-0.8038,-0.8038,-0.8038,-0.7537,-0.7033,-0.7033,-0.6528,-0.6224,-0.6833,-0.7033,-0.7235,-0.7839,-0.8038,-0.8038,-0.8038,-0.8038,-0.7736,-0.7132,-0.7033,-0.6229,-0.4221,-0.4021,-0.3518,-0.2113,-0.2592,-0.344,-0.4628,-0.5968,-0.6972,-0.7495,-0.7556,-0.76,-0.76,-0.76,-0.6929,-0.5593,-0.4414,-0.3119,-0.1835,-0.058,0.1073,0.2973,0.2973,0.3684,0.0,0.0,0.0,0.0,0.0,0.0,0.0,0.0,0.2709,0.3784,0.3115,0.2704,0.3802,0.3368,0.349,0.5551,0.6024,0.569,0.4388,0.4179,0.3018,-0.0177,-0.1222,-0.2062,-0.2854,-0.3123,-0.3086,-0.2951,-0.4238,-0.509,-0.509,-0.6337,-0.7139,-0.7139,-0.7316,-0.739,-0.7358,-0.7618,-0.8204,-0.9313,-0.9575,-1.074,-1.2901,-1.3076,-1.4242,-1.6026,-1.6026,-1.6724,-1.7797,-1.7713,-1.7738,-1.79,-1.79,-1.7326,-1.6312,-1.64,-1.5777,-1.469,-1.3894,-1.3638,-1.3391,-1.2232,-1.1906,-1.1893,-1.0436,-0.9998,-0.9706,-0.8333,-0.8038,-0.8038,-0.8038,-0.8038,-0.8038,-0.8038,-0.8038,-0.8038,-0.8038,-0.8038,-0.8038,-0.8038,-0.8038,-0.8038,-0.8038,-0.8038,-0.7637,-0.6531,-0.6431,-0.5525,-0.3118,-0.2816,-0.2214,-0.0907,-0.1787,-0.285,-0.4128,-0.637,-0.7655,-0.7685,-0.7685,-0.7685,-0.7685,-0.7685,-0.6899,-0.5339,-0.4373,-0.307,-0.147,-0.0489,0.1379,0.4016,0.4016,0.482,1.0689,0.9291,0.8304,0.8448,0.6773,0.5282,0.0,0.0,0.3854,0.394,0.391,0.3841,0.3992,0.4824,0.5678,0.5889,0.689,0.7196,0.5922,0.5638,0.5,0.3573,0.0448,-0.1632,-0.1764,-0.18,-0.1391,-0.0435,-0.2474,-0.3837,-0.3837,-0.5888,-0.7139,-0.7139,-0.8105,-0.8549,-0.8223,-0.931,-0.9911,-1.0105,-1.1109,-1.2386,-1.3866,-1.4901,-1.5974,-1.709,-1.709,-1.8109,-1.9545,-1.9049,-1.9362,-2.0235,-2.0235,-1.9599,-1.8514,-1.783,-1.6869,-1.6014,-1.6402,-1.5917,-1.5008,-1.3909,-1.3617,-1.316,-1.0769,-0.9998,-0.9706,-0.8333,-0.8038,-0.8038,-0.8038,-0.8038,-0.8038,-0.8038,-0.8038,-0.8038,-0.8038,-0.8038,-0.8038,-0.8038,-0.8038,-0.8038,-0.8038,-0.8038,-0.7939,-0.7839,-0.7736,-0.7232,-0.5727,-0.5527,-0.5022,-0.3717,-0.3709,-0.4305,-0.561,-0.6988,-0.7845,-0.798,-0.7991,-0.7991,-0.7991,-0.7991,-0.6735,-0.4192,-0.4025,-0.2686,-0.0196,-0.0096,0.1361,0.4016,0.4016,0.532,1.1665,1.035,0.0,0.0,0.9083,0.8022,0.819,0.7196,0.6285,0.6328,0.5693,0.5411,0.6166,0.6197,0.6229,0.0,0.7585,0.7448,0.6158,0.6591,0.6332,0.4253,0.2636,0.1373,0.0534,-0.0179,-0.0806,-0.1062,-0.2608,-0.3888,-0.4645,-0.6245,-0.7139,-0.7139,-0.8277,-0.8715,-0.8361,-1.0173,-1.1404,-1.2158,-1.3202,-1.4505,-1.5913,-1.6429,-1.7253,-1.831,-1.8948,-1.9653,-2.0303,-2.0012,-2.0167,-2.0566,-2.0566,-2.0323,-1.9784,-1.8816,-1.7811,-1.6885,-1.7383,-1.6903,-1.6027,-1.5679,-1.5318,-1.453,-1.1682,-1.0969,-1.0681,-0.8627,-0.8038,-0.8038,-0.8038,-0.8038,-0.8038,-0.8038,-0.8038,-0.8038,-0.8038,-0.8038,-0.8038,-0.8038,-0.7335,-0.6833,-0.6833,-0.6226,-0.572,-0.572,-0.6267,-0.593,-0.3859,-0.4254,-0.4548,-0.4055,-0.4692,-0.5402,-0.5937,-0.7137,-0.797,-0.8035,-0.8038,-0.8038,-0.8038,-0.8038,-0.6705,-0.4072,-0.3999,-0.2635,0.0,0.0,0.1374,0.4016,0.4016,0.5812,1.1813,0.0,0.0,1.1089,1.0876,1.0342,1.0345,0.9388,0.8553,0.8598,0.7528,0.6833,0.7839,0.7235,0.703,0.8329,0.8528,0.8322,0.771,0.8199,0.7858,0.5904,0.4977,0.405,0.2652,0.1032,-0.0371,-0.1277,-0.275,-0.4025,-0.4867,-0.6266,-0.7228,-0.7577,-0.8711,-0.937,-0.928,-1.1379,-1.2879,-1.3705,-1.4798,-1.6142,-1.7595,-1.8017,-1.863,-1.9441,-2.0245,-2.0566,-2.0566,-2.0566,-2.0789,-2.1011,-2.1011,-2.1155,-2.1298,-2.0498,-1.9158,-1.7797,-1.8252,-1.7536,-1.6483,-1.675,-1.6337,-1.5295,-1.2864,-1.2001,-1.1458,-0.9217,-0.8333,-0.8038,-0.8038,-0.8038,-0.8038,-0.8038,-0.8038,-0.8038,-0.8038,-0.8038,-0.8038,-0.8038,-0.6933,-0.6029,-0.6029,-0.492,-0.3915,-0.3515,-0.4449,-0.46,-0.2661,-0.3252,-0.4037,-0.4532,-0.5383,-0.6195,-0.6505,-0.7477,-0.8038,-0.8038,-0.8038,-0.8038,-0.8038,-0.8038,-0.6714,-0.4086,-0.4035,-0.2661,0.0,0.0,0.1384,0.4016,0.4016,0.6106,1.0269,0.0,1.0757,1.1517,1.1691,1.1667,1.1788,1.0867,0.9895,0.9899,0.892,0.7939,0.8038,0.7939,0.8333,0.9706,0.9903,1.0386,1.1556,1.0681,0.9895,0.9792,0.7488,0.5405,0.0,0.1554,0.0,-0.0095,-0.2237,-0.359,-0.368,-0.5863,-0.7665,-0.8803,-0.9923,-1.0821,-1.1421,-1.3468,-1.4429,-1.4201,-1.5551,-1.6894,-1.8312,-1.9811,-2.0489,-2.0557,-2.0566,-2.0566,-2.0566,-2.0566,-2.1155,-2.1952,-2.1952,-2.2553,-2.3441,-2.3368,-2.1466,-1.9011,-1.9236,-1.7954,-1.6215,-1.6758,-1.6281,-1.5173,-1.4177,-1.2904,-1.1653,-1.0293,-0.9019,-0.8038,-0.8038,-0.8038,-0.8038,-0.8038,-0.8038,-0.8038,-0.8038,-0.8038,-0.8038,-0.8038,-0.6933,-0.6029,-0.6029,-0.492,-0.3515,-0.2213,-0.3069,-0.3837,-0.3904,-0.4012,-0.4514,-0.5822,-0.5927,-0.6531,-0.7832,-0.7939,-0.8038,-0.8038,-0.8038,-0.8038,-0.8038,-0.8038,-0.6773,-0.4015,-0.4009,-0.2642,0.0,0.0,0.1384,0.4016,0.4016,0.6106,1.1089,0.0,1.2187,1.3242,1.3896,1.39,1.3131,1.2699,1.2328,1.1458,1.0188,0.9425,1.0184,0.8941,0.856,1.0665,1.0396,1.0485,1.1755,1.2328,1.1935,1.0194,0.912,0.0,0.0,0.0,0.0,-0.1164,-0.2791,-0.4074,-0.489,-0.6406,-0.7424,-0.7669,-0.9447,-1.0653,-1.1272,-1.3913,-1.5601,-1.6237,-1.783,-1.906,-1.9869,-2.0333,-2.0566,-2.0566,-2.0566,-2.04,-2.0156,-2.0449,-2.0984,-2.1618,-2.1912,-2.2627,-2.3514,-2.3514,-2.284,-2.1918,-2.1686,-1.9652,-1.7247,-1.7563,-1.6647,-1.5055,-1.3562,-1.3094,-1.2684,-1.0325,-0.9514,-0.9118,-0.8233,-0.8038,-0.8038,-0.8038,-0.8038,-0.8038,-0.8038,-0.8038,-0.8038,-0.8038,-0.6933,-0.5727,-0.482,-0.3516,-0.2204,-0.0892,-0.1672,-0.2844,-0.3746,-0.3847,-0.4063,-0.4612,-0.472,-0.5222,-0.6531,-0.6631,-0.7033,-0.7939,-0.8038,-0.8038,-0.8038,-0.8038,-0.6711,-0.4081,-0.4034,-0.2658,0.0,0.0887,0.2271,0.4016,0.492,0.7502,1.1216,1.232,1.3269,1.4375,1.4883,1.4949,1.4297,1.3902,1.3475,1.2796,1.1091,0.9997,1.0749,0.9236,0.8553,1.1027,1.0564,1.039,1.2198,1.2416,1.1753,1.0177,0.9575,0.7875,0.0,0.0,0.0,-0.1088,-0.244,-0.3637,-0.4849,-0.6062,-0.6969,-0.7757,-0.9379,-1.0574,-1.1272,-1.4177,-1.6426,-1.7996,-1.9274,-2.0059,-2.0332,-2.0332,-2.0244,-2.0107,-2.0107,-1.9941,-1.9707,-1.999,-2.0612,-2.1439,-2.1848,-2.2728,-2.3773,-2.4118,-2.4047,-2.3625,-2.2767,-2.08,-1.8658,-1.8087,-1.6914,-1.5383,-1.4046,-1.3626,-1.3339,-1.1552,-1.0581,-0.9805,-0.8924,-0.8333,-0.8038,-0.8038,-0.8038,-0.8038,-0.8038,-0.8038,-0.8038,-0.8038,-0.6933,-0.5525,-0.4218,-0.2514,-0.1004,-0.0099,-0.0694,-0.1482,-0.2351,-0.2461,-0.268,-0.3211,-0.3715,-0.4518,-0.5929,-0.6391,-0.7159,-0.8441,-0.8488,-0.8481,-0.8539,-0.8543,-0.7372,-0.4718,-0.427,-0.2882,-0.0706,0.0597,0.218,0.3978,0.4906,0.7668,1.0547,1.211,1.3828,1.4683,1.4696,1.4649,1.5224,1.4408,1.3532,1.3767,1.1718,0.9875,0.0,0.0,0.8607,1.1051,1.038,1.0445,1.3094,1.1243,0.9686,0.0,0.0,0.0,0.0,0.0,0.0,0.0201,0.0,-0.238,-0.3512,-0.4667,-0.6343,-0.8536,-0.954,-1.0486,-1.1398,-1.4253,-1.6814,-1.9185,-1.9678,-1.9883,-1.9883,-1.9902,-1.9687,-1.9287,-1.9287,-1.9277,-1.9258,-1.9277,-2.0078,-2.1385,-2.1798,-2.2891,-2.4265,-2.5215,-2.5025,-2.4071,-2.2581,-2.1369,-2.011,-1.8456,-1.7099,-1.613,-1.5604,-1.4581,-1.3608,-1.3767,-1.2104,-1.0181,-1.0092,-0.9118,-0.8137,-0.8137,-0.8038,-0.8038,-0.8038,-0.8038,-0.8038,-0.8038,-0.6833,-0.5525,-0.4216,-0.1812,0.0,0.0,0.0,0.0,0.0,-0.01,-0.0605,-0.181,-0.321,-0.4608,-0.5912,-0.7189,-0.8372,-0.9515,-0.9443,-0.9426,-0.9602,-0.9619,-0.8538,-0.6116,-0.4816,-0.3513,-0.201,-0.0604,0.1296,0.371,0.3976,0.6715,0.9907,1.1576,1.3427,1.3868,1.4088,1.4295,1.4663,1.4635,1.4288,1.3411,1.1876,1.0749,0.0,0.0,0.0,1.2346,1.1187,0.0,1.3379,1.2379,0.0,1.0083,0.0,0.6958,0.4237,0.3138,0.0,0.0,-0.1173,-0.2508,-0.3705,-0.4042,-0.4422,-0.4905,-0.7249,-0.8955,-0.9922,-1.4162,-1.6777,-1.7777,-1.8864,-1.9443,-1.9453,-1.9775,-1.9687,-1.9287,-1.9287,-1.9102,-1.8828,-1.915,-1.9716,-2.0567,-2.1603,-2.2685,-2.3783,-2.4669,-2.5128,-2.5062,-2.4003,-2.2209,-2.0372,-1.9863,-1.8679,-1.7191,-1.6022,-1.5719,-1.5473,-1.3738,-1.2879,-1.2395,-1.1609,-1.0485,-0.9509,-0.9509,-0.8726,-0.8038,-0.8038,-0.8038,-0.8038,-0.8038,-0.6124,-0.4418,-0.4016,-0.1812,0.0,0.0,0.0,0.0,0.0,-0.0905,-0.1603,-0.1779,-0.3826,-0.564,-0.6908,-0.7991,-0.9279,-1.0612,-1.0658,-1.0653,-1.0705,-1.0853,-0.9801,-0.714,-0.7036,-0.536,-0.1971,-0.0689,0.0877,0.2492,0.4584,0.6748,0.9736,1.1376,1.308,1.338,1.348,1.3614,1.4041,1.3913,1.3392,1.2354,1.068,0.0,0.9535,0.0,0.0,0.0,0.0,0.0,1.1682,1.0857,0.9618,0.0,0.755,0.0,0.3424,0.2408,0.1437,0.0,-0.0672,-0.1906,-0.3607,-0.3176,-0.3386,-0.4376,-0.6703,-0.896,-1.126,-1.4267,-1.6392,-1.7524,-1.8453,-1.901,-1.9287,-1.9336,-1.9121,-1.8721,0.0,-1.8584,-1.8379,-1.8623,-1.9033,-1.9589,-2.0917,-2.181,-2.2683,-2.3971,-2.4644,-2.4868,-2.4566,-2.3248,-2.1554,-2.0685,-1.9316,-1.7831,-1.6881,-1.6853,-1.6748,-1.5028,-1.4282,-1.3701,-1.2648,-1.1527,-1.0637,-1.0637,-0.9739,-0.8924,-0.8924,-0.8432,-0.8038,-0.8038,-0.6326,-0.4708,-0.4074,-0.2302,-0.0704,-0.01,0.0,-0.0201,-0.0699,-0.1887,-0.3053,-0.4076,-0.6314,-0.8214,-0.9404,-1.06,-1.1831,-1.3034,-1.3109,-1.3097,-1.3123,-1.2835,-1.1763,-0.9792,-0.8863,-0.7056,-0.4327,-0.2401,-0.0666,0.1218,0.3822,0.6059,1.0007,1.1402,1.2759,1.3073,1.2946,1.2893,1.3292,1.2574,1.1526,1.0588,0.0,0.7065,0.6994,0.6333,0.6482,0.8603,0.0,0.8055,0.9348,0.8299,0.7071,0.6106,0.5645,0.4598,0.2242,0.1702,0.112,0.0095,-0.0187,-0.1117,-0.3023,-0.2296,-0.3047,-0.5659,-0.7104,-0.9734,-1.3462,-1.4306,-1.5651,-1.7548,-1.7943,-1.8536,-1.9111,-1.8789,-1.8408,-1.8008,-1.8008,-1.8008,-1.8008,-1.8008,-1.8223,-1.8645,-1.9909,-2.0653,-2.114,-2.3013,-2.3804,-2.3929,-2.448,-2.4022,-2.2977,-2.1334,-1.984,-1.8625,-1.8186,-1.8012,-1.7803,-1.6952,-1.5884,-1.4816,-1.4025,-1.2836,-1.1974,-1.2,-1.112,-1.0194,-0.9998,-0.892,-0.8038,-0.8038,-0.6918,-0.5582,-0.4426,-0.3177,-0.1796,-0.0688,-0.0497,-0.0998,-0.2345,-0.3399,-0.4919,-0.7256,-0.9806,-1.1768,-1.2786,-1.3851,-1.4965,-1.5926,-1.5914,-1.5884,-1.6002,-1.5134,-1.4154,-1.2878,-1.0807,-0.8894,-0.7323,-0.5066,-0.2697,-0.0183,0.2245,0.471,1.069,1.1682,1.2452,1.2829,1.2862,1.2678,1.2148,1.1203,0.0,0.0,0.647,0.5386,0.4438,0.5006,0.6163,0.7942,0.0,0.0,0.0,0.0,0.6187,0.0,0.0,0.0,0.0,0.0,0.0,0.0,-0.0926,-0.1202,-0.065,-0.1406,-0.3542,-0.7386,-0.7718,-0.9429,-1.2519,-1.3418,-1.4486,-1.5711,-1.6828,-1.7692,-1.8242,-1.8516,-1.8408,-1.8008,-1.8008,0.0,-1.8008,-1.8008,-1.8057,-1.8174,-1.9142,-1.9539,-1.9811,-2.1619,-2.2546,-2.3071,-2.384,-2.3536,-2.2811,-2.2775,-2.1849,-2.0545,-1.9602,-1.9072,-1.8654,-1.7795,-1.7464,-1.7328,-1.7713,-1.6168,-1.452,-1.4929,-1.3233,-1.1263,-1.0194,-0.892,-0.8038,-0.8038,-0.6845,-0.5811,-0.5688,-0.4455,-0.3434,-0.3131,-0.3138,-0.3896,-0.6089,-0.6493,-0.7146,-0.8798,-1.2574,-1.5084,-1.549,-1.6285,-1.682,-1.7,-1.7025,-1.7017,-1.7074,-1.7115,-1.6159,-1.3941,-1.3723,-1.1563,-0.7265,-0.6894,-0.4829,-0.1439,0.0092,0.2124,1.0913,1.1872,1.2532,1.2518,1.213,1.1538,1.0638,0.0,0.0,0.0,0.321,0.2376,0.1893,0.0,0.0,0.0,0.0,0.0,0.0,0.0,0.0,0.0,0.0,0.0,0.0,0.0,0.0,0.0,-0.056,-0.0841,-0.0925,-0.2549,-0.4858,-0.8085,-0.8633,-1.0048,-1.2538,-1.3647,-1.4602,-1.5516,-1.6578,-1.7518,-1.833,-1.832,-1.8193,-1.8008,-1.8462,-1.8654,-1.8721,-1.9177,-1.911,-1.8787,-1.9628,-2.0009,-2.0139,-2.1428,-2.2356,-2.296,-2.3417,-2.348,-2.3438,-2.3619,-2.2411,-2.0824,-2.0508,-2.0156,-1.9645,-1.8698,-1.8426,-1.834,-1.8103,-1.7282,-1.6397,-1.6017,-1.4178,-1.2162,-1.0839,-0.961,-0.866,-0.866,-0.764,-0.6542,-0.5867,-0.5193,-0.4506,-0.3798,-0.4067,-0.5076,-0.6968,-0.9045,-1.1091,-1.2892,-1.5723,-1.7845,-1.8698,-1.8905,-1.9027,-1.9027,-1.9027,-1.9027,-1.9027,-1.8654,-1.7901,-1.6692,-1.5701,-1.3707,-1.0784,-0.8953,-0.6529,-0.3561,-0.1079,0.1455,1.1437,1.2132,1.2579,1.2057,1.115,0.9999,0.8533,0.5967,0.0,0.0,-0.008,-0.0749,-0.0839,0.0,0.1176,0.0,0.0,0.0,0.0,0.0,0.0,0.0,0.0,0.0,0.0,0.0,0.0,-0.0838,-0.1032,-0.159,-0.2383,-0.4478,-0.6729,-0.9165,-1.0129,-1.1438,-1.3318,-1.4229,-1.5127,-1.6012,-1.6813,-1.7746,-1.8755,-1.8622,-1.8596,-1.8596,-1.9299,-1.9562,-1.9628,-2.0333,-2.0204,-1.9628,-2.0333,-2.059,-2.0719,-2.1553,-2.2322,-2.2884,-2.3245,-2.3636,-2.4054,-2.4178,-2.2935,-2.1452,-2.1747,-2.1383,-2.0692,-1.9894,-1.9511,-1.9143,-1.8334,-1.8167,-1.7895,-1.6784,-1.5062,-1.3351,-1.2075,-1.0891,-0.9974,-0.9709,-0.895,-0.7973,-0.6948,-0.6716,-0.6354,-0.5334,-0.5761,-0.6737,-0.841,-1.1623,-1.4615,-1.69,-1.8495,-1.9818,-2.0975,-2.0762,-2.0527,-2.043,-2.0508,-2.0566,-2.0566,-1.9756,-1.9195,-1.9036,-1.7326,-1.5584,-1.3975,-1.0921,-0.8076,-0.523,-0.2122,0.0895,1.2827,1.2682,1.2124,1.1033,0.983,0.8248,0.55,0.0,0.0,-0.2057,-0.2733,-0.3118,-0.4257,-0.3517,-0.2781,-0.27,0.0,-0.101,0.0,0.0,0.0,0.0,0.0,0.0,0.0,0.0,0.0,-0.3698,-0.4453,-0.4906,-0.4639,-0.6659,-0.9078,-1.1954,-1.2975,-1.3963,-1.4999,-1.5103,-1.5593,-1.6542,-1.7394,-1.8297,-1.9229,-2.0031,-2.0333,-2.0398,-2.0462,-2.0462,0.0,-2.059,-2.0526,-2.0462,-2.059,-2.059,-2.0719,-2.1553,-2.1939,-2.2249,-2.3695,-2.4107,-2.4116,-2.4814,-2.4491,-2.3884,-2.392,-2.2989,-2.1886,-2.1725,-2.1135,-2.0498,-2.0736,-2.0024,-1.9046,-1.8198,-1.6942,-1.5701,-1.4487,-1.3309,-1.2133,-1.1074,-1.0658,-1.0495,-1.0567,-1.0453,-1.0249,-1.0135,-1.022,-1.102,-1.3105,-1.4206,-1.5963,-1.898,-2.0019,-2.0498,-2.0625,-2.0586,-2.0391,-2.0,-2.0342,-2.0566,-2.0566,-2.0489,-2.0001,-1.9036,-1.8798,-1.7131,-1.3981,-1.2444,-0.947,-0.5227,-0.3756,-0.0613,1.3196,1.3033,1.214,1.026,0.8806,0.6829,0.2712,0.0,-0.2119,-0.5203,-0.5865,-0.6048,-0.6481,-0.5871,-0.5289,-0.531,-0.4978,0.0,0.0,0.0,0.0,0.0,0.0,0.0,0.0,0.0,0.0,-0.4747,-0.6868,-0.8276,-0.8591,-0.9409,-1.0759,-1.2616,-1.4118,-1.5088,-1.5412,-1.6528,-1.7176,-1.7406,-1.8818,-1.9705,-2.0074,-2.0462,-2.059,-2.0655,-2.1175,-2.1365,0.0,-2.1928,-2.1803,-2.1365,-2.1365,-2.1365,-2.1428,-2.1753,-2.2404,-2.3269,-2.406,-2.4593,-2.5025,-2.5462,-2.5549,-2.5424,-2.4465,-2.3564,-2.2925,-2.2925,-2.2188,-2.1634,-2.2355,-2.1712,-2.0693,-1.9703,-1.8641,-1.7549,-1.6454,-1.4744,-1.3361,-1.2946,-1.1663,-1.0685,-1.077,-1.0715,-1.066,-1.066,-1.1643,-1.2825,-1.3884,-1.5821,-1.7656,-1.9128,-1.9572,-2.001,-2.0595,-2.0322,-2.0098,-1.9922,-2.0322,-2.0566,-2.0566,-2.1155,-2.1211,-2.0797,-2.0748,-2.012,-1.8713,-1.6309,-1.306,-0.9177,-0.6681,-0.2623,1.2787,1.2433,1.1226,0.8446,0.6418,0.3951,0.0,0.0,-0.5565,-0.8254,-0.8689,-0.8622,-0.8691,-0.8273,-0.8,-0.8004,-0.8572,-0.8773,-0.8447,0.0,0.0,0.0,0.0,0.0,0.0,0.0,0.0,-0.736,-0.9698,-1.1492,-1.2369,-1.2831,-1.3313,-1.3986,-1.5771,-1.6617,-1.6431,-1.7929,-1.871,-1.8812,-2.0351,-2.1269,-2.1646,-2.1906,-2.2041,-2.2041,-2.2457,-2.2604,0.0,-2.2944,-2.2763,-2.2249,-2.2249,-2.2357,-2.2503,-2.2503,-2.3231,-2.4305,-2.464,-2.5148,-2.5656,-2.5985,-2.6297,-2.6308,-2.5213,-2.4413,-2.3963,-2.3963,-2.322,-2.2627,-2.3294,-2.2944,-2.2211,-2.149,-2.0775,-1.983,-1.8488,-1.7009,-1.5681,-1.5065,-1.3639,-1.2462,-1.2134,-1.214,-1.214,-1.214,-1.331,-1.4487,-1.5359,-1.7217,-1.867,-1.9395,-1.9335,-1.958,-2.0312,-2.0215,-2.0049,-1.9922,-2.0619,-2.1001,-2.1001,-2.1962,-2.2531,-2.2785,-2.2783,-2.282,-2.2967,-2.0262,-1.7261,-1.3933,-1.0233,-0.5279,1.1733,1.0509,0.8851,0.5365,0.2271,-0.089,0.0,-0.7128,-0.9185,-1.1139,-1.107,-1.0743,-1.0964,-1.1033,-1.1198,-1.1443,-1.2562,0.0,-1.1786,0.0,0.0,0.0,0.0,0.0,0.0,0.0,0.0,-1.2473,-1.3573,0.0,-1.5345,-1.6824,-1.7333,-1.6603,-1.8345,-1.9023,-1.851,-1.9291,-2.0102,-2.0878,-2.1716,-2.2757,-2.4094,-2.4953,-2.5342,-2.5287,-2.4567,-2.4292,0.0,-2.3424,-2.3078,-2.3078,-2.3078,-2.3416,-2.3991,-2.3991,-2.4343,-2.4924,-2.5608,-2.573,-2.5719,-2.6453,-2.6606,-2.6533,-2.6452,-2.5804,-2.5004,-2.5004,-2.4264,-2.3514,-2.3514,-2.3514,-2.3514,-2.3441,-2.3441,-2.2903,-2.0814,-2.0352,-1.9731,-1.7641,-1.7253,-1.6927,-1.5861,-1.5613,-1.5613,-1.5613,-1.5696,-1.6511,-1.863,-1.8605,-1.8902,-2.044,-1.9795,-1.9453,-1.9883,-2.0312,-2.0371,-1.9941,-2.1196,-2.1952,-2.1952,-2.2925,-2.3895,-2.472,-2.479,-2.4981,-2.546,-2.4128,-2.1857,-1.8827,-1.4455,-0.8704,0.8829,0.7037,0.4717,0.1538,-0.054,-0.2983,-0.7646,-0.8757,-0.9585,-1.2456,-1.2344,-1.1781,-1.1889,-1.2144,-1.2305,-1.2396,-1.2883,-1.354,0.0,0.0,0.0,0.0,0.0,0.0,0.0,0.0,-1.2781,-1.355,-1.6385,-1.8144,-1.8416,-1.9531,-1.9263,-1.7062,-1.8148,-1.8699,-1.8489,-2.0001,-2.1037,-2.1716,-2.3054,-2.4121,-2.5009,-2.5273,-2.5163,-2.4722,-2.4928,-2.4509,-2.3625,-2.3845,-2.3603,-2.3078,-2.3078,-2.3489,-2.4004,-2.4004,-2.4569,-2.5416,-2.5738,-2.6065,-2.6249,-2.6583,-2.6987,-2.7284,-2.7284,-2.6688,-2.5873,-2.5229,-2.5288,-2.5358,-2.4707,-2.5063,-2.5358,-2.4707,-2.4564,-2.4181,-2.2818,-2.1933,-2.107,-1.9653,-1.9065,-1.8357,-1.7041,-1.733,-1.7484,-1.6918,-1.7704,-1.8516,-1.8913,-1.9487,-2.0091,-2.0547,-2.0322,-2.0088,-1.9932,-2.0039,-2.0351,-2.0862,-2.1636,-2.2328,-2.2999,-2.4542,-2.5505,-2.5827,-2.7511,-2.8428,-2.8602,-2.8282,-2.5394,-2.0012,-1.5025,-0.9829,0.0,0.1896,-0.0277,-0.2633,-0.3989,0.0,-0.9638,-1.0498,-1.1051,-1.3035,-1.3158,-1.2732,-1.2372,-1.2914,-1.3265,-1.2898,-1.3776,-1.4554,0.0,0.0,0.0,0.0,0.0,0.0,0.0,0.0,-1.4712,-1.632,-1.8674,-2.0392,-2.123,-2.1809,-2.1275,-1.9599,-1.9458,-1.9503,-1.9537,-2.0714,-2.1818,-2.2724,-2.418,-2.5328,-2.6182,-2.6428,-2.6182,-2.5561,-2.5501,-2.4801,0.0,-2.3628,-2.341,-2.3153,-2.2871,-2.3427,-2.4305,-2.4305,-2.4996,-2.5929,-2.6077,-2.6317,-2.6526,-2.6604,-2.7104,-2.7736,-2.8117,-2.7868,-2.7338,-2.6693,-2.6976,-2.7271,-2.668,-2.6976,-2.7271,-2.668,-2.6544,-2.6246,-2.5202,-2.4234,-2.3262,-2.2254,-2.1492,-2.0458,-1.8762,-1.8894,-1.9032,-1.8318,-1.885,-1.9452,-1.9771,-2.0407,-2.0752,-2.0586,-2.0713,-2.0566,-1.9961,-2.0426,-2.0958,-2.1618,-2.254,-2.3565,-2.4554,-2.6027,-2.7113,-2.7801,-2.9553,-3.0748,-3.1366,-3.2071,-2.9838,-2.4784,-1.9522,-1.4355,0.0,-0.5095,-0.606,0.0,0.0,0.0,-1.0908,-1.2255,0.0,-1.3227,-1.3465,-1.3462,-1.2686,-1.3637,-1.4209,-1.3217,-1.5204,0.0,0.0,0.0,0.0,0.0,0.0,0.0,0.0,0.0,-1.6188,-2.0362,-2.0738,-2.1766,-2.3916,-2.3652,-2.3466,-2.3689,-2.2151,-2.1299,-2.1256,-2.1603,-2.2396,-2.3786,-2.5073,-2.6382,-2.7565,-2.8233,-2.8186,0.0,-2.6224,-2.5228,-2.4396,-2.316,-2.2948,-2.3339,-2.2738,-2.3546,-2.4936,-2.4872,-2.5577,-2.6589,-2.6521,-2.6533,-2.6521,-2.6658,-2.7229,-2.8051,-2.8939,-2.9066,-2.9002,-2.9002,-2.9002,-2.9002,-2.9002,-2.9002,-2.9002,-2.9002,-2.9002,-2.8771,-2.7799,-2.7035,-2.6183,-2.5083,-2.429,-2.3128,-2.1018,-2.0779,-2.0585,-2.0005,-1.9586,-1.9813,-2.1021,-2.123,-2.1064,-2.0615,-2.0967,-2.0879,-1.999,-2.1155,-2.1985,-2.205,-2.3918,-2.5356,-2.6289,-2.7298,-2.8556,-3.0208,-3.0998,-3.2252,-3.3872,-3.5497,-3.4929,-3.2217,-2.7025,-2.1543,-2.0379,0.0,-1.4195,-1.3302,-1.2923,-1.2749,0.0,-1.2508,-1.2699,-1.4348,0.0,0.0,-1.4788,-1.5505,-1.5825,-1.5622,-1.641,-1.7098,0.0,0.0,0.0,0.0,0.0,0.0,0.0,0.0,-2.0486,-2.2961,-2.4169,-2.5107,-2.5818,-2.5621,-2.5729,-2.6217,-2.5035,-2.362,-2.207,-2.2712,-2.3479,-2.4312,-2.6047,-2.7347,-2.8148,-2.8862,-2.8497,-2.7354,-2.7554,-2.6382,-2.441,-2.5092,-2.4878,-2.4177,-2.4544,-2.5503,-2.6546,-2.587,-2.6426,-2.7351,-2.6714,-2.6533,-2.6714,-2.7986,-2.9002,-2.9827,-3.0644,-3.0011,-2.9002,-2.9002,-2.9002,-2.9002,-2.9002,-2.9002,-2.9002,-2.9002,-2.9002,-2.8925,-2.8693,-2.8502,-2.7906,-2.6251,-2.6365,-2.5993,-2.3796,-2.4287,-2.4487,-2.2847,-2.2512,-2.214,-2.134,-2.123,-2.1064,-2.0615,-2.0967,-2.0879,-1.999,-2.0795,-2.1723,-2.2606,-2.3757,-2.5006,-2.6402,-2.7907,-2.8876,-2.9317,-3.1769,-3.4264,-3.665,-3.8318,-3.7875,-3.5387,-3.242,-2.7377,-2.9323,-2.515,-2.004,-1.8478,-1.7059,-1.5745,-1.4824,0.0,0.0,0.0,0.0,0.0,0.0,0.0,0.0,0.0,-1.773,0.0,0.0,0.0,0.0,0.0,0.0,0.0,0.0,0.0,-2.3024,-2.5666,-2.6689,-2.7367,-2.7763,-2.7637,-2.7654,-2.7728,-2.6796,-2.5729,-2.4604,-2.4448,-2.4694,-2.535,-2.6606,-2.7567,-2.8306,-2.9165,-2.8993,-2.7974,-2.8247,-2.7122,-2.502,-2.5526,-2.5379,-2.4847,-2.5282,-2.6173,-2.7175,-2.7013,-2.7264,-2.767,-2.7229,-2.704,-2.7351,-2.9066,-2.995,-3.045,-3.1278,-3.0896,-3.0133,-3.0133,-3.0133,-3.0133,-3.0133,-3.0133,-3.0133,-3.0133,-3.0133,-3.0133,-3.0133,-2.9889,-2.9303,-2.8346,-2.8464,-2.8068,-2.5937,-2.651,-2.6503,-2.4175,-2.364,-2.3101,-2.1981,-2.1826,-2.1572,-2.0937,-2.1269,-2.1016,-1.9736,-2.0398,-2.1185,-2.1898,-2.3167,-2.4565,-2.6043,-2.7366,-2.8844,-3.0484,-3.2767,-3.5053,-3.7421,-3.9259,-3.9576,-3.8462,-3.8042,-3.3715,-3.4161,-3.0111,-2.5098,-2.3387,-2.1086,-1.8827,-1.7342,0.0,0.0,0.0,0.0,0.0,0.0,0.0,0.0,0.0,0.0,0.0,0.0,0.0,0.0,0.0,0.0,0.0,-1.9048,-2.1605,-2.448,-2.7773,-2.8451,-2.8797,-2.9129,-2.9226,-2.9,-2.8482,-2.7906,-2.7614,-2.7636,-2.6277,-2.5871,-2.6422,-2.7061,-2.7785,-2.854,-2.9553,-2.9739,-2.9247,0.0,0.0,-2.6397,-2.6117,-2.5994,-2.6059,-2.6307,-2.7058,-2.8052,-2.8412,-2.8388,-2.822,-2.7986,-2.792,-2.8182,-2.9766,-3.0389,-3.0644,-3.1452,-3.1582,-3.1524,-3.164,-3.1582,-3.1482,-3.1482,-3.1482,-3.1482,-3.1482,-3.1482,-3.1482,-3.1482,-3.097,-3.045,-3.0329,-3.0199,-2.9611,-2.7803,-2.799,-2.752,-2.4978,-2.4111,-2.3429,-2.2621,-2.2393,-2.2041,-2.1309,-2.1562,-2.1133,-1.9521,-2.0155,-2.0652,-2.0649,-2.2354,-2.4049,-2.5572,-2.6581,-2.8721,-3.2198,-3.3532,-3.4833,-3.6179,-3.7395,-3.842,-3.9274,-4.0077,-3.7028,-3.3648,-3.2763,-3.1282,-2.8378,-2.5759,-2.3396,-2.143,0.0,0.0,0.0,0.0,0.0,0.0,0.0,0.0,0.0,0.0,0.0,0.0,0.0,0.0,0.0,0.0,0.0,-1.7834,-2.2101,-2.5604,-2.7592,-2.8873,-2.919,-2.8512,-2.9087,-2.9119,-2.8323,-2.8728,-2.8982,-2.9157,-2.7262,-2.6556,-2.7002,-2.8157,-2.9113,-2.9916,-3.0703,-3.1172,-3.1339,0.0,-3.0535,-2.9339,-3.011,-3.0029,-2.9544,-3.0338,-3.1124,-3.1612,-3.0433,-3.0319,-3.0543,-2.9275,-2.8812,-2.9002,-2.995,-3.0777,-3.1452,-3.2216,-3.2007,-3.164,-3.2272,-3.1951,-3.1482,-3.1482,-3.1482,-3.1482,-3.1482,-3.1482,-3.1482,-3.1482,-3.1409,-3.1087,-3.045,-3.0649,-3.0609,-2.9545,-2.9648,-2.9119,-2.6823,-2.5631,-2.4324,-2.2695,-2.1885,-2.1377,-2.125,-2.1289,-2.0918,-1.9902,-2.0266,-2.0435,-2.0038,-2.1763,-2.3772,-2.59,-2.7277,-2.9334,-3.2189,-3.3211,-3.2993,-3.1531,-2.9102,-2.942,-3.2174,-2.8963,-2.8799,-3.3221,-3.2957,-3.2441,-3.1876,-2.9766,-2.7394,-2.5719,0.0,0.0,0.0,0.0,0.0,0.0,0.0,0.0,0.0,0.0,0.0,0.0,0.0,0.0,0.0,0.0,-1.5253,-1.7028,-2.0938,-2.4035,-2.547,-2.666,-2.7089,-2.6578,-2.7229,-2.7497,-2.7303,-2.7466,-2.7882,-2.8476,-2.7381,-2.7276,-2.8145,-2.8323,-2.9048,-3.0216,-3.0802,-3.1448,-3.2128,0.0,-3.1785,-3.0722,-3.1706,-3.1515,-3.0707,-3.2036,-3.2579,-3.2474,-3.1271,-3.0528,-2.9925,-2.9226,-2.9002,-2.9129,-3.0011,-3.0837,-3.164,-3.2382,-3.2382,-3.2176,-3.2477,-3.2064,-3.1482,-3.1482,-3.1482,-3.1482,-3.1482,-3.1482,-3.1482,-3.1482,-3.1482,-3.1409,-3.1029,-3.1424,-3.1406,-3.003,-3.0228,-2.9639,-2.704,-2.5816,-2.4631,-2.3431,-2.2294,-2.1582,-2.1582,-2.183,-2.17,-2.0785,-2.114,-2.1246,-2.1037,-2.2034,-2.3577,-2.5472,-2.7221,-2.9506,-3.2362,-3.305,-3.3044,-3.2337,-2.7282,-2.7543,-3.2683,-3.0162,-3.0265,-3.1863,-3.1758,-3.1828,-3.3044,0.0,-3.0375,-2.9597,0.0,0.0,0.0,0.0,0.0,0.0,0.0,0.0,0.0,0.0,0.0,0.0,0.0,0.0,0.0,-1.1499,-1.309,-1.4831,-1.8115,-2.056,-2.153,-2.2391,-2.2772,-2.2389,-2.3592,-2.4321,-2.4281,-2.5277,-2.6246,-2.71,-2.7291,-2.7929,-2.8941,-2.8479,-2.9071,-3.0596,-3.0939,-3.1766,-3.2958,-3.318,-3.2939,-3.2427,-3.3019,-3.2767,-3.2178,-3.3433,-3.3481,-3.2729,-3.2083,-3.0749,-2.9317,-2.9317,-2.9192,-2.9129,-3.0011,-3.0718,-3.1379,-3.2312,-3.2492,-3.2382,-3.2547,-3.2064,-3.1482,-3.1482,-3.1482,-3.1482,-3.1482,-3.1482,-3.1482,-3.1482,-3.1347,-3.13,-3.13,-3.1704,-3.153,-2.9919,-3.0159,-2.9671,-2.7005,-2.5685,-2.4746,-2.3927,-2.2623,-2.1811,-2.2036,-2.2395,-2.2347,-2.1912,-2.2306,-2.2531,-2.2494,-2.2674,-2.3505,-2.5116,-2.7173,-2.9633,-3.2536,-3.3263,-3.341,-3.302,-2.719,-2.7355,-3.3022,-3.1458,-3.1701,-2.8622,-2.9224,-3.0423,-3.0483,-3.0916,0.0,-3.2533,-3.1888,0.0,0.0,0.0,0.0,0.0,0.0,0.0,0.0,0.0,0.0,0.0,0.0,0.0,-0.9714,-0.9287,-0.95,-1.0071,-1.3085,-1.4957,-1.5062,-1.5686,-1.5548,-1.4384,-1.7508,-1.8919,-1.8098,-2.2335,-2.4987,-2.5744,-2.7448,-2.8477,-2.8819,-2.9126,-3.0126,-3.1704,-3.1727,-3.2761,-3.4538,-3.424,-3.4656,-3.5547,-3.5111,-3.5168,-3.5533,-3.548,-3.4669,-3.3518,-3.3463,-3.2078,-3.0208,-3.0208,-2.969,-2.9129,-3.0011,-3.0329,-3.0689,-3.213,-3.212,-3.1739,-3.2437,-3.2064,-3.1482,-3.1482,-3.1482,-3.1482,-3.1482,-3.1482,-3.1482,-3.1482,-3.1031,-3.0567,-3.0567,-3.0612,-3.0359,-2.9521,-2.9638,-2.9187,-2.713,-2.5784,-2.4613,-2.3524,-2.2151,-2.158,-2.2559,-2.2286,-2.2356,-2.3082,-2.3826,-2.418,-2.4112,-2.342,-2.3715,-2.53,-2.7698,-3.0116,-3.256,-3.4031,-3.3351,-3.0462,-2.6889,-2.6403,-2.8764,-2.6072,-2.7671,-2.7894,-2.8202,-2.8924,-2.9397,0.0,0.0,0.0,0.0,0.0,0.0,0.0,0.0,0.0,0.0,0.0,0.0,0.0,0.0,0.0,0.0,-1.2263,-0.848,-0.741,-0.6957,-0.719,-0.844,-0.9173,-0.8983,-0.8897,-0.9091,-0.974,-1.2629,-1.5326,-1.7402,-2.1277,-2.4298,-2.6318,-2.8355,-2.9787,-3.0599,-3.0452,-3.128,-3.2901,-3.266,-3.3331,-3.4711,-3.4936,-3.5058,-3.5229,-3.6003,-3.5984,-3.5427,-3.5082,-3.4382,-3.3547,-3.3145,-3.2124,-3.0778,-2.9799,-2.9254,-2.8939,-2.8748,-2.9066,-2.9799,-3.1302,-3.1603,-3.1577,-3.2351,-3.2382,-3.2064,-3.164,-3.1482,-3.1362,-3.1001,-3.0896,-3.0791,-3.0402,-3.0118,-2.9924,-2.9924,-3.0238,-3.0268,-2.945,-2.9736,-2.9636,-2.8108,-2.671,-2.5656,-2.5301,-2.3766,-2.2874,-2.3547,-2.3743,-2.4107,-2.4658,-2.5076,-2.5559,-2.6077,-2.5463,-2.5714,-2.7249,-2.87,-3.0925,-3.3978,-3.4371,-3.3958,-3.2802,-3.1707,-3.1646,-3.2538,-3.138,-3.2086,-2.6524,-2.6471,-2.6668,0.0,0.0,0.0,0.0,0.0,0.0,0.0,0.0,0.0,0.0,0.0,0.0,0.0,0.0,0.0,0.0,0.0,-1.2401,-0.8001,-0.5726,-0.4368,-0.4027,-0.3815,-0.3585,-0.3522,-0.3078,-0.3572,-0.5409,-0.9074,-1.2793,-1.6494,-2.0841,-2.4317,-2.6883,-2.8834,-3.0609,-3.223,-3.1802,-3.2346,-3.3689,-3.3411,-3.3787,-3.4711,-3.4992,-3.5092,-3.5125,-3.6012,-3.5936,-3.5274,-3.4818,-3.4186,-3.3547,-3.2841,-3.2059,-3.1159,-2.9538,-2.9002,-2.8876,-2.7986,-2.8117,-2.8862,-3.0527,-3.0998,-3.1129,-3.2018,-3.2272,-3.212,-3.164,-3.1482,-3.1302,-3.0672,-3.0507,-3.0328,-2.9714,-2.9561,-2.9554,-2.9554,-2.9902,-2.9978,-2.9345,-2.9461,-2.9282,-2.8399,-2.698,-2.61,-2.6003,-2.4869,-2.4276,-2.4777,-2.5456,-2.5753,-2.5636,-2.591,-2.6334,-2.6872,-2.6871,-2.7461,-2.8779,-2.9677,-3.1543,-3.4486,-3.4488,-3.4745,-3.5329,-3.5705,-3.5937,-3.6061,-3.6156,-3.6208,-2.4069,-2.3645,0.0,0.0,0.0,0.0,0.0,0.0,0.0,0.0,0.0,0.0,0.0,0.0,0.0,0.0,0.0,0.0,0.0,-1.7339,-1.2237,-0.8511,-0.4365,-0.143,-0.0517,0.079,0.1522,0.1371,0.1624,0.089,-0.1236,-0.6838,-1.1462,-1.4663,-2.0839,-2.5106,-2.7199,-2.8625,-3.0701,-3.3394,-3.3073,-3.3278,-3.391,-3.391,-3.4194,-3.4694,-3.4357,-3.4851,-3.5809,-3.5025,-3.5057,-3.5498,-3.483,-3.4186,-3.3531,-3.2841,-3.212,-3.1278,-2.9566,-2.9002,-2.8876,-2.7986,-2.767,-2.8051,-2.9766,-3.0269,-3.0464,-3.1278,-3.1482,-3.1482,-3.1467,-3.1467,-3.1287,-3.0657,-3.0492,-3.0298,-2.9684,-2.9505,-2.9503,-2.9503,-2.9518,-2.9454,-2.925,-2.8568,-2.7925,-2.7775,-2.6536,-2.549,-2.5076,-2.5241,-2.5648,-2.6258,-2.7152,-2.7116,-2.5715,-2.6271,-2.6525,-2.6219,-2.744,-2.8604,-2.9469,-3.0379,-3.1795,-3.3739,-3.4443,-3.5625,-3.7284,-3.7947,-3.8218,-3.8074,-3.8742,-3.867,-2.4673,0.0,0.0,0.0,0.0,0.0,0.0,0.0,0.0,0.0,0.0,0.0,0.0,0.0,0.0,0.0,-2.8842,-2.6408,-2.3247,-1.8984,-1.4578,-1.0432,-0.602,-0.2467,-0.0314,0.1628,0.2755,0.2606,0.219,0.0247,-0.3779,-0.9031,-1.403,-1.8522,-2.3555,-2.7071,-2.8881,-3.0465,-3.2119,-3.3817,-3.3957,-3.4427,-3.5166,-3.4863,-3.486,-3.5051,-3.5114,-3.4905,-3.4568,-3.4565,-3.4092,-3.3408,-3.3746,-3.3446,-3.2724,-3.2087,-3.2007,-3.1977,-2.9785,-2.9002,-2.8748,-2.7284,-2.7229,-2.792,-2.9066,-2.9827,-3.0464,-3.1278,-3.1482,-3.1362,-3.0941,-3.0806,-3.0657,-3.0013,-2.9418,-2.8828,-2.8171,-2.8572,-2.9005,-2.8719,-2.9678,-3.0459,-3.013,-2.9898,-2.9613,-2.9147,-2.8066,-2.721,-2.695,-2.7523,-2.8,-2.8193,-2.7894,-2.7538,-2.7103,-2.6831,-2.6694,-2.6676,-2.7639,-2.8604,-2.9552,-3.0016,-3.11,-3.2925,-3.4037,-3.4895,-3.5553,-3.6273,-3.6316,-3.5789,-3.6018,-3.6123,-2.4782,0.0,0.0,0.0,0.0,0.0,0.0,0.0,0.0,0.0,0.0,0.0,0.0,0.0,0.0,0.0,-2.9047,-2.6958,-2.4024,-2.0436,-1.6761,-1.2947,-0.8711,-0.5101,-0.2596,-0.0451,0.046,-0.0152,-0.1275,-0.3986,-0.8732,-1.3676,-1.8328,-2.251,-2.6185,-2.8746,-3.0096,-3.0935,-3.1951,-3.3163,-3.3323,-3.401,-3.5155,-3.5285,-3.5083,-3.4648,-3.4824,-3.4506,-3.385,-3.3991,-3.3732,-3.3222,-3.3193,-3.3051,-3.2819,-3.1855,-3.1796,-3.1864,-2.9737,-2.9002,-2.8748,-2.704,-2.6873,-2.755,-2.8666,-2.9397,-3.0131,-3.1218,-3.1482,-3.1417,-3.0976,-3.0667,-3.0265,-2.9394,-2.8997,-2.8554,-2.7597,-2.8603,-2.9546,-2.9152,-3.0308,-3.1404,-3.1408,-3.0631,-2.9853,-2.9389,-2.8326,-2.7701,-2.8166,-2.9213,-2.9818,-2.9552,-2.9261,-2.887,-2.8298,-2.7311,-2.6874,-2.7023,-2.6998,-2.7256,-2.7884,-2.8826,-2.9772,-3.0817,-3.2033,-3.1594,-2.9407,-3.3113,-3.3351,-3.0291,-3.0521,-3.2085,-2.4882,0.0,0.0,0.0,0.0,0.0,0.0,0.0,0.0,0.0,0.0,0.0,0.0,0.0,0.0,0.0,-2.8518,-2.6676,-2.4739,-2.1845,-1.8763,-1.5752,-1.2159,-0.9035,-0.6755,-0.481,-0.4298,-0.5652,-0.7653,-1.0687,-1.5213,-1.982,-2.3603,-2.6325,-2.8596,-3.0094,-3.0741,-3.0423,-3.0801,-3.1884,-3.1767,-3.2543,-3.41,-3.5106,-3.4952,-3.3889,-3.3963,-3.3831,-3.3511,-3.3419,-3.3685,-3.4115,-3.2949,-3.2846,-3.3252,-3.1982,-3.1465,-3.1278,-2.9566,-2.9002,-2.8748,-2.704,-2.6601,-2.7075,-2.8443,-2.9049,-2.9579,-3.0924,-3.1319,-3.1255,-3.1159,-3.0747,-2.9997,-2.8755,-2.892,-2.8995,-2.7751,-2.9263,-3.0728,-3.0283,-3.124,-3.2328,-3.2924,-3.1072,-2.9296,-2.8764,-2.7799,-2.7561,-2.885,-3.0424,-3.1172,-3.0555,-3.1071,-3.0793,-2.9352,-2.7936,-2.709,-2.7116,-2.5801,-2.5095,-2.5189,-2.7033,-2.7597,-2.6643,-2.7813,-2.5422,-1.9334,-2.6971,-2.751,-2.1547,-2.2019,-2.5837,0.0,-2.5881,0.0,0.0,0.0,0.0,0.0,0.0,0.0,0.0,0.0,0.0,0.0,0.0,0.0,0.0,-2.7254,-2.5827,-2.4463,-2.2935,-2.1066,-1.8686,-1.5914,-1.3175,-1.064,-0.9238,-0.8948,-1.0052,-1.2328,-1.5606,-1.9963,-2.3665,-2.6388,-2.7969,-3.0007,-3.0632,-2.9652,-3.0272,-3.1012,-3.1831,-3.1797,-3.195,-3.2309,-3.3882,-3.4593,-3.4557,-3.4173,-3.3522,-3.2751,-3.2991,-3.2598,-3.1921,-3.2314,-3.2222,-3.1817,-3.1533,-3.1465,-3.1278,-2.9566,-2.9002,-2.8748,-2.704,-2.695,-2.7565,-2.788,-2.8474,-2.9175,-2.9635,-2.9769,-2.9681,-2.928,-2.9037,-2.8678,-2.7871,-2.8031,-2.8338,-2.8013,-2.9253,-3.0346,-3.0088,-3.1827,-3.3316,-3.324,-3.2012,-3.0426,-2.8556,-2.8597,-2.8887,-2.9209,-3.1034,-3.2281,-3.213,-3.2103,-3.1749,-3.091,-2.9432,-2.7945,-2.6465,-2.5435,-2.4517,-2.3559,-2.5121,-2.2688,-1.5584,-1.6642,-1.3223,-0.5044,-0.7858,-0.8506,-0.718,-0.8093,-1.2174,0.0,0.0,0.0,0.0,0.0,0.0,0.0,0.0,0.0,0.0,0.0,0.0,0.0,0.0,0.0,0.0,-2.6589,-2.5324,-2.4515,-2.3624,-2.263,-2.1348,-1.9779,-1.7998,-1.6006,-1.4988,-1.5085,-1.6643,-1.8327,-2.1019,-2.4842,-2.6763,-2.8091,-2.8807,-2.9948,-3.0161,-2.941,-3.0266,-3.0884,-3.1281,-3.1208,-3.1602,-3.2453,-3.3262,-3.3853,-3.4228,-3.4081,-3.3558,-3.2844,-3.279,-3.2823,-3.2876,-3.2591,-3.2834,-3.317,-3.2149,-3.1851,-3.1766,-2.9676,-2.9002,-2.8693,-2.6706,-2.6616,-2.7157,-2.6725,-2.7143,-2.7832,-2.8002,-2.8041,-2.8124,-2.8429,-2.8474,-2.8327,-2.795,-2.7975,-2.7997,-2.7613,-2.8623,-2.9779,-3.0237,-3.1733,-3.3157,-3.3892,-3.2244,-3.033,-2.8765,-2.8468,-2.8541,-2.8785,-3.1019,-3.2322,-3.1641,-3.2708,-3.2823,-3.148,-3.0053,-2.8637,-2.7286,-2.5873,-2.4983,-2.4619,-2.4534,-1.998,-1.0263,-0.4277,0.0677,0.4622,0.7123,0.7293,0.5228,0.317,-0.151,0.0,0.0,0.0,0.0,0.0,0.0,0.0,0.0,0.0,0.0,0.0,0.0,0.0,0.0,0.0,0.0,-2.6147,-2.498,-2.4563,-2.4245,-2.3916,-2.3611,-2.3188,-2.242,-2.1238,-2.0689,-2.1209,-2.3112,-2.4189,-2.5962,-2.8819,-2.909,-2.9187,-2.9226,-2.9513,-2.9623,-2.9478,-3.031,-3.0718,-3.0684,-3.0568,-3.1312,-3.2766,-3.287,-3.3282,-3.3884,-3.4053,-3.3802,-3.3237,-3.2809,-3.3344,-3.4339,-3.3124,-3.3611,-3.4788,-3.299,-3.2342,-3.2021,-2.9966,-2.9004,-2.8365,-2.6401,-2.6154,-2.6324,-2.5573,-2.5747,-2.622,-2.6207,-2.6167,-2.6343,-2.7463,-2.7689,-2.7614,-2.7686,-2.755,-2.7315,-2.6879,-2.7801,-2.8973,-2.994,-3.1232,-3.2631,-3.4056,-3.2192,-3.0199,-2.9386,-2.8423,-2.8057,-2.8569,-3.0938,-3.2094,-3.1029,-3.3141,-3.3809,-3.1837,-3.0597,-2.9603,-2.8697,-2.6894,-2.5981,-2.6325,-2.3015,-1.6919,-0.7879,0.3974,1.0809,1.2404,1.7678,1.8426,1.4958,1.1855,0.7635,0.0,0.0,0.0,0.0,0.0,0.0,0.0,0.0,0.0,0.0,0.0,0.0,0.0,0.0,0.0,0.0,0.0,-2.4695,-2.4222,-2.5096,-2.5501,-2.4771,-2.5069,-2.4972,-2.4044,-2.4549,-2.5337,-2.6337,-2.7649,-2.8877,-3.0027,-3.0221,-2.9981,-2.9311,-3.0041,-3.0088,-2.9335,-3.0351,-3.0786,-3.0617,-3.06,-3.0745,-3.1081,-3.2396,-3.3751,-3.5055,-3.4751,-3.419,-3.3524,-3.3219,-3.3142,-3.3129,-3.2942,-3.3039,-3.3315,-3.3304,-3.2459,-3.1205,-3.0413,-2.8973,-2.733,-2.6757,-2.6206,-2.5674,-2.5163,-2.5155,-2.5023,-2.4378,-2.3977,-2.3928,-2.4951,-2.483,-2.4539,-2.4814,-2.4728,-2.4973,-2.6126,-2.7164,-2.7862,-2.7839,-3.0323,-3.24,-3.2302,-3.2192,-3.1756,-3.0769,-2.9826,-2.9435,-3.0036,-3.1336,-3.2319,-3.265,-3.3894,-3.4159,-3.2882,-3.2168,-3.1155,-2.9799,-2.8459,-2.7378,-2.6499,-1.6754,-0.9827,-0.6517,-0.1848,0.7256,2.0883,2.0191,1.9743,1.9379,1.6554,1.6154,0.0,0.0,0.0,0.0,0.0,0.0,0.0,0.0,0.0,0.0,0.0,0.0,0.0,0.0,0.0,0.0,0.0,0.0,-2.4765,-2.5178,-2.5459,-2.5269,-2.5467,-2.5662,-2.5775,-2.614,-2.6903,-2.8247,-2.8927,-2.9609,-3.0431,-3.0101,-2.9713,-2.938,-2.9751,-2.979,-2.9427,-3.0409,-3.0813,-3.0661,-3.0661,-3.093,-3.148,-3.2597,-3.34,-3.3944,-3.4617,-3.4637,-3.4209,-3.4086,-3.426,-3.4538,-3.4093,-3.43,-3.4733,-3.3924,-3.3135,-3.2216,-3.0647,-2.9327,-2.8154,-2.7289,-2.6638,-2.5919,-2.4517,-2.4108,-2.3709,-2.1696,-2.142,-2.1834,-2.2332,-2.2554,-2.256,-2.2176,-2.2313,-2.2172,-2.1066,-2.2325,-2.4152,-2.567,-2.822,-3.0607,-3.2092,-3.2306,-3.2076,-3.1386,-3.0063,-2.931,-2.9806,-3.0756,-3.1614,-3.2064,-3.3811,-3.4408,-3.3038,-3.2753,-3.2196,-3.1125,-3.0121,-2.9107,-2.8109,-2.1341,-1.5625,-1.1385,0.0929,1.0914,1.8291,1.4285,1.311,1.465,1.2841,1.3807,0.0,0.0,0.0,0.0,0.0,0.0,0.0,0.0,0.0,0.0,0.0,0.0,0.0,0.0,0.0,0.0,0.0,0.0,-2.526,-2.5351,-2.5523,-2.5505,-2.5889,-2.6322,-2.6767,-2.7004,-2.7754,-2.9257,-2.9419,-2.978,-3.0579,-3.0068,-2.9723,-2.9723,-2.9787,-2.9801,-2.9801,-3.0525,-3.0857,-3.0747,-3.0747,-3.1216,-3.2077,-3.2871,-3.3236,-3.3341,-3.4581,-3.4996,-3.4812,-3.4714,-3.5114,-3.5647,-3.5059,-3.5322,-3.5882,-3.4629,-3.3813,-3.3047,-3.1214,-2.985,-2.8749,-2.7754,-2.7056,-2.6185,-2.4193,-2.3499,-2.28,-1.9845,-1.9409,-1.9717,-1.9468,-1.9868,-2.0072,-1.9021,-1.9037,-1.8818,-1.7068,-1.798,-1.996,-2.2707,-2.5261,-2.7942,-3.0847,-3.1787,-3.2081,-3.1847,-3.0438,-2.9591,-3.0095,-3.0752,-3.1369,-3.1895,-3.3777,-3.4477,-3.3198,-3.3232,-3.3073,-3.2457,-3.177,-3.0772,-2.9487,-2.6152,-2.1655,-1.5999,-0.1281,0.7905,1.122,0.6895,0.5137,0.5924,0.6939,0.9505,0.0,0.0,0.0,0.0,0.0,0.0,0.0,0.0,0.0,0.0,0.0,0.0,0.0,0.0,0.0,0.0,0.0,0.0,0.0,-2.6067,-2.6402,-2.5593,-2.6953,-2.7662,-2.6889,-2.7556,-2.8398,-2.9235,-2.9416,-2.9847,-3.0645,-3.066,-3.0635,-3.0635,-3.0635,-3.0638,-3.0638,-3.0818,-3.0898,-3.0898,-3.0898,-3.1348,-3.2207,-3.2953,-3.3731,-3.4534,-3.4977,-3.5147,-3.507,-3.4793,-3.4904,-3.5229,-3.5191,-3.5245,-3.535,-3.5463,-3.4386,-3.2794,-3.2494,-3.0476,-2.8073,-2.8143,-2.7293,-2.5995,-2.4722,-2.3789,-2.2671,-1.9951,-1.8332,-1.7162,-1.6151,-1.6307,-1.626,-1.4621,-1.423,-1.4714,-1.6705,-1.6135,-1.593,-1.854,-2.1442,-2.4343,-2.7189,-3.0101,-3.2125,-3.2413,-3.1524,-3.1155,-3.2195,-3.2117,-3.2331,-3.3369,-3.4242,-3.4394,-3.3613,-3.379,-3.3868,-3.3621,-3.3316,-3.2157,-2.9868,-2.6856,-2.2808,-1.7558,-1.5591,-0.9521,0.0785,0.044,-0.1954,-0.6022,0.0619,0.6322,0.0,0.0,0.0,0.0,0.0,0.0,0.0,0.0,0.0,0.0,0.0,0.0,0.0,0.0,0.0,0.0,0.0,0.0,0.0,-2.681,-2.6782,-2.7071,-2.6968,-2.7209,-2.8067,-2.8308,-2.8779,-2.9612,-2.9373,-2.9316,-2.9669,-2.9849,-2.9941,-2.9996,-3.0543,-3.0836,-3.0836,-3.0879,-3.0898,-3.0898,-3.0898,-3.1367,-3.2226,-3.3005,-3.3814,-3.4647,-3.534,-3.5553,-3.54,-3.5315,-3.5348,-3.5469,-3.5495,-3.5541,-3.5549,-3.5386,-3.4622,-3.3487,-3.2505,-3.1162,-2.9783,-2.9211,-2.836,-2.7167,-2.5382,-2.409,-2.2442,-1.875,-1.7036,-1.5844,-1.4178,-1.32,-1.2029,-0.941,-0.7339,-0.6136,-0.6966,-0.8772,-1.0998,-1.3598,-1.7129,-2.1021,-2.4973,-2.8813,-3.1474,-3.1951,-3.1568,-3.1411,-3.1987,-3.2197,-3.2719,-3.3803,-3.4545,-3.4868,-3.466,-3.468,-3.4678,-3.4596,-3.3545,-3.1635,-2.8775,-2.5696,-2.2323,-1.8552,-1.556,-1.0914,-0.4405,-0.5542,-0.6474,-0.6994,-0.2386,0.2028,0.0,0.0,0.0,0.0,0.0,0.0,0.0,0.0,0.0,0.0,0.0,0.0,0.0,0.0,0.0,0.0,0.0,0.0,0.0,0.0,-2.7152,-2.7759,-2.7381,-2.7542,-2.8739,-2.866,-2.8774,-2.9371,-2.9135,0.0,-2.8677,-2.9175,-2.9508,-2.9568,-3.039,-3.0858,-3.0898,-3.0858,-3.0858,-3.0898,-3.115,-3.1733,-3.2593,-3.3406,-3.4057,-3.4609,-3.5134,-3.5474,-3.5639,-3.5639,-3.5657,-3.5718,-3.5743,-3.5783,-3.5768,-3.5532,-3.504,-3.4334,-3.3121,-3.2065,-3.1083,-3.0016,-2.9069,-2.7899,-2.5854,-2.4205,-2.2268,-1.8311,-1.6102,-1.4379,-1.1721,-0.9065,-0.6559,-0.4455,-0.1901,0.0077,0.0077,-0.2677,-0.5826,-0.8645,-1.2758,-1.739,-2.235,-2.6994,-3.0435,-3.1637,-3.1795,-3.1883,-3.2228,-3.272,-3.3343,-3.4224,-3.4887,-3.5264,-3.5162,-3.5258,-3.5198,-3.5022,-3.3536,-3.1242,-2.8049,-2.4848,-2.1761,-1.8783,-1.5567,-1.2238,-0.8764,-0.9016,-0.8442,-0.6997,-0.4156,0.0615,0.0,0.0,0.0,0.0,0.0,0.0,0.0,0.0,0.0,0.0,0.0,0.0,0.0,0.0,0.0,0.0,0.0,0.0,0.0,0.0,-2.7654,-2.7592,-2.8284,-2.8798,-2.8817,-2.8585,-2.8435,-2.8487,-2.872,-2.8548,-2.7846,-2.8814,-2.9433,-2.9533,-3.0289,-3.0769,-3.0898,-3.0769,-3.0769,-3.0898,-3.1641,-3.2459,-3.3317,-3.4113,-3.4478,-3.449,-3.4347,-3.4803,-3.5658,-3.5639,-3.5738,-3.5884,-3.5868,-3.5908,-3.5976,-3.5918,-3.5632,-3.5171,-3.439,-3.3209,-3.1806,-3.0459,-2.9367,-2.8143,-2.6079,-2.4222,-2.2116,-1.8678,-1.5679,-1.2594,-0.8524,-0.3681,0.0154,0.023,0.1767,0.3242,0.3272,0.1632,-0.0694,-0.3722,-0.8335,-1.3531,-1.9054,-2.4504,-2.892,-3.1424,-3.215,-3.2583,-3.3111,-3.3709,-3.4244,-3.4658,-3.5301,-3.5531,-3.5156,-3.5465,-3.5435,-3.483,-3.3379,-3.1107,-2.7916,-2.4496,-2.1366,-1.8436,-1.6881,-1.4942,-1.2741,-0.9881,-0.8041,-0.7059,-0.4506,0.2415,-3.164,0.0,0.0,0.0,0.0,0.0,0.0,0.0,0.0,0.0,0.0,0.0,0.0,0.0,0.0,0.0,0.0,0.0,0.0,0.0,-2.9322,-2.9313,-2.8852,-2.8758,-2.9401,-2.8808,-2.8411,0.0,-2.8093,-2.7916,-2.8007,-2.8945,-2.9737,-3.0272,-3.0507,-3.0679,-3.0747,-3.0718,-3.0718,-3.0767,-3.1591,-3.2424,-3.3243,-3.3453,-3.3894,-3.4452,-3.3793,-3.4008,-3.4786,-3.41,-3.4589,-3.5702,-3.512,-3.524,-3.5782,-3.5761,-3.5522,-3.5115,-3.4365,-3.3469,-3.242,-3.1086,-2.9976,-2.8763,-2.6703,-2.4525,-2.2116,-1.8678,-1.4678,-0.9814,-0.2815,0.1166,0.3689,0.5222,0.602,0.6513,0.6531,0.6213,0.4755,0.079,-0.3882,-0.8764,-1.3905,-1.9471,-2.4673,-2.889,-3.0108,-3.1082,-3.256,-3.3159,-3.3791,-3.4677,-3.5336,-3.565,-3.5539,-3.5584,-3.5327,-3.4631,-3.2316,-2.9872,-2.7316,-2.4476,-2.2133,-2.045,-1.838,-1.6493,-1.478,-1.2056,-0.9344,-0.6603,0.0251,0.7353,0.0,0.0,0.0,0.0,0.0,0.0,-3.2686,-3.2733,0.0,0.0,0.0,0.0,0.0,0.0,0.0,0.0,0.0,0.0,0.0,0.0,0.0,-3.0222,-2.9399,-2.8933,-2.9286,-2.874,-2.8198,-2.7718,-2.7907,-2.8165,-2.8414,-2.9113,-2.9687,-3.0098,-3.0421,-3.0615,-3.0665,-3.0619,-3.0813,-3.1207,-3.203,-3.2608,-3.3005,-3.3306,-3.3487,-3.3508,-3.2987,-3.3272,-3.4021,-3.3064,-3.3821,-3.549,-3.5132,-3.5215,-3.5551,-3.5715,-3.5618,-3.525,-3.4391,-3.3763,-3.3075,-3.141,-3.0308,-2.9217,-2.6988,-2.4666,-2.2031,-1.8137,-1.2374,-0.5895,0.0642,0.4243,0.6588,0.8347,0.9082,0.934,0.8871,0.8885,0.8112,0.5113,0.0782,-0.3834,-0.8456,-1.4811,-2.0914,-2.5972,-2.8121,-2.9865,-3.1834,-3.2729,-3.3608,-3.4652,-3.5323,-3.5684,-3.5625,-3.5325,-3.4979,-3.4599,-3.1949,-2.9685,-2.8131,-2.5112,-2.2992,-2.198,-1.9998,-1.7871,-1.5618,-1.2733,-0.8729,-0.372,0.4774,1.1278,0.0,0.0,0.0,0.0,0.0,0.0,-3.2466,-3.2579,-3.2376,0.0,0.0,0.0,0.0,0.0,0.0,0.0,0.0,0.0,0.0,0.0,0.0,0.0,-2.993,-2.9304,-2.8901,-2.8542,-2.7924,-2.6914,-2.8015,-2.8801,-2.8923,-2.9338,-2.9567,-2.9507,-3.031,-3.0736,-3.0724,-3.0762,-3.118,-3.1987,-3.2735,-3.2987,-3.2793,-3.3356,-3.3158,-3.2317,-3.2128,-3.2616,-3.3418,-3.26,-3.3424,-3.525,-3.5387,-3.5369,-3.531,-3.569,-3.5677,-3.5318,-3.4408,-3.3995,-3.3542,-3.1542,-3.0499,-2.9529,-2.7145,-2.4639,-2.1595,-1.6603,-0.9352,-0.2082,0.2465,0.6037,0.8688,1.0024,1.1014,1.1421,1.0525,1.0384,1.0145,0.913,0.5342,0.0974,-0.3253,-1.0518,-1.7624,-2.309,-2.64,-2.903,-3.124,-3.247,-3.355,-3.4594,-3.5261,-3.5565,-3.5344,-3.4782,-3.4464,-3.4551,-3.1953,-3.0198,-2.9705,-2.6265,-2.401,-2.3272,-2.1471,-1.8914,-1.5565,-1.2228,-0.7049,-0.0,0.7988,1.3726,0.0,0.0,0.0,0.0,-3.2167,0.0,-3.346,-3.2899,-3.1844,0.0,0.0,0.0,0.0,0.0,0.0,0.0,0.0,0.0,0.0,0.0,0.0,0.0,-3.0142,-2.9664,-2.9328,-2.8485,-2.7911,-2.7685,-2.8123,-2.8592,-2.904,-2.9707,-3.0107,-3.019,-3.104,-3.152,-3.1579,-3.2203,-3.2512,-3.2459,-3.332,-3.3566,-3.326,-3.2731,-3.2732,-3.3109,-3.1751,-3.2015,-3.3412,-3.3222,-3.3845,-3.4818,-3.4118,-3.438,-3.517,-3.5297,-3.5006,-3.4487,-3.4087,-3.3545,-3.286,-3.1855,-3.0837,-2.9615,-2.7628,-2.4545,-1.9961,-1.1602,-0.682,-0.2881,0.3109,0.6463,0.8761,1.0745,1.1496,1.1662,1.1421,1.1578,1.1928,1.2537,0.9,0.4466,-0.0082,-0.7232,-1.4781,-2.1923,-2.5831,-2.9128,-3.2324,-3.273,-3.324,-3.4552,-3.5115,-3.5068,-3.4291,-3.4089,-3.3877,-3.3597,-3.1723,-3.0466,-3.0099,-2.7659,-2.584,-2.4817,-2.1934,-1.8824,-1.543,-1.1123,-0.6454,-0.1443,0.5906,1.1701,0.0,0.0,0.0,-3.2045,-3.1815,0.0,0.0,-3.3109,-3.2357,-3.1895,0.0,0.0,0.0,0.0,0.0,0.0,0.0,0.0,0.0,0.0,0.0,0.0,-3.0844,-3.0316,-3.0167,-2.8933,-2.8154,-2.8154,-2.8569,-2.9214,-3.0114,-3.0561,-3.1003,-3.1478,-3.1665,-3.1883,-3.2148,-3.2551,-3.2828,-3.2997,-3.3435,-3.3505,-3.3168,-3.2364,-3.2355,-3.2929,-3.1682,-3.2091,-3.3599,-3.3599,-3.3877,-3.428,-3.4124,-3.4297,-3.4697,-3.5055,-3.502,-3.471,-3.4332,-3.4108,-3.3804,-3.2668,-3.1691,-3.0543,-2.8216,-2.355,-1.7726,-1.1325,-0.723,-0.3472,0.2662,0.5507,0.7582,1.1084,1.1952,1.2123,1.2801,1.2997,1.3246,1.3761,1.0621,0.655,0.2431,-0.5173,-1.308,-2.0209,-2.4824,-2.8741,-3.2127,-3.26,-3.3199,-3.4608,-3.4639,-3.436,-3.3889,-3.3083,-3.2869,-3.351,-3.1737,-3.0794,-3.1083,-2.8894,-2.6753,-2.4799,-2.2135,-1.951,-1.6982,-1.2896,-0.8277,-0.3019,0.4824,1.1496,0.0,0.0,0.0,0.0,0.0,-3.2282,0.0,0.0,0.0,0.0,0.0,0.0,0.0,0.0,0.0,0.0,0.0,0.0,0.0,0.0,0.0,0.0,-3.1585,-3.0807,-3.0959,-2.9677,-2.8778,-2.8639,-2.9337,-3.015,-3.102,-3.1332,-3.1781,-3.2474,-3.2249,-3.2282,-3.2678,-3.2849,-3.3145,-3.3535,-3.3475,-3.3347,-3.312,-3.2238,-3.2207,-3.2797,-3.1971,-3.2449,-3.3788,-3.3868,-3.3842,-3.3842,-3.4348,-3.4379,-3.4274,-3.4878,-3.5044,-3.4897,-3.4585,-3.4686,-3.4757,-3.3422,-3.2386,-3.1108,-2.8166,-2.2774,-1.6857,-1.2844,-0.8977,-0.4685,0.1046,0.3692,0.6063,1.055,1.1975,1.2601,1.3894,1.4168,1.4064,1.3828,1.1128,0.7722,0.4071,-0.4057,-1.2215,-1.8704,-2.4039,-2.8474,-3.1867,-3.2632,-3.3322,-3.4516,-3.4084,-3.3624,-3.3383,-3.1968,-3.1736,-3.3222,-3.161,-3.103,-3.2029,-2.9661,-2.7003,-2.4223,-2.215,-2.0255,-1.8467,-1.4911,-1.035,-0.4682,0.3836,1.117,0.0,0.0,0.0,0.0,-3.2441,-3.2565,-3.5029,0.0,-3.3313,-3.3723,0.0,0.0,0.0,0.0,0.0,0.0,0.0,0.0,0.0,0.0,0.0,-3.3455,-3.1758,-3.0782,-3.1144,-3.0661,-3.011,-2.952,-3.0486,-3.0945,-3.0595,-3.1348,-3.1877,-3.2147,-3.2864,-3.3242,-3.3298,-3.4054,-3.4327,-3.4116,-3.3753,-3.3637,-3.3676,-3.2511,-3.2584,-3.3623,-3.2816,-3.2981,-3.3815,-3.4068,-3.4018,-3.3807,-3.3868,-3.4018,-3.4246,-3.4615,-3.4456,-3.4056,-3.4255,-3.4238,-3.4035,-3.3445,-3.2,-2.9854,-2.6352,-2.3447,-2.0163,-1.4565,-1.1266,-0.8138,-0.2532,0.1318,0.4658,0.8281,1.0833,1.2741,1.4143,1.4469,1.4109,1.3106,1.0947,0.7967,0.4054,-0.4087,-1.2165,-1.8434,-2.4265,-2.9217,-3.2866,-3.3429,-3.3648,-3.4043,-3.371,-3.2996,-3.1857,-3.0934,-3.0756,-3.1534,-3.0901,-3.1067,-3.2306,-2.9487,-2.6535,-2.3739,-2.1869,-2.0014,-1.806,-1.4743,-1.0905,-0.6477,0.193,0.8874,0.0,0.0,0.0,0.0,0.0,0.0,-3.4625,0.0,-3.4093,0.0,0.0,0.0,0.0,0.0,0.0,0.0,-3.3424,0.0,0.0,0.0,0.0,0.0,0.0,0.0,-3.1298,-3.125,-3.0761,-2.9458,-3.1162,-3.2039,-3.1463,-3.2249,-3.2994,-3.3605,-3.3468,-3.3556,-3.3855,-3.3995,-3.3901,-3.3616,-3.3164,-3.3003,-3.3039,-3.2342,-3.2531,-3.3411,-3.2838,-3.3073,-3.3807,-3.391,-3.3902,-3.3807,-3.3807,-3.385,-3.4037,-3.4508,-3.4565,-3.4491,-3.4914,-3.5018,-3.4875,-3.4199,-3.2831,-3.0925,-2.848,-2.5816,-2.2648,-1.8359,-1.5178,-1.1857,-0.615,-0.2093,0.1576,0.5799,0.8632,1.0823,1.2081,1.3028,1.3314,1.213,1.179,1.0361,0.6467,-0.3031,-1.2147,-1.8396,-2.4629,-2.9783,-3.2921,-3.3178,-3.3138,-3.3289,-3.2465,-3.1624,-3.1017,-3.0418,-3.0191,-3.0528,-3.0414,-2.9998,-2.923,-2.6974,-2.4243,-2.1009,-1.8953,-1.6994,-1.5167,-1.3153,-0.9967,-0.5528,0.1275,0.8328,-3.1253,0.0,0.0,0.0,0.0,0.0,0.0,0.0,0.0,0.0,0.0,0.0,0.0,0.0,0.0,0.0,0.0,-3.3422,0.0,0.0,0.0,0.0,0.0,0.0,0.0,-3.2026,-3.163,-3.0062,-3.1881,-3.2832,-3.2374,-3.286,-3.3587,-3.4543,-3.3778,-3.3604,-3.4074,-3.3687,-3.3385,-3.3184,-3.2598,-3.2384,-3.25,-3.2094,-3.2414,-3.3178,-3.2875,-3.3149,-3.3807,-3.3876,-3.3868,-3.3807,-3.3876,-3.385,-3.3868,-3.4375,-3.4601,-3.4716,-3.529,-3.5587,-3.5599,-3.49,-3.3958,-3.274,-3.0846,-2.8438,-2.5678,-2.2193,-1.8779,-1.4918,-0.9265,-0.4767,-0.0437,0.4563,0.745,0.9615,1.1563,1.2581,1.302,1.2551,1.3459,1.3343,1.0083,0.0256,-0.9375,-1.6263,-2.308,-2.8753,-3.2256,-3.2791,-3.279,-3.2651,-3.13,-3.0334,-3.0161,-2.9902,-2.9976,-3.0491,-3.0703,-2.9407,-2.6278,-2.4284,-2.1192,-1.6817,-1.4317,-1.2726,-1.2003,-1.0534,-0.7813,-0.3818,0.1684,0.8147,0.0,0.0,0.0,-3.3994,0.0,0.0,0.0,0.0,-3.4546,0.0,0.0,0.0,0.0,0.0,0.0,0.0,0.0,0.0,0.0,0.0,0.0,0.0,0.0,0.0,0.0,-3.3245,-3.2998,-3.1991,-3.2659,-3.3048,-3.2993,-3.2762,-3.316,-3.4294,-3.3593,-3.3382,-3.3815,-3.3419,-3.3214,-3.3184,-3.2264,-3.2057,-3.2484,-3.2004,-3.2315,-3.3214,-3.3196,-3.34,-3.3815,-3.4093,-3.4043,-3.3815,-3.4093,-3.4018,-3.3842,-3.4099,-3.4223,-3.4323,-3.499,-3.5434,-3.5642,-3.5299,-3.5216,-3.4844,-3.2436,-3.1117,-2.9551,-2.5585,-2.145,-1.6974,-1.1424,-0.5846,-0.0262,0.5526,0.8078,1.0192,1.4059,1.4049,1.374,1.5087,1.6271,1.647,1.4981,0.6708,-0.2601,-1.0884,-1.86,-2.5421,-3.0784,-3.2462,-3.2936,-3.2308,-3.0514,-2.9246,-2.8991,-2.9253,-3.0105,-3.1732,-3.2143,-2.9882,-2.4414,-2.191,-1.7595,-1.1051,-0.7897,-0.7297,-0.9356,-0.6575,-0.4118,-0.1964,0.312,0.7858,0.0,0.0,-3.3691,-3.4289,0.0,0.0,0.0,0.0,0.0,0.0,0.0,0.0,0.0,0.0,0.0,0.0,0.0,0.0,0.0,0.0,0.0,0.0,0.0,0.0,0.0,0.0,0.0,-2.9512,-3.0219,-3.0838,-3.1205,-3.2196,-3.3151,-3.3876,-3.3901,-3.3756,-3.3408,-3.2983,-3.2565,-3.2264,-3.1677,-3.1487,-3.1657,-3.177,-3.1708,-3.1626,-3.2719,-3.3013,-3.272,-3.3603,-3.3876,-3.3807,-3.3902,-3.3876,-3.3842,-3.4099,-3.42,-3.4394,-3.5624,-3.5892,-3.5877,-3.6913,-3.6891,-3.6289,-3.5329,-3.4198,-3.2344,-2.7953,-2.1239,-1.444,-1.0235,-0.1997,0.5453,0.6994,0.954,1.2073,1.3695,1.4446,1.5551,1.7568,2.0521,2.2635,2.2206,1.9434,1.2054,-0.3383,-1.4345,-2.2513,-2.7101,-3.0792,-3.2187,-3.0026,-2.8638,-2.7793,-2.7576,-2.8097,-2.8398,-2.8384,-2.758,-2.5899,-2.3225,-1.7885,-1.1284,-0.3217,-0.3042,-0.2748,-0.2123,-0.1821,-0.0,0.3229,0.8157,1.0557,-3.3685,-3.4024,0.0,-3.4538,-3.4807,0.0,-3.5374,0.0,-3.4224,0.0,0.0,0.0,0.0,0.0,0.0,0.0,0.0,0.0,0.0,-3.1002,0.0,0.0,0.0,0.0,0.0,0.0,-2.8478,-2.7681,-2.8615,-2.9569,-3.0353,-3.1605,-3.2735,-3.3675,-3.3776,-3.3612,-3.3184,-3.2583,-3.1969,-3.1409,-3.1253,-3.1055,-3.0818,-3.1142,-3.1202,-3.1133,-3.2017,-3.2343,-3.2313,-3.3219,-3.3578,-3.3578,-3.3578,-3.3578,-3.3634,-3.3943,-3.4362,-3.4977,-3.632,-3.6706,-3.68,-3.7921,-3.8063,-3.766,-3.7083,-3.6413,-3.5154,-3.179,-2.2876,-1.3599,-1.0474,-0.0309,0.9306,1.0272,1.2065,1.404,1.5743,1.6828,1.8332,2.1481,2.5136,2.8015,2.8822,2.9128,2.3714,0.7474,-0.3925,-1.2345,-1.6996,-2.2428,-2.554,-2.4732,-2.4798,-2.5388,-2.6517,-2.6985,-2.6972,-2.6319,-2.4861,-2.2815,-2.0091,-1.4316,-0.7893,-0.0817,-0.0327,0.1099,0.3453,0.2815,0.4158,0.7364,1.049,1.1442]},{"header":{"parameterUnit":"m.s-1","parameterCategory":1,"la1":30.6,"la2":29.2853,"lo1":-89.7004,"lo2":-87.6739,"dy":0.0162,"dx":0.0183,"nx":112,"ny":82,"refTime":"2023-09-01T18:00:00:Z","depth":0,"parameterNumber":3,"parameterNumberName":"V-component_of_WINDS"},"data":[0.0,0.0,0.0,0.0,0.0,0.0,0.0,0.0,0.0,0.0,0.0,0.0,0.0,0.0,0.0,0.0,0.0,0.0,0.0,0.0,0.0,0.0,0.0,0.0,0.0,0.0,0.0,0.0,0.0,0.0,0.0,0.0,0.0,0.0,0.0,0.0,0.0,0.0,0.0,0.0,0.0,0.0,0.0,0.0,0.0,0.0,0.0,0.0,0.0,0.0,0.0,0.0,0.0,0.0,0.0,0.0,0.0,0.0,0.0,0.0,0.0,0.0,0.0,0.0,0.0,0.0,0.0,0.0,0.0,0.0,0.0,0.0,0.0,0.0,0.0,0.0,0.0,0.0,0.0,0.0,0.0,0.0,0.0,0.0,0.0,0.0,0.0,0.0,0.0,0.0,3.9466,3.9637,3.9925,4.0059,3.9902,3.9355,3.9004,3.9004,0.0,0.0,0.0,0.0,0.0,0.0,0.0,0.0,0.0,0.0,0.0,0.0,0.0,0.0,0.0,0.0,0.0,0.0,0.0,0.0,0.0,0.0,0.0,0.0,0.0,0.0,0.0,0.0,0.0,0.0,0.0,0.0,0.0,0.0,0.0,0.0,0.0,0.0,0.0,0.0,0.0,0.0,0.0,0.0,0.0,0.0,0.0,0.0,0.0,0.0,0.0,0.0,0.0,0.0,0.0,0.0,0.0,0.0,0.0,0.0,0.0,0.0,0.0,0.0,0.0,0.0,0.0,0.0,0.0,0.0,0.0,0.0,0.0,0.0,0.0,0.0,0.0,0.0,0.0,0.0,0.0,0.0,0.0,0.0,0.0,0.0,0.0,0.0,0.0,0.0,0.0,0.0,0.0,0.0,0.0,0.0,0.0,0.0,0.0,0.0,0.0,0.0,0.0,0.0,3.8848,3.9759,4.0546,4.0703,3.9961,4.0469,4.0801,4.0801,0.0,0.0,0.0,0.0,0.0,0.0,0.0,0.0,0.0,0.0,0.0,0.0,0.0,0.0,0.0,0.0,0.0,0.0,0.0,0.0,0.0,0.0,0.0,0.0,0.0,0.0,0.0,0.0,0.0,0.0,0.0,0.0,0.0,0.0,0.0,0.0,0.0,0.0,0.0,0.0,0.0,0.0,0.0,0.0,0.0,0.0,0.0,0.0,0.0,0.0,0.0,0.0,0.0,0.0,0.0,0.0,0.0,0.0,0.0,0.0,0.0,0.0,0.0,0.0,0.0,0.0,0.0,0.0,0.0,0.0,0.0,0.0,0.0,0.0,0.0,0.0,0.0,0.0,0.0,0.0,0.0,0.0,0.0,0.0,0.0,0.0,0.0,0.0,0.0,0.0,0.0,0.0,0.0,0.0,0.0,0.0,0.0,0.0,0.0,0.0,0.0,0.0,0.0,3.9147,3.9981,4.0546,4.0957,4.1035,4.0644,4.0547,4.0703,4.1172,4.0019,0.0,0.0,0.0,0.0,0.0,0.0,0.0,0.0,0.0,0.0,0.0,0.0,0.0,0.0,0.0,0.0,0.0,0.0,0.0,0.0,0.0,0.0,0.0,0.0,0.0,0.0,0.0,0.0,0.0,0.0,0.0,0.0,0.0,0.0,0.0,0.0,0.0,0.0,0.0,0.0,0.0,0.0,0.0,0.0,0.0,0.0,0.0,0.0,0.0,0.0,0.0,0.0,0.0,0.0,0.0,0.0,0.0,0.0,0.0,0.0,0.0,0.0,0.0,0.0,0.0,0.0,0.0,0.0,0.0,0.0,0.0,0.0,0.0,0.0,0.0,0.0,0.0,0.0,0.0,0.0,0.0,0.0,0.0,0.0,0.0,0.0,0.0,0.0,0.0,0.0,0.0,0.0,0.0,0.0,0.0,0.0,0.0,0.0,0.0,0.0,0.0,0.0,4.0306,4.1052,4.1191,4.1016,4.0976,4.1172,4.0215,4.0059,4.1133,4.0351,0.0,0.0,0.0,0.0,0.0,0.0,0.0,0.0,0.0,0.0,0.0,0.0,0.0,0.0,0.0,0.0,0.0,0.0,0.0,0.0,0.0,0.0,0.0,0.0,0.0,0.0,0.0,0.0,0.0,0.0,0.0,0.0,0.0,0.0,0.0,0.0,0.0,0.0,0.0,0.0,0.0,0.0,0.0,0.0,0.0,0.0,0.0,0.0,0.0,0.0,0.0,0.0,0.0,0.0,0.0,0.0,0.0,0.0,0.0,0.0,0.0,0.0,0.0,0.0,0.0,0.0,0.0,0.0,0.0,0.0,0.0,0.0,0.0,0.0,0.0,0.0,0.0,0.0,0.0,0.0,0.0,0.0,0.0,0.0,0.0,0.0,0.0,0.0,0.0,0.0,0.0,0.0,0.0,0.0,0.0,0.0,0.0,0.0,0.0,0.0,0.0,0.0,3.9962,4.1052,4.1191,4.0469,4.0312,4.1133,3.9668,3.9414,4.1094,4.0279,0.0,0.0,0.0,0.0,0.0,0.0,0.0,0.0,0.0,0.0,0.0,0.0,0.0,0.0,0.0,0.0,0.0,0.0,0.0,0.0,0.0,0.0,0.0,0.0,0.0,0.0,0.0,0.0,0.0,0.0,0.0,0.0,0.0,0.0,0.0,0.0,0.0,0.0,0.0,0.0,0.0,0.0,0.0,0.0,0.0,0.0,0.0,0.0,0.0,0.0,0.0,0.0,0.0,0.0,0.0,0.0,0.0,0.0,0.0,0.0,0.0,0.0,0.0,0.0,0.0,0.0,0.0,0.0,0.0,0.0,0.0,0.0,0.0,0.0,0.0,0.0,0.0,0.0,0.0,0.0,0.0,0.0,0.0,0.0,0.0,0.0,0.0,0.0,0.0,0.0,0.0,0.0,0.0,0.0,0.0,0.0,0.0,0.0,0.0,0.0,0.0,0.0,3.9986,4.0934,0.0,4.0098,3.9805,3.9609,3.8984,3.9101,4.0312,0.0,0.0,0.0,0.0,0.0,0.0,0.0,0.0,0.0,0.0,0.0,0.0,0.0,0.0,0.0,0.0,0.0,0.0,0.0,0.0,0.0,0.0,0.0,0.0,0.0,0.0,0.0,0.0,0.0,0.0,0.0,0.0,0.0,0.0,0.0,0.0,0.0,0.0,0.0,0.0,0.0,0.0,0.0,0.0,0.0,0.0,0.0,0.0,0.0,0.0,0.0,0.0,0.0,0.0,0.0,0.0,0.0,0.0,0.0,0.0,0.0,0.0,0.0,0.0,0.0,0.0,0.0,0.0,0.0,0.0,0.0,0.0,0.0,0.0,0.0,0.0,0.0,0.0,0.0,0.0,0.0,0.0,0.0,0.0,0.0,0.0,0.0,0.0,0.0,0.0,0.0,0.0,0.0,0.0,0.0,0.0,0.0,0.0,0.0,0.0,0.0,0.0,3.8461,4.0076,4.0879,0.0,3.9648,3.9258,3.8652,3.8086,3.8379,3.9805,0.0,0.0,0.0,0.0,0.0,0.0,0.0,0.0,0.0,0.0,0.0,0.0,0.0,0.0,0.0,0.0,0.0,0.0,0.0,0.0,0.0,0.0,0.0,0.0,0.0,0.0,0.0,0.0,0.0,0.0,0.0,0.0,0.0,0.0,0.0,0.0,0.0,0.0,0.0,0.0,0.0,0.0,0.0,0.0,0.0,0.0,0.0,0.0,0.0,0.0,0.0,0.0,0.0,0.0,0.0,0.0,0.0,0.0,0.0,0.0,0.0,0.0,0.0,0.0,0.0,0.0,0.0,0.0,0.0,0.0,0.0,0.0,0.0,0.0,0.0,0.0,0.0,0.0,0.0,0.0,0.0,0.0,0.0,0.0,0.0,0.0,0.0,0.0,0.0,0.0,0.0,0.0,0.0,0.0,0.0,0.0,0.0,0.0,0.0,0.0,0.0,0.0,3.8594,4.0117,4.0859,3.998,3.9101,3.8574,3.8574,3.6992,3.7109,0.0,0.0,0.0,0.0,0.0,0.0,0.0,0.0,0.0,0.0,0.0,0.0,0.0,0.0,0.0,0.0,0.0,0.0,0.0,0.0,0.0,0.0,0.0,0.0,0.0,0.0,0.0,0.0,0.0,0.0,0.0,0.0,0.0,0.0,0.0,0.0,0.0,0.0,0.0,0.0,0.0,0.0,0.0,0.0,0.0,0.0,0.0,0.0,0.0,0.0,0.0,0.0,0.0,0.0,0.0,0.0,0.0,0.0,0.0,0.0,0.0,0.0,0.0,0.0,0.0,0.0,0.0,0.0,0.0,0.0,0.0,0.0,0.0,0.0,0.0,0.0,0.0,0.0,0.0,0.0,0.0,0.0,0.0,0.0,0.0,0.0,0.0,0.0,0.0,0.0,0.0,0.0,0.0,0.0,0.0,0.0,0.0,0.0,0.0,0.0,0.0,0.0,0.0,3.8594,3.9506,4.0042,3.9786,3.8393,3.7474,3.7464,3.6528,3.676,3.8715,0.0,0.0,0.0,0.0,0.0,0.0,0.0,0.0,0.0,0.0,0.0,0.0,0.0,0.0,0.0,0.0,0.0,0.0,0.0,0.0,0.0,0.0,0.0,0.0,0.0,0.0,0.0,0.0,0.0,0.0,0.0,0.0,0.0,0.0,0.0,0.0,0.0,0.0,0.0,0.0,0.0,0.0,0.0,0.0,0.0,0.0,0.0,0.0,0.0,0.0,0.0,0.0,0.0,0.0,0.0,0.0,0.0,0.0,0.0,0.0,0.0,0.0,0.0,0.0,0.0,0.0,0.0,0.0,0.0,0.0,0.0,0.0,0.0,0.0,0.0,0.0,0.0,0.0,0.0,0.0,0.0,0.0,0.0,0.0,0.0,0.0,0.0,0.0,0.0,0.0,0.0,0.0,0.0,0.0,0.0,0.0,0.0,0.0,0.0,0.0,0.0,0.0,3.8473,3.9442,3.9886,3.9204,3.8176,3.7247,3.6533,3.6078,3.643,3.7835,0.0,0.0,0.0,0.0,0.0,0.0,0.0,0.0,0.0,0.0,0.0,0.0,0.0,0.0,0.0,0.0,0.0,0.0,0.0,0.0,0.0,0.0,0.0,0.0,0.0,0.0,0.0,0.0,0.0,0.0,0.0,0.0,0.0,0.0,0.0,0.0,0.0,0.0,0.0,0.0,0.0,0.0,0.0,0.0,0.0,0.0,0.0,0.0,0.0,0.0,0.0,0.0,0.0,0.0,0.0,0.0,0.0,0.0,0.0,0.0,0.0,0.0,0.0,0.0,0.0,0.0,0.0,0.0,0.0,0.0,0.0,0.0,0.0,0.0,0.0,0.0,0.0,0.0,0.0,0.0,0.0,0.0,0.0,0.0,0.0,0.0,0.0,0.0,0.0,0.0,0.0,0.0,0.0,0.0,0.0,0.0,0.0,0.0,0.0,0.0,0.0,0.0,3.8408,3.9743,4.0124,3.8685,3.8373,3.7627,3.6044,3.5845,3.6197,3.7117,0.0,0.0,0.0,0.0,0.0,0.0,0.0,0.0,0.0,0.0,0.0,0.0,0.0,0.0,0.0,0.0,0.0,0.0,0.0,0.0,0.0,0.0,0.0,0.0,0.0,0.0,0.0,0.0,0.0,0.0,0.0,0.0,0.0,0.0,0.0,0.0,0.0,0.0,0.0,0.0,0.0,0.0,0.0,0.0,0.0,0.0,0.0,0.0,0.0,0.0,0.0,0.0,0.0,0.0,0.0,0.0,0.0,0.0,0.0,0.0,2.8688,0.0,0.0,0.0,0.0,0.0,0.0,0.0,0.0,0.0,0.0,0.0,0.0,0.0,0.0,0.0,0.0,0.0,0.0,0.0,0.0,0.0,0.0,0.0,0.0,0.0,0.0,0.0,0.0,0.0,0.0,0.0,0.0,0.0,0.0,0.0,0.0,0.0,0.0,0.0,0.0,0.0,3.9237,3.9539,3.9829,4.0148,3.8902,3.7906,3.754,3.6983,3.6736,3.6947,3.726,0.0,0.0,0.0,0.0,0.0,0.0,0.0,0.0,0.0,0.0,0.0,0.0,0.0,0.0,0.0,0.0,0.0,0.0,0.0,0.0,0.0,0.0,0.0,0.0,0.0,0.0,0.0,0.0,0.0,0.0,0.0,0.0,0.0,0.0,0.0,0.0,0.0,0.0,0.0,0.0,0.0,0.0,0.0,0.0,0.0,0.0,0.0,0.0,0.0,0.0,0.0,0.0,0.0,0.0,0.0,0.0,0.0,0.0,0.0,0.0,3.0526,0.0,0.0,0.0,0.0,0.0,0.0,0.0,0.0,0.0,0.0,0.0,0.0,0.0,0.0,0.0,0.0,0.0,0.0,0.0,0.0,0.0,0.0,0.0,0.0,0.0,0.0,0.0,0.0,0.0,0.0,0.0,0.0,0.0,0.0,0.0,0.0,0.0,0.0,0.0,0.0,3.9348,3.9734,3.9953,4.0017,3.9182,3.845,3.8046,3.7648,3.7274,3.6908,3.7389,0.0,0.0,0.0,0.0,0.0,0.0,0.0,0.0,0.0,0.0,0.0,0.0,0.0,0.0,0.0,0.0,0.0,0.0,0.0,0.0,0.0,0.0,0.0,0.0,0.0,0.0,0.0,0.0,0.0,0.0,0.0,0.0,0.0,0.0,0.0,0.0,0.0,0.0,0.0,0.0,0.0,0.0,0.0,0.0,0.0,0.0,0.0,0.0,0.0,0.0,0.0,0.0,0.0,3.4961,3.5325,3.5271,3.5997,3.628,3.6137,3.4023,3.3743,3.4725,3.3819,0.0,0.0,0.0,0.0,0.0,0.0,0.0,0.0,0.0,0.0,0.0,0.0,0.0,0.0,0.0,0.0,0.0,0.0,0.0,0.0,0.0,0.0,3.4168,3.3906,3.4512,3.457,3.2461,0.0,0.0,0.0,0.0,0.0,0.0,0.0,0.0,0.0,0.0,0.0,3.9392,4.0219,4.0469,3.9815,3.9738,3.9335,3.8315,3.8238,3.7891,3.7143,3.7768,3.8013,0.0,0.0,0.0,0.0,0.0,0.0,0.0,0.0,0.0,0.0,0.0,0.0,0.0,0.0,0.0,0.0,0.0,0.0,0.0,0.0,0.0,0.0,0.0,0.0,0.0,0.0,0.0,0.0,0.0,0.0,0.0,0.0,2.6933,2.6836,0.0,0.0,0.0,0.0,0.0,0.0,0.0,0.0,0.0,0.0,0.0,0.0,0.0,3.3693,3.5235,3.615,3.668,3.6797,3.7676,3.7992,3.7819,3.7936,3.8297,3.8787,3.8464,0.0,3.6331,3.5515,0.0,0.0,0.0,0.0,0.0,0.0,0.0,0.0,0.0,0.0,0.0,0.0,0.0,0.0,0.0,0.0,0.0,0.0,0.0,0.0,0.0,0.0,3.7519,3.6016,3.6328,3.6875,3.6523,3.5527,3.4863,3.5391,3.5011,3.5053,0.0,0.0,0.0,0.0,0.0,0.0,4.0239,4.1085,4.1585,4.1489,4.147,4.0835,3.9258,3.9123,3.8753,3.7901,3.8028,3.8472,3.9247,3.9351,0.0,0.0,0.0,0.0,0.0,0.0,0.0,0.0,0.0,0.0,0.0,0.0,0.0,0.0,0.0,0.0,0.0,0.0,0.0,0.0,0.0,0.0,0.0,0.0,0.0,0.0,0.0,0.0,0.0,2.8034,2.8118,2.7675,2.7591,2.7556,0.0,0.0,0.0,0.0,0.0,0.0,0.0,0.0,0.0,3.4617,3.5213,3.5884,3.6675,3.7578,3.8027,3.8047,3.8906,3.9248,3.9101,3.9519,3.983,4.0108,4.0534,4.0277,3.9469,3.818,3.7834,3.8084,0.0,0.0,0.0,0.0,3.8392,3.8392,3.8988,3.8598,3.7924,3.8237,0.0,0.0,0.0,0.0,0.0,0.0,0.0,3.9019,3.7886,3.8808,3.9746,3.8496,3.8867,3.9355,3.8867,3.8164,3.7578,3.7372,3.7416,3.7508,3.7597,0.0,0.0,0.0,0.0,4.045,4.1777,4.2297,4.2335,4.1854,4.1797,4.1296,4.0065,3.9969,3.9623,3.8777,3.8753,3.8999,3.9461,3.959,4.0096,0.0,0.0,0.0,0.0,0.0,0.0,0.0,0.0,0.0,0.0,0.0,0.0,0.0,0.0,0.0,0.0,0.0,0.0,0.0,0.0,0.0,0.0,0.0,0.0,0.0,0.0,0.0,0.0,2.9469,2.9338,2.8498,2.8788,2.8961,0.0,0.0,0.0,0.0,0.0,0.0,3.4101,3.4812,3.5708,3.685,3.7521,3.8021,3.8301,3.8945,3.9277,3.9277,3.9922,4.0148,3.9994,4.0558,4.0733,4.0688,4.1224,4.147,4.1393,4.0354,3.9931,3.9931,3.9931,4.0315,4.0912,4.1566,4.1527,4.1316,4.2393,4.1986,4.0952,4.0771,4.0052,3.9074,3.8045,0.0,0.0,0.0,0.0,4.082,4.0605,4.1191,4.168,4.1035,4.1367,4.1719,4.1308,4.1015,4.0422,3.9009,3.9067,3.9214,3.8838,0.0,0.0,0.0,0.0,4.1623,4.2931,4.3278,4.3085,4.222,4.2143,4.17,4.0585,4.0489,4.0239,3.9642,3.9604,3.9634,3.9735,3.982,4.022,4.0996,0.0,0.0,0.0,0.0,0.0,0.0,0.0,0.0,0.0,0.0,0.0,0.0,0.0,0.0,0.0,0.0,0.0,0.0,0.0,0.0,0.0,0.0,0.0,0.0,0.0,0.0,0.0,0.0,0.0,2.9335,3.0642,0.0,0.0,0.0,0.0,3.3827,3.4156,3.4972,3.6629,3.6947,3.7825,3.9462,3.9663,4.0156,4.0996,4.1055,4.1074,4.1074,4.1113,4.0996,4.075,4.0782,4.0692,4.0504,4.0562,4.0566,4.0623,4.1373,4.1681,4.1681,4.1681,4.17,4.1739,4.1777,4.2297,4.2854,4.2124,4.1816,4.2017,4.3692,4.3178,4.2074,4.2939,4.2085,0.0,0.0,4.2207,4.332,4.248,4.293,4.3555,4.3516,4.3535,4.3789,4.457,4.4032,4.2655,4.0134,3.8959,3.8844,4.0316,0.0,4.0696,4.1604,4.245,4.3008,4.3085,4.3778,4.3932,4.3124,4.3028,4.2354,4.0642,4.0489,4.0469,4.0431,4.0431,4.0501,4.0633,4.0645,4.0761,4.0992,4.0961,0.0,0.0,0.0,0.0,0.0,0.0,0.0,0.0,0.0,0.0,0.0,0.0,0.0,0.0,0.0,0.0,0.0,0.0,0.0,0.0,0.0,0.0,0.0,0.0,0.0,0.0,0.0,0.0,3.1784,3.2164,0.0,3.2135,3.2841,3.3807,3.5002,3.6735,3.8031,3.8663,3.9373,4.0055,4.0641,4.0703,4.0898,4.1191,4.1191,4.1191,4.1191,4.1105,4.1023,4.092,4.0799,4.0707,4.0623,4.053,4.0816,4.1393,4.2277,4.2643,4.2643,4.2643,4.3297,4.4239,4.4239,4.4432,4.4662,4.4355,4.3874,4.3429,4.3567,4.2835,4.199,4.2441,4.2552,4.2467,4.2022,4.318,4.4473,4.4141,4.4726,4.5234,4.4668,4.4531,4.4473,4.4219,4.3874,4.3305,4.2279,4.1732,4.1618,4.215,4.221,4.245,4.3278,4.3662,4.4066,4.4643,4.4951,4.4797,4.3951,4.3412,4.2624,4.1431,4.0816,4.0489,4.0489,4.0489,4.0519,4.0574,4.0642,4.0729,4.0809,4.0349,4.0418,0.0,0.0,0.0,0.0,0.0,0.0,0.0,0.0,0.0,0.0,0.0,0.0,0.0,0.0,0.0,0.0,0.0,0.0,0.0,0.0,0.0,0.0,0.0,0.0,0.0,0.0,3.4334,3.3503,3.3858,3.3987,3.3465,3.4398,3.5425,3.6335,3.8355,3.954,3.9598,4.0581,4.0991,4.07,4.1015,4.1191,4.1191,4.1151,4.1128,4.1128,4.1285,4.1201,4.0903,4.1082,4.0958,4.0636,4.053,4.0835,4.1412,4.197,4.2341,4.2579,4.3444,4.4268,4.5017,4.5207,4.5342,4.54,4.5222,4.497,4.4547,4.3451,4.272,4.2213,4.2054,4.2438,4.2905,4.2773,4.381,4.5036,4.5351,4.5879,4.6152,4.5586,4.5449,4.5273,4.4645,4.4438,4.4351,4.4229,4.3649,4.3272,4.3464,4.3508,4.3797,4.4605,4.4739,4.4951,4.5528,4.5586,4.5163,4.4028,4.3412,4.2624,4.147,4.1104,4.0796,4.0508,4.0777,4.0796,4.0508,4.0602,4.0642,4.0692,3.9991,4.007,4.0996,0.0,0.0,0.0,0.0,0.0,0.0,0.0,0.0,0.0,0.0,0.0,0.0,0.0,0.0,0.0,0.0,0.0,0.0,0.0,0.0,0.0,0.0,0.0,3.4334,3.5039,3.5218,3.4385,3.5699,3.6045,3.4391,3.5757,3.7084,3.7892,3.8878,3.9437,3.9409,4.0416,4.0606,3.977,4.07,4.1191,4.1191,4.1055,4.1016,4.1031,4.1733,4.1607,4.0788,4.1589,4.1421,4.0527,4.0492,4.0473,4.0473,4.0492,4.082,4.1531,4.4009,4.4465,4.3811,4.4367,4.4768,4.4987,4.4459,4.4816,4.522,4.3643,4.3124,4.2964,4.2286,4.2098,4.2333,4.3343,4.4255,4.5148,4.6053,4.6289,4.6289,4.6289,4.6308,4.6268,4.612,4.5995,4.5881,4.5815,4.4428,4.349,4.4215,4.4335,4.4624,4.547,4.5586,0.0,4.5586,4.5586,4.497,4.3355,4.3143,4.2431,4.0719,4.1335,4.1431,4.0546,4.1296,4.1373,4.0527,4.0489,4.0559,4.0692,4.0059,4.0153,4.0992,0.0,0.0,0.0,0.0,0.0,0.0,0.0,0.0,0.0,0.0,0.0,0.0,0.0,0.0,0.0,0.0,0.0,0.0,0.0,0.0,0.0,0.0,3.6448,3.7022,3.6756,3.6427,3.6187,3.6473,3.6295,3.5238,3.6661,3.7488,3.7084,3.911,4.0109,3.9574,4.0466,4.0898,4.0645,4.1011,4.1105,4.0914,4.0964,4.1267,4.1785,4.1306,4.159,4.246,4.12,4.0784,4.1017,4.0212,3.9842,3.9899,4.0528,4.0884,4.1105,4.2003,4.2436,4.265,4.3385,4.3876,4.4143,4.3997,4.3445,4.297,4.372,4.3585,4.3179,4.3554,4.4177,4.4679,4.4353,4.4917,4.5682,4.5936,4.608,4.615,4.615,4.6225,4.6268,4.612,4.5995,4.5881,4.5815,4.5336,4.4999,4.5218,4.524,4.5316,4.5547,4.5586,0.0,4.5586,4.5586,4.5413,4.4951,4.4355,4.3547,4.247,4.2027,4.1431,4.0546,4.0719,4.0739,4.0508,4.0489,4.0519,4.0559,4.051,4.0623,0.0,0.0,0.0,0.0,0.0,0.0,0.0,0.0,0.0,0.0,0.0,0.0,0.0,0.0,0.0,0.0,0.0,0.0,0.0,0.0,0.0,0.0,3.6766,3.7843,3.8675,3.8047,3.7473,3.7452,3.7363,3.6954,3.6084,3.7546,3.8358,3.7868,3.9567,4.0293,3.9567,4.0385,4.0707,4.0344,4.0788,4.0959,4.0801,4.0855,4.128,4.2053,4.1809,4.1938,4.2383,4.1532,4.0957,4.0547,3.9898,3.9599,3.9637,4.0151,4.0268,0.0,0.0,0.0,0.0,0.0,4.3201,4.3383,4.3273,4.2985,4.2716,4.3129,4.3181,4.3181,4.3662,4.4222,4.4655,4.4525,4.4882,4.5405,4.5793,4.5967,4.6027,4.6027,4.608,4.6108,4.6006,4.591,4.5836,4.5728,4.5648,0.0,4.5586,4.5586,4.5586,4.5586,4.5586,4.562,4.568,4.5677,4.5572,4.5272,4.4718,4.3921,4.2744,4.246,0.0,0.0,0.0,4.0873,4.0508,4.0489,0.0,0.0,0.0,4.0645,4.1346,4.1721,0.0,0.0,4.3644,4.3956,0.0,0.0,0.0,0.0,0.0,0.0,0.0,0.0,0.0,0.0,0.0,0.0,0.0,0.0,0.0,0.0,3.8632,3.9,3.9784,3.9071,3.8357,3.8113,3.8003,3.7607,3.6664,3.8152,3.916,3.9138,3.9978,4.0216,3.9458,0.0,0.0,0.0,0.0,4.0785,4.076,4.0721,4.1137,4.1983,4.2514,4.2294,4.1474,4.1966,4.1282,3.9684,3.9406,3.9363,3.9481,3.9282,3.9055,3.9045,4.0663,4.1324,4.151,4.2329,4.2638,4.266,4.2555,0.0,0.0,4.237,4.2535,4.3205,4.3355,4.3374,4.3558,4.4394,4.4608,4.4821,4.5657,4.5891,4.59,4.59,4.589,4.5891,4.5815,4.5796,4.5761,4.5637,4.5586,4.5586,4.5586,4.5586,4.5586,4.5586,4.5586,4.5651,4.5783,4.5796,4.5561,4.4898,0.0,0.0,4.2284,4.2835,4.2521,4.0758,4.147,4.1604,4.0816,4.0777,4.0793,4.0804,4.0208,4.0665,4.2264,4.1743,4.2632,4.4801,4.4801,4.4836,0.0,0.0,0.0,0.0,0.0,0.0,0.0,0.0,0.0,0.0,0.0,0.0,0.0,0.0,0.0,4.0331,4.0933,4.1454,4.1741,4.0413,3.8886,3.741,3.7172,3.677,3.5897,3.7398,3.816,3.7502,3.945,4.0339,3.9591,4.0285,4.0626,4.0452,4.0684,4.0723,4.0549,4.0655,4.1074,4.1825,0.0,0.0,4.2295,4.0556,3.9937,4.0139,3.8191,3.7924,3.8759,3.7283,3.7055,3.7667,3.8821,3.9657,4.032,4.113,4.1607,4.1911,4.2529,4.257,4.247,4.3166,4.3538,4.3846,4.4821,4.5105,0.0,4.5329,4.5384,4.5439,4.5607,4.5742,4.5828,4.5828,4.5861,4.5891,4.5815,4.5796,4.5761,4.5637,4.5586,4.5586,4.5586,4.5586,4.5586,4.5586,4.5586,4.5651,4.5783,4.5796,4.5762,4.5676,4.5647,4.4909,4.3129,4.3737,4.3463,4.1659,4.2374,4.2777,4.2604,4.2604,4.2607,4.268,4.1985,4.2181,4.3305,4.3257,4.3764,4.4801,4.4801,4.5123,0.0,0.0,0.0,0.0,0.0,0.0,0.0,0.0,0.0,0.0,0.0,3.9121,0.0,0.0,4.1702,4.2,4.2401,4.2549,4.2234,4.1448,4.0265,3.8545,3.8325,3.7946,3.7033,3.8509,3.9168,3.8369,3.9791,4.0544,4.017,4.0435,4.0596,4.0596,4.0616,4.061,4.0504,4.0574,4.092,4.153,4.096,4.0988,4.1453,4.0274,3.9546,3.9074,3.7874,3.7602,3.7877,3.6969,3.6856,3.7248,3.7756,3.8337,3.8991,3.9792,4.0382,4.0848,4.1349,4.1661,4.1935,4.2702,4.3213,4.3776,4.4975,4.5342,4.5381,4.555,4.5586,4.5586,4.5586,4.5651,4.5692,4.5692,4.5728,4.5731,4.5723,4.5692,4.568,4.562,4.5586,4.5586,4.5586,4.5586,4.5618,4.5677,4.5692,4.5769,4.5939,4.5957,4.5979,4.6084,4.5649,4.4966,4.4035,4.3853,4.3408,4.2508,4.2854,4.3104,4.3104,4.3104,4.3138,4.3214,4.2898,4.3247,4.4239,4.4313,4.4694,4.5352,4.5352,4.5535,0.0,0.0,0.0,0.0,0.0,0.0,0.0,0.0,3.8733,4.0213,4.0721,4.1259,4.2388,4.2797,4.314,4.3633,4.355,4.3221,4.2646,4.2431,4.1844,4.0566,3.9981,3.934,3.841,3.9682,4.0331,3.9715,4.0325,4.0718,4.0718,4.0582,4.0489,4.0489,4.0457,4.0364,4.0191,4.0123,4.0326,4.0746,4.0665,4.0434,4.0002,3.9946,3.9129,3.7755,3.7755,3.7344,3.6693,3.6929,3.6981,3.6904,3.6904,3.7155,3.7739,3.8636,3.9295,3.9818,4.0351,4.1056,4.1835,4.231,4.293,4.3623,4.4756,4.5096,4.518,4.5513,4.5586,4.5586,4.5586,4.5586,4.5586,4.5586,4.5586,4.5586,4.5586,4.5586,4.5586,4.5586,4.5586,4.5586,4.5586,4.5586,4.5635,4.5747,4.5761,4.582,4.6027,4.6047,4.6099,4.6202,4.5492,4.4988,4.4928,4.3935,4.3412,4.3585,4.3585,4.3585,4.3585,4.3585,4.3559,4.3482,4.3433,4.3897,4.4917,4.4802,4.5135,4.5899,4.5899,4.5861,3.3143,3.4978,3.785,4.0176,3.9937,4.0122,0.0,0.0,4.2972,4.3925,4.4692,4.5032,4.4509,4.4957,4.5428,4.5499,4.4766,4.4183,4.4234,4.3562,4.305,4.2996,4.1033,3.9361,3.8475,3.9256,3.9839,3.9861,4.0452,4.0777,4.0777,4.061,4.0489,4.0489,4.0286,3.9795,3.9106,3.8781,3.8672,3.8723,3.8426,3.8404,3.8621,3.8318,3.7862,3.7285,3.7285,3.6322,3.49,3.6015,3.6224,3.5766,3.5766,3.6097,3.6731,3.8019,3.8796,3.9388,4.0854,4.1736,4.2382,4.3453,4.3852,4.4073,4.4858,4.5096,4.518,4.5513,4.5586,4.5586,4.5586,4.5586,4.5586,4.5586,4.5586,4.5586,4.5586,4.5586,4.5586,4.5586,4.5586,4.5586,4.5586,4.5586,4.5603,4.562,4.5618,4.5661,4.5815,4.584,4.5859,4.5944,4.5846,4.5755,4.5692,4.4751,4.4489,4.5259,4.5316,4.5316,4.5316,4.5316,4.5066,4.4549,4.38,4.3922,4.4999,4.4219,4.4549,4.5899,4.5899,4.5805,3.644,3.7322,0.0,0.0,4.1398,4.2253,4.4189,4.4183,4.4026,4.5026,4.5544,4.5716,4.5305,4.5537,4.5769,0.0,4.5327,4.5112,4.5247,4.4771,4.4355,4.4171,4.3103,4.1931,4.0778,4.1035,4.1066,4.0572,4.1167,4.1321,4.0771,4.0577,4.0489,4.0489,4.0232,3.9719,3.8917,3.8301,3.7891,3.7697,3.7282,3.7298,3.7718,3.756,3.721,3.6724,3.6399,3.5822,3.5165,3.5735,3.5827,3.5622,3.5622,3.5739,3.6062,3.6928,3.7553,3.8149,3.9274,4.031,4.1212,4.1659,4.2665,4.3743,4.3983,4.4407,4.4919,4.5438,4.5586,4.5586,4.5586,4.5586,4.5586,4.5586,4.5586,4.5586,4.5586,4.5586,4.5586,4.5586,4.5665,4.5723,4.5723,4.575,4.5757,4.5757,4.5311,4.5041,4.5246,4.521,4.5162,4.5209,4.5599,4.5638,4.5099,4.5063,4.5201,4.5566,4.5586,4.5586,4.5586,4.5586,4.5544,4.5404,4.4587,4.4688,4.5742,4.4883,4.4959,4.5899,4.5899,4.5686,3.8338,0.0,0.0,4.1028,4.2437,4.3494,4.3935,4.4169,4.4518,4.5285,4.5594,4.5723,4.562,4.568,4.5673,4.5494,4.5457,4.5455,4.5464,4.5339,4.5141,4.4847,4.4547,4.4072,4.3356,4.2976,4.2479,4.1797,4.1961,4.1799,4.1119,4.0712,4.0473,4.0389,4.012,3.9409,3.8286,3.7511,3.6878,3.6413,3.6172,3.6256,3.6682,3.6738,3.6563,3.6182,3.5783,3.5622,3.5622,3.5622,3.547,3.5316,3.5316,3.5207,3.5098,3.5504,3.6222,3.7105,3.784,3.8928,4.0041,4.0438,4.1741,4.3192,4.3428,4.4018,4.4707,4.5302,4.5513,4.5586,4.5586,4.5586,4.5586,4.5586,4.5586,4.5586,4.5586,4.5586,4.5586,4.5586,4.5708,4.5796,4.5796,4.585,4.5907,4.594,4.5172,4.4705,4.5117,4.5098,4.5015,4.5007,4.5483,4.5518,4.4863,4.5285,4.5586,4.5586,4.5586,4.5586,4.5586,4.5586,4.5602,4.5559,4.4995,4.5117,4.5937,4.5312,4.5311,4.5899,4.5899,4.5609,3.7668,0.0,4.0146,4.2611,4.3253,4.3542,4.4379,4.4834,4.5099,4.5118,4.5362,4.5603,4.5586,4.5603,4.5513,4.518,4.5137,4.4988,4.4682,4.4919,4.5099,4.5101,4.4749,4.4831,0.0,4.4504,4.3652,4.3613,4.2676,4.2093,4.2066,4.1068,4.0372,4.012,3.9797,3.8691,3.6783,3.6022,3.5268,3.4496,3.4724,3.5025,3.5364,3.5557,3.5667,3.5605,3.5622,3.5622,3.5622,3.5622,3.5207,3.4624,3.4624,3.4235,3.3633,3.3684,3.4858,3.652,3.7349,3.8284,3.939,4.0962,4.1867,4.2551,4.3633,4.4271,4.4657,4.503,4.5342,4.5586,4.5586,4.5586,4.5586,4.5586,4.5586,4.5586,4.5586,4.5586,4.5586,4.5586,4.5708,4.5796,4.5796,4.585,4.594,4.608,4.5306,4.4993,4.5771,4.586,4.5833,4.5764,4.579,4.5747,4.5582,4.5603,4.5586,4.5586,4.5586,4.5586,4.5586,4.5586,4.5317,4.4762,4.4703,4.4805,4.5039,4.5019,4.5311,4.5899,4.5899,4.5609,3.7435,0.0,3.9552,4.0754,4.1834,4.2779,4.3287,4.3924,4.4455,4.4707,4.4573,4.4341,4.4113,4.4441,4.4556,4.3999,4.4585,4.4966,4.465,4.4455,4.4542,4.5052,4.4824,0.0,0.0,0.0,0.0,4.4438,4.4052,4.3305,4.21,4.1619,4.1053,4.0392,3.9351,3.8089,3.6584,3.5097,3.4036,3.3477,3.425,3.4922,3.5479,3.5576,3.5622,3.5622,3.5622,3.5334,3.4912,3.5419,3.4923,3.3933,3.4394,3.4186,3.3582,3.3582,3.4021,3.4738,3.5914,3.7353,3.8736,3.9216,4.0691,4.222,4.1739,4.2828,4.4233,4.4281,4.4762,4.5322,4.5531,4.5586,4.5586,4.5586,4.5586,4.5586,4.5586,4.5586,4.5586,4.5586,4.5708,4.5815,4.5861,4.5959,4.5884,4.544,4.5067,4.489,4.5079,4.511,4.5306,4.5803,4.5871,4.5836,4.5747,4.5733,4.5692,4.5603,4.5586,4.5586,4.5586,4.5586,4.5583,4.5501,4.4976,4.5078,4.5859,4.5186,4.5216,4.5899,4.585,4.5439,3.7866,3.8486,3.881,4.0037,4.0891,4.1636,4.2421,4.3107,4.3733,4.4261,4.4075,4.3735,4.3516,4.3922,4.4001,4.3023,4.3582,4.4125,4.3984,4.3659,4.3863,4.4976,4.5048,4.5238,0.0,0.0,0.0,4.5319,4.4699,4.3775,4.2557,4.1809,4.1093,4.0375,3.9066,3.7807,3.6584,3.4653,3.3493,3.3144,3.4066,3.4742,3.5216,3.5216,3.5064,3.4827,3.4827,3.4539,3.4134,3.4624,3.4303,3.3491,3.3483,3.3224,3.2871,3.2594,3.2646,3.3121,3.4725,3.6209,3.7423,3.8135,3.9606,4.1144,4.1083,4.2251,4.3631,4.3876,4.4501,4.5159,4.5381,4.5513,4.5586,4.5586,4.5586,4.5586,4.5586,4.5586,4.5586,4.5586,4.5708,4.582,4.59,4.6045,4.6005,4.5547,4.5424,4.5269,4.486,4.5069,4.5448,4.5923,4.5924,4.5872,4.5809,4.5471,4.5198,4.4996,4.4709,4.4671,4.4978,4.4997,4.5263,4.5852,4.5385,4.5495,4.6225,4.5621,4.5377,4.5471,4.5714,4.5214,3.8686,3.8409,3.7991,4.0341,4.0377,4.0249,4.1827,4.2445,4.2917,4.3662,4.3731,4.3643,0.0,0.0,4.3771,4.2351,4.242,4.2686,4.2828,4.2705,4.3245,0.0,0.0,0.0,0.0,0.0,0.0,4.6152,0.0,4.3587,4.3413,4.1771,4.0621,4.0157,3.8986,3.7811,3.6708,3.4622,3.3541,3.3397,3.4083,3.4438,3.4438,3.4472,3.41,3.3406,3.3406,3.3389,3.3355,3.3389,3.3416,3.3247,3.2014,3.1507,3.148,3.0724,3.0904,3.1799,3.3795,3.4872,3.5725,3.7632,3.8631,3.9426,4.1458,4.2345,4.2832,4.3662,4.4395,4.4995,4.5055,4.5322,4.5568,4.5568,4.5586,4.5586,4.5586,4.5586,4.5586,4.5586,4.5723,4.582,4.5881,4.6117,4.6308,4.6308,4.6308,4.5996,4.5176,4.5781,4.6226,4.6058,4.5903,4.5765,4.5674,4.4758,4.4095,4.3823,4.3039,4.2962,4.3764,4.384,4.4441,4.5686,4.5822,4.592,4.603,4.6168,4.5685,4.4651,4.5451,4.4931,3.6653,3.6714,3.689,3.8102,3.8707,3.9276,4.0286,4.1043,4.1496,4.1274,4.1417,4.1562,0.0,0.0,0.0,4.2704,4.3648,0.0,4.3762,4.3893,0.0,4.5017,0.0,4.521,4.5035,4.4871,0.0,0.0,4.4809,4.4167,4.3436,4.2955,4.2073,4.0682,3.8642,3.7299,3.671,3.3772,3.2574,3.3085,3.3512,3.3677,3.3694,3.4252,3.41,3.3406,3.3406,3.3085,3.2611,3.3169,3.2813,3.1823,3.158,3.1223,3.0716,3.006,3.0213,3.0949,3.1998,3.3713,3.5464,3.6019,3.726,3.8611,3.8921,3.9906,4.111,4.1969,4.2791,4.3584,4.4487,4.4966,4.5222,4.5222,4.5419,4.5586,4.5586,4.5586,4.5586,4.5586,4.5744,4.5881,4.5899,4.6117,4.6308,4.6308,4.6308,4.6211,4.5996,4.6085,4.5909,4.5277,4.4857,4.433,4.3616,4.3113,4.2735,4.2564,4.2351,4.2332,4.2541,4.3128,4.3759,4.445,4.5059,4.5289,4.5133,4.5112,4.4679,4.3894,4.455,4.4491,3.6335,3.6081,3.5936,3.6762,3.7037,3.7404,3.8579,3.9289,3.9737,3.9786,4.0207,0.0,4.0494,0.0,0.0,0.0,0.0,0.0,4.3983,4.3952,4.43,0.0,4.5115,0.0,4.4752,4.4114,4.3902,0.0,4.4018,4.365,4.3405,4.2734,4.1855,4.0781,3.8503,3.6615,3.5175,3.4024,3.3423,3.3485,3.3985,3.3945,3.3406,3.3491,3.3119,3.2425,0.0,3.2188,3.1833,3.2256,3.2152,3.1656,3.0865,3.0577,3.0376,2.947,2.937,2.9768,3.0472,3.1852,3.351,3.4942,3.6138,3.7175,3.7916,3.876,3.9697,4.0734,4.1477,4.2166,4.3043,4.3781,4.4307,4.4307,4.4853,4.5381,4.5381,4.5495,4.5586,4.5586,4.5736,4.5754,4.5423,4.5841,4.6108,4.5781,4.6055,4.6152,4.5737,4.5488,4.5072,4.4364,4.3548,4.2753,4.1987,4.1358,4.0922,4.0719,4.0346,4.0308,4.069,4.1334,4.2058,4.284,4.3561,4.3929,4.3928,4.3977,4.3628,4.2951,4.3681,4.3802,3.6707,3.5889,3.5055,3.5917,3.5569,3.5422,3.7022,3.7581,3.7997,3.8836,0.0,4.0065,4.0177,4.1749,4.2734,4.1819,0.0,4.3459,4.3978,4.3711,4.4025,4.5609,4.5156,4.4686,4.4651,4.3326,4.2778,4.3476,4.2812,4.2642,4.3234,4.2047,4.1,4.0268,3.8331,3.6012,3.3321,3.4537,3.4743,3.389,3.4653,3.4318,3.3102,3.2544,3.1884,3.119,3.119,3.119,3.119,3.119,3.1562,3.1972,3.0223,2.991,3.0332,2.9062,2.8621,2.8771,2.9304,2.9931,3.0911,3.3813,3.489,3.5399,3.7286,3.7976,3.8398,3.9696,4.0324,4.0708,4.1317,4.2315,4.3175,4.3269,4.4189,4.5052,4.5096,4.5362,4.5586,4.5586,4.5611,4.5459,4.4939,4.5436,4.5707,4.5053,4.5603,4.5731,4.4743,4.4421,4.4023,4.3362,4.2055,4.1041,4.0552,3.9663,3.8984,3.8686,3.7951,3.7879,3.8633,3.917,3.997,4.1157,4.1789,4.2298,4.2618,4.2807,4.2571,4.1972,4.2832,4.3004,3.5801,3.4914,3.4211,3.5009,3.51,3.5312,3.657,3.6932,0.0,0.0,3.8662,3.9576,4.0519,4.1516,4.2505,4.338,0.0,0.0,0.0,0.0,4.546,0.0,0.0,0.0,0.0,0.0,0.0,0.0,4.2431,4.2385,4.2554,4.2946,4.1529,3.8,3.7515,3.6134,3.3707,3.3633,3.3315,3.2755,3.3206,3.2754,3.1596,3.207,3.1884,3.119,3.119,0.0,3.119,3.119,3.1275,3.132,3.0485,3.0231,3.0217,2.8951,2.8858,2.9265,2.8921,2.9194,2.9863,3.1061,3.2545,3.4024,3.4823,3.587,3.701,3.838,3.8768,3.9149,4.0495,4.1576,4.2469,4.3051,4.397,4.4757,4.5052,4.5362,4.5586,4.5586,4.5128,4.4899,4.5505,4.523,4.4888,4.4773,4.4871,4.4537,4.3324,4.3443,4.3281,4.2298,4.0495,3.9294,3.9073,3.8133,3.7558,3.752,3.7358,3.734,3.7465,3.8217,3.9012,3.9921,4.0718,4.1343,4.1736,4.1759,4.1576,4.1205,4.1972,4.229,3.5693,3.4973,3.4431,3.4394,3.4492,3.4735,3.5348,0.0,0.0,0.0,3.7637,3.8853,3.9408,0.0,0.0,0.0,0.0,0.0,0.0,0.0,0.0,0.0,0.0,0.0,0.0,0.0,0.0,4.2461,4.2789,4.2824,4.2373,4.168,4.0294,3.8037,3.7395,3.623,3.4449,3.4425,3.3988,3.3085,3.3069,3.2603,3.1749,3.1732,3.1512,3.119,3.0878,3.074,3.0699,3.0393,3.0435,3.0658,3.0081,2.9805,2.9717,2.8826,2.8486,2.848,2.8156,2.8484,2.9073,2.9428,3.1131,3.3164,3.3796,3.4912,3.6182,3.7097,3.7364,3.7602,3.8602,3.9511,4.0329,4.0922,4.2069,4.3122,4.3474,4.3802,4.4039,4.4039,4.3891,4.3772,4.3828,4.3873,4.3792,4.3408,4.3227,4.2884,4.2202,4.1226,4.0683,4.0887,3.8916,3.7623,3.7708,3.6904,3.6357,3.6357,3.6357,3.6357,3.6357,3.701,3.7531,3.7935,3.8862,3.9527,3.9896,4.0387,4.0651,4.0704,4.1197,4.1674,3.6,3.5235,3.4559,3.3813,3.3814,3.403,3.4226,3.4725,0.0,0.0,3.6875,3.8118,3.8428,0.0,4.1448,0.0,0.0,0.0,0.0,0.0,0.0,0.0,0.0,0.0,0.0,0.0,0.0,4.2687,4.3015,4.2861,4.1964,4.0083,3.8657,3.7811,3.6836,3.5733,3.447,3.478,3.4378,3.3196,3.2819,3.2346,3.184,3.1146,3.0797,3.0797,3.0293,3.0123,3.0081,2.9585,2.9673,3.0081,2.9585,2.9406,2.9316,2.8732,2.8189,2.776,2.7458,2.7921,2.854,2.8434,3.0161,3.2411,3.3012,3.422,3.5481,3.589,3.6122,3.6385,3.6974,3.7664,3.8376,3.9066,4.0284,4.1396,4.1766,4.2111,4.2357,4.2479,4.2565,4.2501,4.2086,4.2401,4.2516,4.1928,4.1654,4.1369,4.0882,3.8927,3.8072,3.9336,3.7504,3.6311,3.6514,3.596,3.5554,3.5385,3.552,3.5622,3.5622,3.6011,3.6291,3.6374,3.7155,3.7855,3.8395,3.9048,3.9695,4.0405,4.0491,4.1006,3.6731,3.5083,3.3768,3.3215,3.3184,3.3391,3.3774,0.0,0.0,3.6231,3.6774,3.7527,3.8869,3.9217,3.9766,4.1201,0.0,4.2058,0.0,0.0,0.0,0.0,0.0,0.0,0.0,0.0,0.0,4.3358,4.2364,4.1449,4.0713,3.9264,3.7451,3.5214,3.4704,3.3918,3.2722,3.276,3.2508,3.1948,3.138,3.0908,3.0476,2.9837,2.9585,2.954,2.9496,2.9496,0.0,2.9406,2.9451,2.9496,2.9406,2.9406,2.9316,2.8732,2.8463,2.8222,2.7019,2.7489,2.8487,2.7802,2.9447,3.1696,3.1743,3.3139,3.4688,3.4767,3.5174,3.5864,3.665,3.7266,3.7993,3.9248,3.9912,4.0375,4.0909,4.1266,4.1627,4.2063,4.1586,4.1325,4.1992,4.1537,4.1105,4.1032,4.0991,4.0419,3.8886,3.7497,3.6932,3.7655,3.649,3.5684,3.5723,3.5656,3.5318,3.4641,3.5233,3.5622,3.5622,3.5667,3.5898,3.6374,3.6498,3.7159,3.8414,3.8015,3.8702,4.0386,3.9921,4.0132,3.7264,3.5807,3.4281,3.3299,3.2864,3.2832,3.3523,0.0,3.4642,3.5342,3.601,3.6633,3.7233,3.8144,3.886,3.9015,3.9827,0.0,0.0,0.0,0.0,0.0,0.0,0.0,0.0,0.0,0.0,4.2489,4.0496,3.8935,3.7966,3.7389,3.6616,3.5625,3.4509,3.369,3.3241,3.2613,3.1967,3.124,3.041,2.9913,2.9761,2.9496,2.9406,2.9361,2.9012,2.8873,0.0,2.8448,2.8543,2.8873,2.8873,2.8873,2.8826,2.8606,2.8547,2.8354,2.6957,2.792,2.956,2.8402,2.9651,3.1536,3.1597,3.2732,3.3987,3.3987,3.4496,3.4961,3.4922,3.5257,3.5842,3.6861,3.7388,3.7848,3.8528,3.9173,3.9645,3.9844,4.0014,4.0226,4.0547,4.0339,4.0132,4.0132,3.9308,3.8609,3.8407,3.6823,3.6001,3.6745,3.5309,3.4658,3.5493,3.5199,3.481,3.4506,3.5199,3.5622,3.5622,3.5207,3.5128,3.5307,3.5222,3.5382,3.5948,3.6631,3.7663,3.8973,3.9398,4.0012,3.7137,3.5855,3.455,3.3563,3.2637,3.218,0.0,0.0,3.3704,3.4053,3.4851,3.5571,3.5856,3.6936,3.7636,3.7255,3.827,3.9166,3.9318,0.0,0.0,0.0,0.0,0.0,0.0,0.0,0.0,4.1739,3.9631,3.7885,3.6702,3.5984,3.5371,3.4836,3.344,3.2612,3.2422,3.1528,3.0683,2.9815,2.893,2.8482,2.8466,2.8292,2.8211,2.8211,2.7981,2.7913,0.0,2.771,2.786,2.8222,2.8222,2.836,2.8544,2.8544,2.8688,2.8711,2.7486,2.855,3.0306,2.9114,2.9985,3.1492,3.1555,3.2398,3.3287,3.3287,3.3786,3.4186,3.3735,3.3856,3.4202,3.4728,3.5093,3.5591,3.6481,3.7108,3.7625,3.8002,3.8516,3.8933,3.9077,3.9096,3.9096,3.9096,3.8114,3.7494,3.7778,3.63,3.5486,3.6096,3.4525,3.3914,3.5182,3.5013,3.4726,3.4506,3.5004,3.5299,3.5299,3.464,3.4203,3.394,3.3777,3.3516,3.3107,3.4057,3.5194,3.6535,3.786,3.9433,3.611,3.4918,3.4225,3.3875,3.2479,3.1355,0.0,3.2489,3.2841,3.2582,3.3327,3.4335,3.531,3.5533,3.5789,3.6572,3.7008,0.0,3.7958,0.0,0.0,0.0,0.0,0.0,0.0,0.0,0.0,4.1445,4.0274,0.0,3.7742,3.547,3.3474,3.1894,3.0834,3.0005,2.9336,2.8735,2.8053,2.7333,2.6697,2.6411,2.6294,2.5727,2.5453,2.5508,2.6229,2.651,0.0,2.7306,2.7625,2.7625,2.7625,2.803,2.8592,2.8592,2.9011,2.9441,2.8691,2.9339,3.038,2.9638,3.0338,3.1482,3.1524,3.2007,3.2586,3.2586,3.3093,3.3582,3.3582,3.3582,3.3582,3.3633,3.3633,3.3955,3.516,3.543,3.5779,3.6985,3.721,3.736,3.7825,3.7928,3.7928,3.7928,3.7893,3.7524,3.6563,3.574,3.5363,3.5582,3.4286,3.3694,3.4438,3.5182,3.5284,3.4539,3.4588,3.4624,3.4624,3.3987,3.3192,3.2361,3.2307,3.1689,3.0342,2.9796,3.0784,3.3107,3.4898,3.808,3.5742,3.4205,3.2531,3.2014,3.0952,3.0283,3.1246,3.1845,3.236,3.2876,3.346,3.3972,3.4286,3.4776,3.5237,3.5495,3.6131,3.6703,0.0,0.0,0.0,0.0,0.0,0.0,0.0,0.0,3.963,3.9353,3.7238,3.5802,3.5376,3.2992,3.1901,3.2602,3.0656,2.9494,2.9303,2.7403,2.6566,2.6697,2.5604,2.5307,2.5672,2.5494,2.5163,2.483,2.5478,2.5827,2.6009,2.6599,2.7152,2.7625,2.7625,2.7993,2.8607,2.8607,2.928,3.0022,2.8837,2.9591,3.1006,2.9784,2.9972,3.0703,3.0703,3.1248,3.1951,3.2437,3.2367,3.2312,3.2788,3.2516,3.2312,3.2788,3.2895,3.313,3.3989,3.4427,3.4894,3.5822,3.6624,3.7224,3.7394,3.8249,3.8587,3.7557,3.7538,3.7341,3.6527,3.5891,3.5511,3.5588,3.5199,3.4793,3.4523,3.4709,3.4549,3.3877,3.4292,3.4382,3.3937,3.2716,3.1921,3.1611,2.9892,2.8802,2.8353,2.7311,2.8829,3.2817,3.4763,3.8007,0.0,3.3384,3.1737,3.1688,3.0817,0.0,3.1038,3.1603,3.2096,3.2672,3.319,3.3606,3.3762,3.431,3.4783,3.4962,3.5654,3.625,0.0,0.0,0.0,0.0,0.0,0.0,0.0,0.0,3.8077,3.731,3.5682,3.4275,3.3324,3.1438,3.0667,3.1212,2.9538,2.8378,2.7902,2.5925,2.4769,2.4583,2.3658,2.3413,2.3782,2.4006,2.3782,2.3218,2.42,2.4585,0.0,2.5449,2.6229,2.687,2.7136,2.7919,2.8966,2.8966,2.9789,3.0765,2.9866,3.0408,3.1334,3.0469,3.0235,3.0269,2.9889,3.0147,3.0629,3.1115,3.0896,3.0689,3.1101,3.0896,3.0689,3.1101,3.1217,3.1417,3.2112,3.2751,3.3377,3.4104,3.5071,3.5977,3.6429,3.7283,3.776,3.7351,3.7195,3.6972,3.6603,3.6253,3.5943,3.5656,3.5876,3.5622,3.4573,3.4505,3.4368,3.3933,3.3893,3.3499,3.2732,3.1573,3.0646,2.9943,2.8045,2.6729,2.5971,2.384,2.4816,2.8764,3.1857,3.553,0.0,3.1722,3.1174,0.0,0.0,0.0,3.1236,3.1719,0.0,3.213,3.2708,3.3321,3.3707,3.3966,3.4303,3.4885,3.5388,0.0,0.0,0.0,0.0,0.0,0.0,0.0,0.0,0.0,3.7452,3.5447,3.5206,3.4001,3.1451,3.0546,2.9501,2.8106,2.7476,2.6657,2.5558,2.4098,2.2791,2.1511,2.1226,2.0986,2.0961,2.1566,2.1434,0.0,2.2496,2.2916,2.2552,2.3983,2.4934,2.5582,2.6273,2.769,2.9456,2.951,3.0347,3.1409,3.1467,3.1482,3.1467,3.1351,3.0777,2.995,2.9066,2.8939,2.9002,2.9002,2.9002,2.9002,2.9002,2.9002,2.9002,2.9002,2.9002,2.915,2.9811,3.0558,3.1342,3.2105,3.2977,3.3968,3.5153,3.5453,3.6017,3.7231,3.6835,3.6491,3.678,3.6772,3.6485,3.5707,3.6315,3.6163,3.4624,3.4522,3.451,3.4445,3.3224,3.2164,3.133,3.0585,2.9442,2.7802,2.671,2.5085,2.2955,1.9474,1.8965,2.1426,2.6558,3.0909,2.0829,0.0,2.5874,2.8364,2.9543,3.0404,0.0,3.2165,3.2447,3.2416,0.0,0.0,3.3609,3.2875,3.2809,3.4478,3.4022,3.3923,0.0,0.0,0.0,0.0,0.0,0.0,0.0,0.0,3.6208,3.4527,3.3114,3.1564,2.9832,2.8206,2.6877,2.5876,2.471,2.4353,2.4728,2.2029,2.0682,2.0765,1.9987,1.9778,2.0171,2.0682,2.0421,1.9602,2.0389,2.0892,2.1219,2.2395,2.3608,2.4819,2.5416,2.6525,2.7852,2.8481,2.9479,3.0644,3.1278,3.1482,3.1278,3.0011,2.9002,2.8182,2.7351,2.7986,2.9002,2.9002,2.9002,2.9002,2.9002,2.9002,2.9002,2.9002,2.9002,2.9052,2.9199,2.9386,2.9925,3.1285,3.2558,3.3723,3.4623,3.6178,3.7171,3.692,3.6737,3.6666,3.6776,3.6772,3.6485,3.5707,3.6315,3.6163,3.4624,3.4101,3.3611,3.3047,3.2253,3.1719,3.1465,3.0058,2.9129,2.8684,2.5726,2.1934,1.7481,1.4901,1.3692,1.4029,2.0062,2.5196,1.2447,1.6568,2.1584,2.43,2.6648,2.8699,3.0059,0.0,0.0,0.0,0.0,0.0,0.0,0.0,0.0,0.0,3.461,0.0,0.0,0.0,0.0,0.0,0.0,0.0,0.0,0.0,3.5117,3.3752,3.209,3.0261,2.8251,2.6573,2.5009,2.3682,2.2089,2.1781,2.2844,2.0605,1.9468,1.9452,1.863,1.8507,1.8913,1.903,1.8649,1.7994,1.8256,1.8467,1.8854,2.0305,2.1771,2.3271,2.4737,2.6059,2.7294,2.7973,2.9109,3.0329,3.0777,3.097,3.0644,2.8939,2.8051,2.7537,2.6714,2.7095,2.7855,2.7855,2.7855,2.7855,2.7855,2.7855,2.7855,2.7855,2.7855,2.7855,2.7855,2.8117,2.8671,2.9482,3.0793,3.2147,3.3347,3.4705,3.598,3.7049,3.6929,3.697,3.7691,3.7804,3.7364,3.6265,3.684,3.64,3.4184,3.3451,3.2935,3.2465,3.1596,3.1022,3.0899,2.9734,2.8469,2.7089,2.4246,1.9631,1.316,0.8255,0.5386,0.4552,1.0819,1.6902,0.5793,1.0515,1.6612,1.9711,2.3011,2.5914,2.7486,0.0,0.0,0.0,0.0,0.0,0.0,0.0,0.0,0.0,0.0,0.0,0.0,0.0,0.0,0.0,0.0,0.0,3.6984,3.578,3.4478,3.3246,3.1598,2.9561,2.6927,2.5294,2.3589,2.1658,1.9905,1.9336,2.0079,1.9091,1.8284,1.7655,1.6992,1.686,1.7234,1.6977,1.6569,1.6045,0.0,0.0,1.6097,1.8034,1.9767,2.1386,2.3791,2.5453,2.662,2.7317,2.8512,2.9737,3.0011,3.0072,2.9827,2.8247,2.7604,2.7351,2.6508,2.6383,2.6452,2.6314,2.6383,2.6533,2.6533,2.6533,2.6533,2.6533,2.6533,2.6533,2.6533,2.704,2.7537,2.767,2.8783,3.0132,3.1703,3.2627,3.4136,3.7031,3.695,3.7133,3.8788,3.8785,3.8176,3.6907,3.7347,3.6603,3.3812,3.289,3.2418,3.2258,3.1052,3.0234,2.9941,2.9392,2.7615,2.4484,2.188,1.6708,0.8769,0.0734,-0.3446,-0.3955,0.2188,0.9404,0.2058,0.4168,0.7582,1.3994,1.8205,2.1533,2.4329,0.0,0.0,0.0,0.0,0.0,0.0,0.0,0.0,0.0,0.0,0.0,0.0,0.0,0.0,0.0,0.0,0.0,3.6566,3.5889,3.492,3.3472,3.1372,2.9063,2.6357,2.4191,2.2143,2.0296,1.9195,1.7934,1.6329,1.6059,1.5487,1.4737,1.4347,1.4357,1.4672,1.4975,1.4536,1.3545,0.0,1.3675,1.4072,1.601,1.7865,1.9555,2.164,2.2821,2.3606,2.5199,2.624,2.7141,2.8643,2.9192,2.9002,2.8051,2.7229,2.6508,2.5511,2.5804,2.6314,2.5441,2.5873,2.6533,2.6533,2.6533,2.6533,2.6533,2.6533,2.6533,2.6533,2.6589,2.6905,2.7537,2.8332,2.9174,3.0197,3.1933,3.3794,3.5595,3.5768,3.6576,3.8722,3.7905,3.7026,3.6806,3.6874,3.6231,3.4472,3.3234,3.2232,3.1605,3.0371,2.9355,2.8639,2.8369,2.6412,2.2644,1.7288,1.0324,0.179,-0.6252,-0.8506,-0.524,0.0316,0.9011,0.029,0.0863,0.2767,0.663,1.1725,1.6297,1.843,0.0,0.0,0.0,0.0,0.0,0.0,0.0,0.0,0.0,0.0,0.0,0.0,0.0,0.0,0.0,0.0,3.799,3.8021,3.7388,3.6486,3.5379,3.2922,3.0484,2.8253,2.5727,2.3381,2.1141,2.0047,1.828,1.5785,1.5021,1.435,1.3803,1.3434,1.3545,1.409,1.3795,1.3187,1.2333,0.0,1.1805,1.2335,1.4117,1.6231,1.8633,2.0705,2.1974,2.295,2.5098,2.6655,2.7906,2.8721,2.9002,2.8876,2.7986,2.7162,2.6314,2.53,2.53,2.5594,2.5146,2.5734,2.6533,2.6533,2.6533,2.6533,2.6533,2.6533,2.6533,2.6533,2.6533,2.6589,2.6973,2.7559,2.8402,2.9769,3.103,3.263,3.4765,3.537,3.6346,3.8235,3.7848,3.7381,3.7381,3.6693,3.5585,3.4084,3.2708,3.135,2.9904,2.9641,2.8985,2.7919,2.7221,2.5089,2.142,1.4114,0.605,-0.2829,-1.2289,-1.4722,-1.0462,-0.471,0.4929,-0.1809,-0.2221,-0.1738,-0.0433,0.0,1.1281,1.3332,0.0,0.0,0.0,0.0,0.0,0.0,0.0,0.0,0.0,0.0,0.0,0.0,0.0,0.0,0.0,3.8821,3.8561,3.9932,3.9071,3.8264,3.7861,3.5316,3.298,3.1244,2.8366,2.5629,2.3244,2.1589,1.9333,1.6445,1.4818,1.3622,1.2885,1.2383,1.249,1.3145,1.2422,1.1798,1.1188,1.0701,1.0623,1.0929,1.3006,1.5367,1.7929,2.0088,2.1743,2.3131,2.4953,2.6966,2.8684,2.8684,2.8812,2.8876,2.7986,2.7297,2.6564,2.5358,2.5158,2.53,2.5087,2.5734,2.6533,2.6533,2.6533,2.6533,2.6533,2.6533,2.6533,2.6533,2.642,2.6264,2.6264,2.6603,2.7408,2.9018,3.0028,3.1403,3.3798,3.503,3.6174,3.7557,3.7652,3.7587,3.741,3.619,3.4742,3.2949,3.1709,3.0172,2.8152,2.8633,2.8387,2.7052,2.5786,2.3361,1.9646,1.0888,0.2117,-0.6493,-1.6257,-1.8192,-1.2676,-0.7263,0.2704,-0.5369,-0.6949,-0.7797,-0.6133,0.0337,0.0,1.1281,1.37,0.0,0.0,0.0,0.0,0.0,0.0,0.0,0.0,0.0,0.0,0.0,0.0,0.0,4.0853,4.0632,4.0743,4.1551,4.0271,3.9739,4.0555,3.8341,3.6409,3.516,3.1585,2.8583,2.6333,2.3743,2.0874,1.7611,1.498,1.2679,1.0703,0.9958,0.9861,1.0378,1.0309,1.0016,0.9497,1.0387,1.043,1.0025,1.339,1.5658,1.7235,1.9667,2.1769,2.347,2.3649,2.5402,2.7802,2.7802,2.8298,2.8876,2.7986,2.767,2.7271,2.5557,2.5664,2.6164,2.5229,2.5734,2.6533,2.6533,2.6533,2.6533,2.6533,2.6533,2.6533,2.6533,2.6038,2.5649,2.5649,2.5686,2.6044,2.6933,2.8746,3.0623,3.2332,3.4373,3.598,3.6748,3.6865,3.6636,3.5927,3.5151,3.3616,3.1052,3.0088,2.8816,2.6779,2.7181,2.6923,2.5633,2.3657,2.0698,1.659,0.6615,-0.2113,-0.9386,-1.6639,-1.5708,-0.7105,-0.3375,0.6388,-0.6376,-0.8287,-0.9328,-0.8084,0.0,0.0,0.0,0.0,0.0,0.0,0.0,0.0,0.0,0.0,0.0,0.0,0.0,0.0,0.0,0.0,3.8894,4.0329,3.9983,3.9965,4.0777,4.0577,4.0538,4.094,3.9318,3.7508,3.5727,3.3332,3.0573,2.7448,2.5133,2.2168,1.8428,1.4604,1.1509,0.9136,0.8804,0.8528,0.8432,0.9674,0.9952,0.9382,1.0515,1.1306,1.1787,1.3461,1.5646,1.8148,2.0562,2.2328,2.3599,2.4192,2.5438,2.6992,2.8155,2.8748,2.9066,2.9254,2.8939,2.8155,2.6382,2.6052,2.6146,2.5276,2.53,2.5734,2.6314,2.6533,2.6433,2.6013,2.5925,2.5837,2.5511,2.5272,2.5109,2.5109,2.5372,2.5851,2.675,2.7851,2.9251,3.1355,3.2402,3.3588,3.5308,3.5069,3.4889,3.5075,3.4066,3.2578,3.0723,2.9491,2.8262,2.7003,2.5911,2.505,2.432,2.1726,1.8307,1.4074,0.4678,-0.312,-0.9251,-1.5722,-1.5179,-0.8037,-0.4201,0.4652,-0.8811,-1.0965,-1.2224,0.0,0.0,0.0,0.0,0.0,0.0,0.0,0.0,0.0,0.0,0.0,0.0,0.0,0.0,0.0,0.0,0.0,3.6795,3.8892,3.8897,3.9093,3.9993,4.0544,4.0976,4.1295,4.0234,3.8879,3.7305,3.4773,3.1864,2.8569,2.5622,2.2088,1.7878,1.3216,0.9504,0.6557,0.5894,0.6068,0.6931,0.833,0.9132,0.9382,1.0532,1.1827,1.3133,1.4095,1.6377,1.9352,2.1232,2.2627,2.3599,2.4636,2.5615,2.6612,2.84,2.9002,2.9129,3.0011,2.9889,2.9115,2.7246,2.671,2.6587,2.5697,2.5441,2.5664,2.6314,2.6533,2.6382,2.5737,2.5598,2.5448,2.4933,2.4476,2.4147,2.4147,2.4431,2.5043,2.6077,2.7114,2.8525,3.0587,3.1589,3.252,3.3888,3.3763,3.3567,3.3637,3.2582,3.152,3.0552,2.9415,2.824,2.6989,2.5167,2.3872,2.3304,2.0302,1.6684,1.2552,0.4387,-0.2353,-0.7671,-1.3084,-1.3526,-0.9242,-0.5565,0.1739,-1.3342,-1.5799,0.0,0.0,0.0,0.0,0.0,0.0,0.0,0.0,0.0,0.0,0.0,0.0,0.0,0.0,0.0,0.0,0.0,3.2101,3.4557,3.6501,3.7579,3.8528,3.9469,4.0227,4.1026,4.1892,4.1335,4.0811,4.045,3.6017,3.2366,2.9899,2.5168,2.0422,1.5703,1.0774,0.6526,0.2848,0.0938,0.2035,0.5979,0.5979,0.719,0.9296,1.034,1.1746,1.3478,1.5594,1.8056,2.0702,2.1659,2.2627,2.3588,2.4636,2.5664,2.6714,2.8427,2.9002,2.9129,3.0011,3.0329,2.995,2.8247,2.7736,2.755,2.6714,2.6533,2.6533,2.6521,2.6521,2.637,2.5724,2.5586,2.5423,2.4908,2.368,2.2638,2.2638,2.265,2.3115,2.4544,2.664,2.8666,3.0047,3.2191,3.337,3.2679,3.3044,3.2829,3.1432,3.069,3.0381,3.0511,2.9825,2.8569,2.6564,2.4925,2.358,2.2714,1.9634,1.6026,1.2031,0.5764,0.0078,-0.4991,-0.8674,-1.033,-1.0113,-0.6919,-0.1773,-1.1967,0.0,0.0,0.0,0.0,0.0,0.0,0.0,0.0,0.0,0.0,0.0,0.0,0.0,0.0,0.0,1.9271,2.2159,2.5481,2.7881,3.0223,3.259,3.4141,3.5285,3.5956,3.7289,3.8201,3.8466,3.8571,3.7792,3.5954,3.2843,2.9251,2.5145,2.0476,1.6266,1.2633,0.7384,0.3802,0.1846,-0.0741,-0.0676,0.1843,0.4049,0.5755,0.7291,0.9903,1.219,1.423,1.7517,1.9584,2.0876,2.2442,2.3094,2.3341,2.5296,2.5804,2.5779,2.8141,2.9002,2.9254,3.0703,3.0777,3.0072,2.8939,2.8182,2.755,2.6714,2.6533,2.6433,2.5963,2.585,2.5724,2.5184,2.4035,2.2931,2.2408,2.095,1.9935,2.058,2.0781,2.113,2.2194,2.3782,2.5743,2.8271,2.9318,3.0087,3.0867,3.0568,3.0158,2.9709,3.0043,3.0317,3.0367,2.9798,2.9131,2.8482,2.5661,2.358,2.2574,2.0151,1.7417,1.4402,0.8644,0.244,-0.4208,-0.8876,-1.2771,-1.5654,-1.3916,-0.9848,-1.1229,0.0,0.0,0.0,0.0,0.0,0.0,0.0,0.0,0.0,0.0,0.0,0.0,0.0,0.0,0.0,1.6602,1.8876,2.1917,2.3822,2.5934,2.8742,3.0377,3.1761,3.2984,3.4489,3.5173,3.4726,3.4371,3.3061,3.0452,2.6986,2.3354,1.9654,1.5271,1.1541,0.863,0.4141,0.1186,-0.0289,-0.2769,-0.32,-0.1689,0.1386,0.3842,0.5954,1.0481,1.3332,1.516,1.836,1.9969,2.0659,2.2495,2.325,2.341,2.5681,2.6094,2.5918,2.822,2.9002,2.9254,3.097,3.0778,2.9803,2.9171,2.8265,2.7249,2.6663,2.6533,2.6246,2.5308,2.4945,2.4727,2.4555,2.3376,2.2109,2.1368,1.9658,1.8284,1.8216,1.8121,1.8223,1.9059,2.1052,2.3429,2.6116,2.7714,2.8937,2.9681,2.8707,2.805,2.8414,2.863,2.8996,2.969,2.9545,2.9072,2.8477,2.653,2.4866,2.371,2.1428,1.9242,1.7082,0.8884,0.1725,-0.4068,-1.2545,-1.8392,-2.1807,-2.1075,-1.7694,-1.0562,0.0,0.0,0.0,0.0,0.0,0.0,0.0,0.0,0.0,0.0,0.0,0.0,0.0,0.0,0.0,1.4925,1.6427,1.8642,1.9843,2.168,2.4725,2.6224,2.7807,2.9851,3.1253,3.1584,3.0496,2.9068,2.7131,2.4464,1.9734,1.6071,1.385,1.0056,0.6741,0.4115,0.1262,-0.1076,-0.307,-0.4677,-0.5154,-0.4489,-0.1456,0.1832,0.5519,1.1446,1.4622,1.5894,1.8145,1.935,1.9895,2.1912,2.2999,2.3609,2.5554,2.6402,2.6714,2.8427,2.9002,2.9254,3.097,3.0601,2.9418,2.9198,2.8175,2.6985,2.6646,2.6514,2.6226,2.4675,2.3807,2.3436,2.3704,2.3004,2.2048,2.1102,1.9094,1.7121,1.5764,1.4985,1.4733,1.5353,1.8212,2.1383,2.4029,2.708,2.9043,2.885,2.7274,2.6506,2.7391,2.6655,2.6886,2.8593,2.8928,2.8547,2.7353,2.7428,2.6911,2.5632,2.3293,2.1272,1.9715,0.7583,-0.061,-0.4553,-1.7852,-2.5542,-2.7829,-2.7931,-2.4951,0.0,-1.013,0.0,0.0,0.0,0.0,0.0,0.0,0.0,0.0,0.0,0.0,0.0,0.0,0.0,0.0,1.2492,1.2807,1.4991,1.5836,1.6907,1.8686,2.1023,2.2591,2.2817,2.4383,2.5093,2.4418,2.3308,2.1879,2.0226,1.6802,1.3301,0.9836,0.6859,0.3897,0.0971,-0.033,-0.1965,-0.3908,-0.4327,-0.4775,-0.5262,-0.2369,0.1964,0.7266,1.0204,1.2952,1.5446,1.6991,1.7977,1.8616,2.0488,2.1734,2.2695,2.4196,2.548,2.6714,2.8427,2.9002,2.9254,3.097,3.0867,3.0081,3.0029,2.9358,2.8298,2.7155,2.6804,2.6375,2.4569,2.3201,2.2205,2.1873,2.0366,1.8935,1.8718,1.6635,1.4637,1.4271,1.2778,1.188,1.276,1.4673,1.7922,2.3331,2.5975,2.7413,2.7357,2.6156,2.5334,2.5557,2.5308,2.5595,2.6752,2.7088,2.7461,2.801,2.7636,2.7229,2.6983,2.5452,2.3188,2.0218,1.0148,0.1244,-0.637,-1.7966,-2.5987,-3.0494,-3.1012,-2.9944,0.0,0.0,0.0,0.0,0.0,0.0,0.0,0.0,0.0,0.0,0.0,0.0,0.0,0.0,0.0,0.0,1.0675,1.0619,1.2156,1.2102,1.2351,1.36,1.4904,1.6205,1.7467,1.8675,1.9221,1.8812,1.7544,1.5984,1.4198,1.1429,0.8722,0.632,0.4009,0.2109,0.0513,-0.066,-0.1821,-0.2805,-0.3694,-0.4161,-0.4129,-0.1598,0.2219,0.7119,0.9612,1.2131,1.4537,1.5728,1.6634,1.7297,1.8627,2.0022,2.1541,2.3037,2.4551,2.607,2.8285,2.9002,2.9199,3.0587,3.0484,2.9898,3.0207,2.9752,2.8947,2.8124,2.7919,2.7278,2.4604,2.3368,2.2431,2.0871,1.9227,1.7922,1.7761,1.636,1.4685,1.3383,1.1943,1.0773,1.012,1.2946,1.7072,2.2474,2.4857,2.6153,2.6493,2.5007,2.4026,2.4279,2.3764,2.3738,2.4265,2.5106,2.5785,2.6121,2.6329,2.6212,2.583,2.1046,1.8149,1.7687,0.9018,-0.098,-1.2201,-2.4045,-3.1591,-3.4982,-3.5346,-3.4596,0.0,0.0,0.0,0.0,0.0,0.0,0.0,0.0,0.0,0.0,0.0,0.0,0.0,0.0,0.0,0.0,0.9131,0.903,0.9799,0.8824,0.8352,0.9123,0.9134,1.0099,1.251,1.3181,1.3382,1.321,1.1667,1.0031,0.8264,0.6117,0.4492,0.3653,0.2128,0.1229,0.0901,-0.0397,-0.1207,-0.1541,-0.3078,-0.3291,-0.2363,-0.0287,0.2546,0.6127,0.9124,1.1556,1.3513,1.4522,1.5284,1.5831,1.6425,1.7871,1.9782,2.1424,2.3069,2.4905,2.7459,2.8502,2.8864,2.9972,2.9954,2.9753,3.0477,3.0279,2.9767,2.9491,2.9318,2.8498,2.5276,2.4176,2.3273,2.0768,1.9291,1.8251,1.7707,1.687,1.5649,1.333,1.1833,1.0367,0.8649,1.2277,1.6826,2.1058,2.343,2.4822,2.5275,2.3526,2.2472,2.2752,2.1728,2.1229,2.1677,2.2744,2.3337,2.3343,2.369,2.3393,2.2286,1.4103,0.9719,0.9905,0.277,-0.6952,-1.9192,-3.093,-3.7364,-3.8715,-3.8775,-3.795,0.0,0.0,0.0,0.0,0.0,0.0,0.0,0.0,0.0,0.0,0.0,0.0,0.0,0.0,0.0,0.0,0.0,0.7198,0.787,0.6783,0.5712,0.5209,0.5673,0.6168,0.6555,0.6635,0.6789,0.7057,0.5562,0.4703,0.4689,0.4315,0.3748,0.2887,0.2628,0.1709,0.0192,-0.0066,-0.0941,-0.2544,-0.2744,-0.242,-0.1425,0.0636,0.2804,0.5005,0.8103,1.0616,1.2451,1.3506,1.3897,1.3977,1.4068,1.5057,1.661,1.7989,2.0184,2.2776,2.507,2.6549,2.769,2.9073,2.9883,3.0597,3.1919,3.2198,3.2028,3.1343,3.0689,2.9681,2.7469,2.56,2.3905,2.2441,2.112,1.9776,1.8464,1.6974,1.5683,1.5037,1.2174,1.006,1.0808,1.2438,1.4808,1.8034,2.1079,2.2791,2.2124,2.1336,2.0589,1.991,1.8212,1.7877,1.9563,1.9424,1.9944,2.1354,1.9106,1.6777,1.484,0.8675,0.058,-0.9527,-1.3803,-1.8658,-2.4236,-3.2155,-3.6552,-3.7627,-3.7846,-3.7828,0.0,0.0,0.0,0.0,0.0,0.0,0.0,0.0,0.0,0.0,0.0,0.0,0.0,0.0,0.0,0.0,0.0,0.0,0.5774,0.4553,0.3239,0.2044,0.1446,0.1457,0.2312,0.2402,0.2828,0.3907,0.336,0.3047,0.3266,0.323,0.2992,0.257,0.208,0.1431,0.0642,0.0199,-0.0672,-0.1942,-0.1942,-0.1689,-0.1237,0.0213,0.2262,0.477,0.7358,0.9281,1.0622,1.1075,1.1297,1.1389,1.1242,1.2146,1.3769,1.5282,1.7433,2.0131,2.3199,2.4937,2.614,2.7649,2.8943,3.0081,3.096,3.2138,3.3085,3.2624,3.2057,3.1182,2.9368,2.7728,2.6298,2.5286,2.4244,2.3467,2.3293,2.1559,1.9645,1.8565,1.5562,1.3071,1.2641,1.3053,1.4198,1.6688,1.8968,2.0523,2.0871,1.9878,1.8715,1.7773,1.6399,1.5681,1.6114,1.6599,1.7119,1.761,1.5182,1.2206,0.8795,-0.1399,-1.0539,-1.822,-2.5041,-2.9386,-3.1207,-3.5137,-3.7542,-3.8415,-3.8377,-3.8456,0.0,0.0,0.0,0.0,0.0,0.0,0.0,0.0,0.0,0.0,0.0,0.0,0.0,0.0,0.0,0.0,0.0,0.0,0.355,0.2441,0.1114,-0.039,-0.1583,-0.1841,-0.0759,-0.0648,-0.0121,0.1086,0.1413,0.1626,0.167,0.2037,0.2209,0.2209,0.1496,0.1171,0.1171,0.04,-0.0337,-0.0939,-0.0939,-0.0954,-0.091,0.0072,0.1742,0.3946,0.6331,0.7999,0.8922,0.9221,0.9081,0.8805,0.8579,0.9135,1.0204,1.2093,1.4266,1.6838,2.0465,2.2698,2.423,2.5881,2.7412,2.8828,2.9743,3.1326,3.2866,3.3192,3.2951,3.2333,3.1156,3.0017,2.8934,2.8068,2.7442,2.6999,2.692,2.5559,2.3893,2.2314,1.9471,1.6789,1.5212,1.4319,1.4283,1.5878,1.7397,1.8581,1.9173,1.8024,1.6679,1.547,1.4251,1.3407,1.3245,1.3935,1.4209,1.3861,1.0553,0.6471,0.161,-1.1168,-2.0193,-2.4636,-3.2611,-3.6797,-3.6988,-3.8131,-3.9019,-3.9638,-3.9354,-3.9216,0.0,0.0,0.0,0.0,0.0,0.0,0.0,0.0,0.0,0.0,0.0,0.0,0.0,0.0,0.0,0.0,0.0,0.0,0.0,0.0626,-0.0461,-0.1902,-0.2299,-0.2481,-0.2353,-0.235,-0.236,-0.2429,-0.1477,-0.0977,-0.107,0.0468,0.1338,0.1338,0.1338,0.1271,0.1271,0.0403,0.0,-0.0067,-0.0067,-0.0068,0.0,0.1007,0.162,0.1961,0.4994,0.6912,0.7936,0.8917,0.8138,0.6371,0.6364,0.5819,0.5283,0.77,1.0104,1.267,1.6112,1.9229,2.1933,2.3615,2.523,2.6919,2.8946,3.0042,3.0919,3.2717,3.3071,3.2968,3.2932,3.2178,3.1236,3.0483,3.0172,2.935,2.6733,2.6853,2.7044,2.5519,2.2894,2.0517,1.9126,1.66,1.4895,1.5201,1.6762,1.7358,1.5703,1.5233,1.4395,1.2642,1.0714,1.0351,1.2151,1.147,1.0923,1.0924,0.446,-0.2108,-0.8213,-1.8544,-2.647,-3.1513,-3.6072,-3.8911,-3.9973,-4.0369,-4.0676,-4.0907,-4.0503,-3.9913,0.0,0.0,0.0,0.0,0.0,0.0,0.0,0.0,0.0,0.0,0.0,0.0,0.0,0.0,0.0,0.0,0.0,0.0,0.0,-0.1171,-0.199,-0.3084,-0.4151,-0.4614,-0.4195,-0.4674,-0.4816,-0.4426,-0.3412,-0.2629,-0.214,-0.0912,0.0,0.0458,0.0466,0.0471,0.0471,0.0135,0.0,0.0,0.0,0.0,0.0,0.0432,0.0959,0.1664,0.2781,0.4208,0.5844,0.6227,0.5915,0.5143,0.4516,0.3971,0.3893,0.616,0.8312,1.0639,1.4387,1.7184,1.9619,2.2313,2.3903,2.5223,2.7338,2.9094,3.0747,3.2476,3.3078,3.3406,3.4019,3.3509,3.2826,3.2818,3.3102,3.3108,3.2084,3.1902,3.1494,3.0012,2.7412,2.4504,2.1613,1.8711,1.6647,1.6192,1.5912,1.5833,1.6035,1.4167,1.2152,1.0415,0.9095,0.8371,0.8321,0.8647,0.8245,0.6881,0.0805,-0.5721,-1.2437,-2.1089,-2.7939,-3.2791,-3.5574,-3.7751,-3.9423,-4.0068,-4.0304,-4.0177,-4.0457,-4.0379,0.0,0.0,0.0,0.0,0.0,0.0,0.0,0.0,0.0,0.0,0.0,0.0,0.0,0.0,0.0,0.0,0.0,0.0,0.0,0.0,-0.3695,-0.4521,-0.5509,-0.598,-0.5586,-0.6354,-0.6643,-0.6109,-0.4941,0.0,-0.2951,-0.1593,-0.0451,0.0323,-0.0133,-0.0269,0.0,-0.0269,-0.0269,0.0,-0.034,-0.0554,-0.0569,-0.0875,-0.0594,0.0076,0.046,0.1937,0.4139,0.4139,0.3984,0.3597,0.2891,0.2345,0.2266,0.4048,0.5864,0.8085,1.1729,1.4698,1.7407,2.0533,2.2305,2.3723,2.5854,2.7845,2.9685,3.1556,3.2652,3.3468,3.453,3.4432,3.4141,3.442,3.4811,3.5156,3.5273,3.4995,3.4353,3.3129,3.0992,2.8239,2.4713,2.1472,1.8926,1.7536,1.5852,1.4952,1.5545,1.2806,1.0115,0.8295,0.7019,0.606,0.5726,0.5979,0.5496,0.3681,-0.2272,-0.8738,-1.5468,-2.2869,-2.8747,-3.2863,-3.4759,-3.6313,-3.7585,-3.9051,-3.9718,-3.9681,-4.0392,-4.0249,0.0,0.0,0.0,0.0,0.0,0.0,0.0,0.0,0.0,0.0,0.0,0.0,0.0,0.0,0.0,0.0,0.0,0.0,0.0,0.0,-0.5438,-0.6117,-0.6335,-0.645,-0.6455,-0.726,-0.7752,-0.7633,-0.617,-0.4777,-0.3666,-0.1384,0.0193,0.1031,-0.0463,-0.0873,-0.0067,-0.0873,-0.0873,-0.0067,-0.1105,-0.163,-0.1673,-0.2685,-0.3016,-0.2866,-0.18,0.0304,0.2963,0.2961,0.2421,0.1567,0.1488,0.0862,0.0078,0.1176,0.2804,0.5021,0.8019,1.1597,1.5341,1.8211,2.0373,2.2286,2.4641,2.6203,2.7679,3.0037,3.1793,3.3241,3.451,3.5022,3.5195,3.5194,3.519,3.5281,3.5612,3.5607,3.5325,3.4684,3.343,3.1494,2.8517,2.4936,2.1694,1.9257,1.6915,1.5021,1.397,1.1034,0.8379,0.6345,0.4334,0.35,0.4394,0.3571,0.2556,0.1521,-0.4989,-1.1553,-1.7613,-2.4283,-2.9139,-3.2093,-3.3857,-3.4778,-3.477,-3.753,-3.9084,-3.9531,-4.0335,-3.9477,0.0138,0.0,0.0,0.0,0.0,0.0,0.0,0.0,0.0,0.0,0.0,0.0,0.0,0.0,0.0,0.0,0.0,0.0,0.0,0.0,-0.6433,-0.6566,-0.6993,-0.737,-0.7535,-0.943,-1.0622,0.0,-0.9536,-0.7939,-0.5762,-0.1517,0.0714,0.033,-0.0133,-0.0536,-0.0939,-0.1207,-0.1207,-0.094,-0.1379,-0.1912,-0.2543,-0.2853,-0.2965,-0.2863,-0.2511,-0.1931,-0.1139,-0.0298,0.0226,0.0312,-0.1073,-0.1924,-0.2032,-0.0234,0.1784,0.4079,0.7776,1.1199,1.4434,1.732,1.9467,2.1381,2.3729,2.5731,2.7679,3.0037,3.2396,3.451,3.5768,3.5625,3.51,3.4944,3.5033,3.5144,3.524,3.5694,3.6114,3.6222,3.4745,3.2996,3.1416,2.8731,2.5887,2.3291,2.0984,1.8768,1.659,1.2646,0.8739,0.5415,0.387,0.2571,0.1396,0.1709,0.0617,-0.2574,-0.8357,-1.4088,-1.9755,-2.4799,-2.8585,-3.0896,-3.1675,-3.2544,-3.3591,-3.656,-3.7828,-3.745,-3.83,-3.7827,0.0,0.0,0.0,0.0,0.0,0.0,-0.4158,-0.4819,0.0,0.0,0.0,0.0,0.0,0.0,0.0,0.0,0.0,0.0,0.0,0.0,0.0,-0.8027,-0.8222,-0.857,-0.9023,-1.0746,-1.1897,-1.2124,-1.1063,-0.8813,-0.5202,-0.1653,0.013,-0.0066,-0.073,-0.1337,-0.1876,-0.2275,-0.229,-0.1977,-0.2521,-0.3283,-0.4126,-0.4533,-0.493,-0.5307,-0.5225,-0.5047,-0.4781,-0.4426,-0.3331,-0.2015,-0.2688,-0.3313,-0.3501,-0.1403,0.0699,0.2929,0.6064,0.9443,1.2862,1.566,1.8121,2.0553,2.3255,2.5542,2.7697,3.0185,3.3094,3.5708,3.6772,3.6532,3.5984,3.5798,3.5759,3.5794,3.5913,3.6311,3.6592,3.6381,3.5851,3.5005,3.3601,3.1582,2.9321,2.6778,2.3701,2.0718,1.8103,1.2728,0.7759,0.4332,0.1851,0.0,-0.1166,-0.0694,-0.168,-0.5017,-0.9997,-1.4962,-1.9789,-2.4463,-2.7645,-2.9169,-2.993,-3.1426,-3.3684,-3.5708,-3.7072,-3.7766,-3.7529,-3.6603,0.0,0.0,0.0,0.0,0.0,0.0,-0.2698,-0.3568,-0.4694,0.0,0.0,0.0,0.0,0.0,0.0,0.0,0.0,0.0,0.0,0.0,0.0,0.0,-0.9581,-0.9734,-1.0305,-1.1315,-1.2142,-1.2622,-1.1319,-0.8395,-0.3551,-0.2116,-0.1162,-0.0515,-0.192,-0.2757,-0.2891,-0.3641,-0.3759,-0.3221,-0.4237,-0.5225,-0.6226,-0.709,-0.7884,-0.8659,-0.8609,-0.8208,-0.7715,-0.8507,-0.7333,-0.4876,-0.411,-0.4264,-0.4727,-0.2809,-0.0701,0.1542,0.3541,0.6994,1.0979,1.3715,1.6646,1.9824,2.298,2.5514,2.789,3.09,3.4011,3.666,3.7615,3.7585,3.7262,3.7087,3.6887,3.6783,3.7009,3.713,3.6892,3.5949,3.6841,3.7194,3.5398,3.3873,3.2124,2.9821,2.5605,2.1678,1.8771,1.1979,0.6218,0.3027,-0.0923,-0.3346,-0.3403,-0.312,-0.3927,-0.617,-1.0305,-1.4404,-1.8472,-2.334,-2.6318,-2.7128,-2.8623,-3.1016,-3.4353,-3.5016,-3.6692,-3.9297,-3.7578,-3.5757,0.0,0.0,0.0,0.0,-0.0211,0.0,-0.3591,-0.4185,-0.4688,0.0,0.0,0.0,0.0,0.0,0.0,0.0,0.0,0.0,0.0,0.0,0.0,0.0,-1.0305,-1.0432,-0.96,-1.1509,-1.2793,-1.291,-1.1363,-0.9084,-0.5974,-0.3582,-0.2303,-0.2244,-0.2647,-0.3174,-0.3877,-0.424,-0.4714,-0.5432,-0.5725,-0.6753,-0.8447,-0.8389,-0.8618,-0.8949,-0.8582,-0.8578,-0.8797,-0.8979,-0.8282,-0.7163,-0.772,-0.7622,-0.6996,-0.5748,-0.3448,-0.0602,0.2234,0.5915,0.989,1.2709,1.6138,1.9695,2.2273,2.5196,2.8774,3.4178,3.5921,3.6605,3.8429,3.8108,3.7205,3.6864,3.6739,3.6708,3.6783,3.7287,3.7545,3.6934,3.7851,3.8452,3.7597,3.6358,3.4613,3.2047,2.8067,2.3587,1.8662,1.24,0.6386,0.1131,-0.2378,-0.4617,-0.5355,-0.411,-0.4385,-0.6988,-0.9397,-1.2854,-1.7553,-2.1416,-2.4096,-2.5586,-2.7948,-3.0567,-3.347,-3.4747,-3.6603,-3.8879,-3.7289,-3.5484,0.0,0.0,0.0,0.2804,0.1598,0.0,0.0,-0.2969,-0.426,-0.6634,0.0,0.0,0.0,0.0,0.0,0.0,0.0,0.0,0.0,0.0,0.0,0.0,-1.1532,-1.1713,-1.1055,-1.2806,-1.3961,-1.3961,-1.2274,-1.0417,-0.8422,-0.5733,-0.4219,-0.4354,-0.3818,-0.4268,-0.5741,-0.5813,-0.6456,-0.7542,-0.7642,-0.8354,-0.9746,-0.9433,-0.9738,-1.0461,-1.0065,-1.0195,-1.0674,-1.0674,-1.0438,-0.9911,-0.9383,-0.927,-0.9054,-0.6973,-0.4533,-0.1971,0.0524,0.4112,0.8038,1.0379,1.3862,1.7723,2.107,2.5813,3.1014,3.5647,3.7194,3.779,3.9304,3.9185,3.8558,3.8027,3.7906,3.7873,3.7711,3.8015,3.8198,3.7808,3.8625,3.9143,3.838,3.7398,3.5936,3.3634,2.9065,2.3904,1.8455,1.1146,0.4592,-0.0302,-0.3947,-0.5904,-0.5519,-0.3623,-0.302,-0.4486,-0.6818,-1.008,-1.4494,-1.8944,-2.2748,-2.5793,-2.846,-3.0922,-3.3149,-3.5192,-3.7336,-3.9455,-3.7917,-3.6186,0.0,0.0,0.0,0.0,0.0,0.1198,0.0,0.0,0.0,0.0,0.0,0.0,0.0,0.0,0.0,0.0,0.0,0.0,0.0,0.0,0.0,0.0,-1.3164,-1.3395,-1.3141,-1.4315,-1.5061,-1.4988,-1.3525,-1.2029,-1.0757,-0.8103,-0.661,-0.6533,-0.5614,-0.5983,-0.7619,-0.7659,-0.8264,-0.9458,-0.9599,-1.0036,-1.0761,-1.063,-1.109,-1.1937,-1.1637,-1.181,-1.2298,-1.2077,-1.215,-1.215,-1.0501,-1.0265,-1.0479,-0.7812,-0.5472,-0.336,-0.1283,0.2046,0.5661,0.787,1.1868,1.6628,2.0842,2.6783,3.273,3.6021,3.7756,3.8859,3.9947,4.0182,3.9972,3.9373,3.9167,3.9073,3.8964,3.8927,3.8903,3.878,3.9457,3.9725,3.8732,3.781,3.6507,3.4449,2.9162,2.3368,1.7483,0.928,0.2257,-0.2262,-0.578,-0.7147,-0.5586,-0.2797,-0.1178,-0.116,-0.3253,-0.6384,-1.0639,-1.6867,-2.2359,-2.6785,-2.9261,-3.149,-3.3488,-3.5999,-3.8294,-4.0315,-3.8952,-3.7411,0.0,0.0,0.0,0.0,0.2767,0.1849,-0.0841,0.0,-0.3501,-0.5568,0.0,0.0,0.0,0.0,0.0,0.0,0.0,0.0,0.0,0.0,0.0,-1.5601,-1.5661,-1.5431,-1.4688,-1.5455,-1.5758,-1.5285,-1.4705,-1.3858,-1.2595,-1.0641,-0.9291,-0.8539,-0.8499,-0.8674,-0.8922,-0.9045,-0.96,-1.0593,-1.1458,-1.1911,-1.2091,-1.2643,-1.2671,-1.2238,-1.1944,-1.2004,-1.2224,-1.1316,-1.1465,-1.2305,-1.2077,-1.1465,-1.0634,-0.9437,-0.7639,-0.547,-0.2621,0.0,0.2679,0.635,1.2767,1.976,2.3623,2.7697,3.1803,3.5381,3.7137,3.8285,3.9959,4.0271,4.0101,3.9812,3.9397,3.9212,3.9663,3.9753,3.9841,4.0038,4.05,4.0513,3.9401,3.8082,3.6358,3.3951,2.8411,2.1917,1.4633,0.7488,0.0514,-0.6233,-0.8093,-0.8457,-0.7355,-0.2502,0.0604,0.0757,0.1012,-0.1289,-0.6867,-1.6177,-2.3476,-2.8166,-2.969,-3.1874,-3.4879,-3.6953,-3.8992,-4.0896,-4.0188,-3.8823,0.0,0.0,0.0,0.0,0.0,0.0,-0.1285,0.0,-0.3734,0.0,0.0,0.0,0.0,0.0,0.0,0.0,-1.393,0.0,0.0,0.0,0.0,0.0,0.0,0.0,-1.6729,-1.6528,-1.6615,-1.7179,-1.6569,-1.6149,-1.6118,-1.3194,-1.1441,-1.1162,-0.9834,-0.9385,-1.0109,-1.0718,-1.1508,-1.2485,-1.3484,-1.3924,-1.3939,-1.3479,-1.3226,-1.3077,-1.2278,-1.2037,-1.2305,-1.1842,-1.1922,-1.2305,-1.2305,-1.207,-1.1471,-0.9895,-0.8378,-0.6704,-0.4287,-0.1682,0.137,0.603,1.1787,1.7765,2.1854,2.6385,3.0887,3.4347,3.6417,3.7895,3.9386,3.9945,4.0106,3.9992,4.0177,4.0391,4.0461,4.07,4.0977,4.1282,4.1116,4.0795,4.0265,3.8514,3.6303,3.3705,2.7234,1.9901,1.2391,0.4,-0.3483,-0.9467,-1.1417,-1.1276,-0.8602,-0.3197,0.1186,0.4087,0.2394,-0.19,-0.9006,-1.7019,-2.3928,-2.9589,-3.17,-3.4084,-3.6844,-3.8746,-4.0732,-4.271,-4.1719,-4.048,0.1023,0.0,0.0,0.0,0.0,0.0,0.0,0.0,0.0,0.0,0.0,0.0,0.0,0.0,0.0,0.0,0.0,-1.4968,0.0,0.0,0.0,0.0,0.0,0.0,0.0,-1.812,-1.8262,-1.9152,-1.8686,-1.8481,-1.8691,-1.5673,-1.3741,-1.3346,-1.1384,-1.0595,-1.1236,-1.2178,-1.2983,-1.3745,-1.4942,-1.5446,-1.5155,-1.4541,-1.401,-1.3658,-1.2784,-1.2394,-1.2305,-1.1996,-1.2077,-1.2305,-1.1996,-1.207,-1.2077,-1.0346,-0.919,-0.8254,-0.5906,-0.2879,0.0699,0.4983,0.9898,1.5007,1.9557,2.4504,2.9281,3.2902,3.5318,3.7156,3.8591,3.9538,4.0095,4.0053,4.0691,4.1238,4.0998,4.1474,4.1931,4.2033,4.1423,4.0762,4.0442,3.9159,3.7256,3.4482,2.775,1.9854,1.1185,0.1647,-0.6746,-1.3192,-1.5266,-1.4795,-1.1352,-0.5948,-0.0523,0.4625,0.1542,-0.4068,-1.2184,-1.8466,-2.4923,-3.1627,-3.3728,-3.5938,-3.8361,-4.0367,-4.2153,-4.3642,-4.2857,-4.1911,0.0,0.0,0.0,-0.141,0.0,0.0,0.0,0.0,-0.4548,0.0,0.0,0.0,0.0,0.0,0.0,0.0,0.0,0.0,0.0,0.0,0.0,0.0,0.0,0.0,0.0,-2.0472,-2.1123,-2.0775,-2.1108,-2.0751,-1.9337,-1.7881,-1.6263,-1.4381,-1.3829,-1.315,-1.2224,-1.3164,-1.3673,-1.3745,-1.5649,-1.607,-1.5234,-1.6131,-1.55,-1.3673,-1.3665,-1.3157,-1.2224,-1.1242,-1.1391,-1.2224,-1.1242,-1.1465,-1.215,-1.1162,-1.0708,-1.0248,-0.7198,-0.349,0.0389,0.2546,0.7165,1.2768,1.7703,2.2298,2.6725,3.09,3.367,3.5788,3.7661,3.9116,4.0077,3.9952,4.0611,4.126,4.112,4.1989,4.2605,4.2022,4.1305,4.051,3.9542,4.0087,3.968,3.6742,3.0955,2.2789,1.1357,0.1559,-0.8136,-1.7816,-1.9533,-1.9084,-1.6738,-1.1376,-0.5512,0.0623,-0.1685,-0.6967,-1.533,-2.0521,-2.6836,-3.4524,-3.5259,-3.6684,-3.8971,-4.1514,-4.2771,-4.2846,-4.3266,-4.2919,0.0,0.0,-0.3988,-0.2925,0.0,0.0,0.0,0.0,0.0,0.0,0.0,0.0,0.0,0.0,0.0,0.0,0.0,0.0,0.0,0.0,0.0,0.0,0.0,0.0,0.0,0.0,0.0,-2.285,-2.3084,-2.3238,-2.3302,-2.121,-1.8947,-1.6798,-1.5094,-1.3896,-1.3244,-1.4171,-1.5013,-1.5649,-1.6932,-1.7364,-1.701,-1.6715,-1.6069,-1.5085,-1.4142,-1.3338,-1.2806,-1.2065,-1.1996,-1.2305,-1.1922,-1.1996,-1.215,-1.1162,-1.0783,-1.0351,-0.741,-0.4487,-0.1723,0.0242,0.4366,0.9216,1.3033,1.7803,2.2965,2.7953,3.1048,3.3611,3.6908,3.8112,3.8798,4.0177,4.0914,4.1421,4.1839,4.2556,4.2727,4.1641,3.9631,3.7485,3.571,3.5608,3.6025,3.6817,2.9576,2.0005,0.8806,-0.2559,-1.3497,-2.3777,-2.5226,-2.4589,-2.2431,-1.3856,-0.7278,-0.4052,-0.5988,-1.0662,-1.8145,-2.3204,-2.9016,-3.5872,-3.6612,-3.8104,-4.0511,-4.1698,-4.2676,-4.3454,-4.348,-4.3141,-0.5561,-0.6229,0.0,-0.5548,-0.6294,0.0,-0.5999,0.0,-0.565,0.0,0.0,0.0,0.0,0.0,0.0,0.0,0.0,0.0,0.0,-1.8444,0.0,0.0,0.0,0.0,0.0,0.0,-2.358,-2.4598,-2.5428,-2.5704,-2.5357,-2.3386,-2.0955,-1.8,-1.6292,-1.4877,-1.3745,-1.5021,-1.5939,-1.6351,-1.7503,-1.793,-1.7793,-1.7619,-1.703,-1.612,-1.5443,-1.4654,-1.38,-1.3085,-1.2806,-1.2806,-1.2806,-1.2806,-1.2659,-1.1687,-1.0917,-1.003,-0.7803,-0.5322,-0.2896,-0.0827,0.2495,0.6302,0.9504,1.3253,1.7431,2.1951,2.5971,2.9668,3.272,3.537,3.7676,3.9365,4.0405,4.1065,4.128,4.1651,4.1417,3.9564,3.6403,3.3093,3.0108,2.8375,2.9025,3.3713,2.55,1.511,0.4994,-0.8219,-2.0225,-2.9475,-3.1036,-3.0123,-2.6984,-1.8633,-1.2865,-1.1375,-1.2599,-1.5975,-2.183,-2.623,-3.1366,-3.7432,-3.742,-3.8734,-4.1556,-4.1565,-4.2218,-4.3423,-4.3278,-4.3077]}]]